<?xml version='1.0' encoding='UTF-8'?><gpx version="1.1" creator="JPX - https://github.com/jenetics/jpx" xmlns="http://www.topografix.com/GPX/1/1"><trk><trkseg><trkpt lat="46.0273483" lon="11.9130576"><ele>285.99999999999994</ele><time>2026-04-23T10:53:34.535Z</time></trkpt><trkpt lat="46.0273509" lon="11.9129361"><ele>286.0</ele><time>2026-04-23T10:53:47.536Z</time></trkpt><trkpt lat="46.0273797" lon="11.9128354"><ele>286.0</ele><time>2026-04-23T10:53:50.536Z</time></trkpt><trkpt lat="46.0274042" lon="11.912738"><ele>286.0</ele><time>2026-04-23T10:53:53.536Z</time></trkpt><trkpt lat="46.0274076" lon="11.9126382"><ele>286.0</ele><time>2026-04-23T10:53:56.536Z</time></trkpt><trkpt lat="46.0274682" lon="11.9125848"><ele>285.99999999999994</ele><time>2026-04-23T10:54:00.536Z</time></trkpt><trkpt lat="46.027532" lon="11.9125822"><ele>286.0</ele><time>2026-04-23T10:54:03.536Z</time></trkpt><trkpt lat="46.0275987" lon="11.912575"><ele>286.16666666666663</ele><time>2026-04-23T10:54:06.536Z</time></trkpt><trkpt lat="46.0276686" lon="11.9125694"><ele>286.3333333333333</ele><time>2026-04-23T10:54:09.536Z</time></trkpt><trkpt lat="46.0277523" lon="11.9125673"><ele>286.5</ele><time>2026-04-23T10:54:13.536Z</time></trkpt><trkpt lat="46.0278236" lon="11.9125655"><ele>286.6666666666667</ele><time>2026-04-23T10:54:16.535Z</time></trkpt><trkpt lat="46.0279129" lon="11.9125633"><ele>286.83333333333337</ele><time>2026-04-23T10:54:19.537Z</time></trkpt><trkpt lat="46.0279785" lon="11.9125616"><ele>287.0</ele><time>2026-04-23T10:54:21.536Z</time></trkpt><trkpt lat="46.0280677" lon="11.9125579"><ele>287.0</ele><time>2026-04-23T10:54:24.536Z</time></trkpt><trkpt lat="46.0281605" lon="11.9125532"><ele>287.0</ele><time>2026-04-23T10:54:27.537Z</time></trkpt><trkpt lat="46.0282446" lon="11.912549"><ele>287.0</ele><time>2026-04-23T10:54:30.536Z</time></trkpt><trkpt lat="46.0283355" lon="11.9125445"><ele>287.0</ele><time>2026-04-23T10:54:33.536Z</time></trkpt><trkpt lat="46.028411" lon="11.9125407"><ele>287.0</ele><time>2026-04-23T10:54:36.537Z</time></trkpt><trkpt lat="46.0284936" lon="11.9125233"><ele>287.0</ele><time>2026-04-23T10:54:39.536Z</time></trkpt><trkpt lat="46.0285832" lon="11.9125008"><ele>287.0</ele><time>2026-04-23T10:54:42.535Z</time></trkpt><trkpt lat="46.028673" lon="11.9124797"><ele>287.0</ele><time>2026-04-23T10:54:45.536Z</time></trkpt><trkpt lat="46.028721" lon="11.9123745"><ele>287.0</ele><time>2026-04-23T10:54:48.534Z</time></trkpt><trkpt lat="46.0287157" lon="11.9122398"><ele>287.0</ele><time>2026-04-23T10:54:51.534Z</time></trkpt><trkpt lat="46.028705" lon="11.9121415"><ele>287.0</ele><time>2026-04-23T10:54:53.534Z</time></trkpt><trkpt lat="46.0286909" lon="11.912037"><ele>287.0</ele><time>2026-04-23T10:54:55.535Z</time></trkpt><trkpt lat="46.0286758" lon="11.9119422"><ele>287.0</ele><time>2026-04-23T10:54:57.535Z</time></trkpt><trkpt lat="46.028666" lon="11.9118442"><ele>287.0</ele><time>2026-04-23T10:54:59.537Z</time></trkpt><trkpt lat="46.0286581" lon="11.9117108"><ele>287.0</ele><time>2026-04-23T10:55:02.538Z</time></trkpt><trkpt lat="46.0286484" lon="11.911615"><ele>287.0</ele><time>2026-04-23T10:55:04.539Z</time></trkpt><trkpt lat="46.0286387" lon="11.9115137"><ele>287.0</ele><time>2026-04-23T10:55:06.539Z</time></trkpt><trkpt lat="46.0286299" lon="11.9114083"><ele>287.0</ele><time>2026-04-23T10:55:08.539Z</time></trkpt><trkpt lat="46.0286103" lon="11.911304"><ele>287.0</ele><time>2026-04-23T10:55:10.539Z</time></trkpt><trkpt lat="46.0285882" lon="11.9111938"><ele>287.0</ele><time>2026-04-23T10:55:12.538Z</time></trkpt><trkpt lat="46.0285703" lon="11.9110825"><ele>287.0</ele><time>2026-04-23T10:55:14.538Z</time></trkpt><trkpt lat="46.0285578" lon="11.9109595"><ele>287.0</ele><time>2026-04-23T10:55:16.537Z</time></trkpt><trkpt lat="46.0285495" lon="11.9108342"><ele>287.0</ele><time>2026-04-23T10:55:18.537Z</time></trkpt><trkpt lat="46.0285444" lon="11.9107106"><ele>287.0</ele><time>2026-04-23T10:55:20.539Z</time></trkpt><trkpt lat="46.0285412" lon="11.9105931"><ele>287.0</ele><time>2026-04-23T10:55:22.537Z</time></trkpt><trkpt lat="46.0285344" lon="11.9104788"><ele>287.0</ele><time>2026-04-23T10:55:24.535Z</time></trkpt><trkpt lat="46.0285347" lon="11.9103673"><ele>287.0</ele><time>2026-04-23T10:55:26.538Z</time></trkpt><trkpt lat="46.0285346" lon="11.9102589"><ele>287.0</ele><time>2026-04-23T10:55:28.537Z</time></trkpt><trkpt lat="46.0285352" lon="11.9101523"><ele>287.0</ele><time>2026-04-23T10:55:30.538Z</time></trkpt><trkpt lat="46.0285298" lon="11.9100484"><ele>287.0</ele><time>2026-04-23T10:55:32.539Z</time></trkpt><trkpt lat="46.028523" lon="11.909944"><ele>287.0</ele><time>2026-04-23T10:55:34.536Z</time></trkpt><trkpt lat="46.028515" lon="11.9098371"><ele>287.0</ele><time>2026-04-23T10:55:36.54Z</time></trkpt><trkpt lat="46.0285073" lon="11.9097342"><ele>286.85714285714283</ele><time>2026-04-23T10:55:38.539Z</time></trkpt><trkpt lat="46.0284951" lon="11.9096368"><ele>286.7142857142857</ele><time>2026-04-23T10:55:40.539Z</time></trkpt><trkpt lat="46.028491" lon="11.9095386"><ele>286.57142857142856</ele><time>2026-04-23T10:55:42.534Z</time></trkpt><trkpt lat="46.028491" lon="11.9094377"><ele>286.42857142857144</ele><time>2026-04-23T10:55:44.537Z</time></trkpt><trkpt lat="46.0284877" lon="11.9093359"><ele>286.2857142857143</ele><time>2026-04-23T10:55:46.539Z</time></trkpt><trkpt lat="46.0284787" lon="11.9092384"><ele>286.1428571428571</ele><time>2026-04-23T10:55:48.54Z</time></trkpt><trkpt lat="46.0284695" lon="11.909141"><ele>286.0</ele><time>2026-04-23T10:55:50.539Z</time></trkpt><trkpt lat="46.0284562" lon="11.9090411"><ele>285.99999999999994</ele><time>2026-04-23T10:55:52.538Z</time></trkpt><trkpt lat="46.0284468" lon="11.9089365"><ele>286.0</ele><time>2026-04-23T10:55:54.538Z</time></trkpt><trkpt lat="46.0284385" lon="11.9088339"><ele>286.0</ele><time>2026-04-23T10:55:56.54Z</time></trkpt><trkpt lat="46.0284242" lon="11.908732"><ele>286.0</ele><time>2026-04-23T10:55:58.538Z</time></trkpt><trkpt lat="46.0284087" lon="11.9086294"><ele>286.0</ele><time>2026-04-23T10:56:00.537Z</time></trkpt><trkpt lat="46.0283907" lon="11.9085363"><ele>285.99999999999994</ele><time>2026-04-23T10:56:02.537Z</time></trkpt><trkpt lat="46.0283674" lon="11.9084431"><ele>286.0</ele><time>2026-04-23T10:56:04.54Z</time></trkpt><trkpt lat="46.0283442" lon="11.9083515"><ele>286.1428571428571</ele><time>2026-04-23T10:56:06.539Z</time></trkpt><trkpt lat="46.0283247" lon="11.9082591"><ele>286.2857142857143</ele><time>2026-04-23T10:56:08.54Z</time></trkpt><trkpt lat="46.0283102" lon="11.9081655"><ele>286.42857142857144</ele><time>2026-04-23T10:56:10.539Z</time></trkpt><trkpt lat="46.0282974" lon="11.9080704"><ele>286.57142857142856</ele><time>2026-04-23T10:56:12.538Z</time></trkpt><trkpt lat="46.0282861" lon="11.9079736"><ele>286.7142857142857</ele><time>2026-04-23T10:56:14.538Z</time></trkpt><trkpt lat="46.0282824" lon="11.9078724"><ele>286.85714285714283</ele><time>2026-04-23T10:56:16.537Z</time></trkpt><trkpt lat="46.0282906" lon="11.9077767"><ele>287.0</ele><time>2026-04-23T10:56:18.538Z</time></trkpt><trkpt lat="46.028311" lon="11.9076837"><ele>287.0</ele><time>2026-04-23T10:56:20.537Z</time></trkpt><trkpt lat="46.0283391" lon="11.907593"><ele>287.0</ele><time>2026-04-23T10:56:22.537Z</time></trkpt><trkpt lat="46.0283652" lon="11.9074997"><ele>287.0</ele><time>2026-04-23T10:56:24.537Z</time></trkpt><trkpt lat="46.0283885" lon="11.9074055"><ele>287.0</ele><time>2026-04-23T10:56:26.539Z</time></trkpt><trkpt lat="46.0284117" lon="11.9073092"><ele>287.0</ele><time>2026-04-23T10:56:28.537Z</time></trkpt><trkpt lat="46.0284291" lon="11.9072147"><ele>287.0</ele><time>2026-04-23T10:56:30.537Z</time></trkpt><trkpt lat="46.0284417" lon="11.9071195"><ele>287.0</ele><time>2026-04-23T10:56:32.539Z</time></trkpt><trkpt lat="46.02845" lon="11.9070257"><ele>286.85714285714283</ele><time>2026-04-23T10:56:34.539Z</time></trkpt><trkpt lat="46.0284556" lon="11.906932"><ele>286.7142857142857</ele><time>2026-04-23T10:56:36.537Z</time></trkpt><trkpt lat="46.0284524" lon="11.9068357"><ele>286.57142857142856</ele><time>2026-04-23T10:56:38.538Z</time></trkpt><trkpt lat="46.0284464" lon="11.9067392"><ele>286.42857142857144</ele><time>2026-04-23T10:56:40.537Z</time></trkpt><trkpt lat="46.0284422" lon="11.9066411"><ele>286.2857142857143</ele><time>2026-04-23T10:56:42.537Z</time></trkpt><trkpt lat="46.0284462" lon="11.9065404"><ele>286.1428571428571</ele><time>2026-04-23T10:56:44.54Z</time></trkpt><trkpt lat="46.0284552" lon="11.9064406"><ele>286.0</ele><time>2026-04-23T10:56:46.536Z</time></trkpt><trkpt lat="46.0284648" lon="11.9063431"><ele>285.99999999999994</ele><time>2026-04-23T10:56:48.537Z</time></trkpt><trkpt lat="46.0284827" lon="11.9062451"><ele>286.0</ele><time>2026-04-23T10:56:50.539Z</time></trkpt><trkpt lat="46.0285038" lon="11.9061494"><ele>286.0</ele><time>2026-04-23T10:56:52.537Z</time></trkpt><trkpt lat="46.0285344" lon="11.9060604"><ele>286.0</ele><time>2026-04-23T10:56:54.539Z</time></trkpt><trkpt lat="46.0285635" lon="11.9059709"><ele>286.0</ele><time>2026-04-23T10:56:56.536Z</time></trkpt><trkpt lat="46.0285964" lon="11.905881"><ele>285.99999999999994</ele><time>2026-04-23T10:56:58.536Z</time></trkpt><trkpt lat="46.0286235" lon="11.9057903"><ele>286.0</ele><time>2026-04-23T10:57:00.539Z</time></trkpt><trkpt lat="46.0286464" lon="11.9056967"><ele>286.16666666666663</ele><time>2026-04-23T10:57:02.538Z</time></trkpt><trkpt lat="46.0286712" lon="11.9056019"><ele>286.3333333333333</ele><time>2026-04-23T10:57:04.539Z</time></trkpt><trkpt lat="46.028696" lon="11.9055026"><ele>286.5</ele><time>2026-04-23T10:57:06.538Z</time></trkpt><trkpt lat="46.0287215" lon="11.9053984"><ele>286.6666666666667</ele><time>2026-04-23T10:57:08.539Z</time></trkpt><trkpt lat="46.0287419" lon="11.9052878"><ele>286.83333333333337</ele><time>2026-04-23T10:57:10.539Z</time></trkpt><trkpt lat="46.0287551" lon="11.9051723"><ele>287.0</ele><time>2026-04-23T10:57:12.539Z</time></trkpt><trkpt lat="46.028767" lon="11.9050568"><ele>286.6666666666667</ele><time>2026-04-23T10:57:14.537Z</time></trkpt><trkpt lat="46.0287768" lon="11.9049481"><ele>286.33333333333337</ele><time>2026-04-23T10:57:16.537Z</time></trkpt><trkpt lat="46.0287734" lon="11.904856"><ele>286.0</ele><time>2026-04-23T10:57:18.538Z</time></trkpt><trkpt lat="46.028734" lon="11.90477"><ele>285.6666666666667</ele><time>2026-04-23T10:57:22.539Z</time></trkpt><trkpt lat="46.0286826" lon="11.904655"><ele>285.3333333333333</ele><time>2026-04-23T10:57:25.539Z</time></trkpt><trkpt lat="46.0286532" lon="11.9045499"><ele>285.0</ele><time>2026-04-23T10:57:27.539Z</time></trkpt><trkpt lat="46.0286951" lon="11.9044565"><ele>285.0</ele><time>2026-04-23T10:57:29.536Z</time></trkpt><trkpt lat="46.0287837" lon="11.9044433"><ele>285.0</ele><time>2026-04-23T10:57:31.54Z</time></trkpt><trkpt lat="46.0288716" lon="11.9044337"><ele>285.0</ele><time>2026-04-23T10:57:33.539Z</time></trkpt><trkpt lat="46.028956" lon="11.9044119"><ele>285.0</ele><time>2026-04-23T10:57:35.538Z</time></trkpt><trkpt lat="46.0290344" lon="11.9043803"><ele>285.0</ele><time>2026-04-23T10:57:37.539Z</time></trkpt><trkpt lat="46.0291098" lon="11.9043437"><ele>285.0</ele><time>2026-04-23T10:57:39.536Z</time></trkpt><trkpt lat="46.029185" lon="11.9043111"><ele>285.5</ele><time>2026-04-23T10:57:41.539Z</time></trkpt><trkpt lat="46.0292582" lon="11.9042666"><ele>286.0</ele><time>2026-04-23T10:57:43.536Z</time></trkpt><trkpt lat="46.0293288" lon="11.9042212"><ele>286.5</ele><time>2026-04-23T10:57:45.538Z</time></trkpt><trkpt lat="46.0293949" lon="11.9041716"><ele>287.0</ele><time>2026-04-23T10:57:47.536Z</time></trkpt><trkpt lat="46.0294595" lon="11.9041165"><ele>287.5</ele><time>2026-04-23T10:57:49.539Z</time></trkpt><trkpt lat="46.0295226" lon="11.9040597"><ele>288.0</ele><time>2026-04-23T10:57:51.536Z</time></trkpt><trkpt lat="46.0295875" lon="11.9040006"><ele>288.3333333333333</ele><time>2026-04-23T10:57:53.537Z</time></trkpt><trkpt lat="46.0296497" lon="11.9039307"><ele>288.6666666666667</ele><time>2026-04-23T10:57:55.539Z</time></trkpt><trkpt lat="46.0297091" lon="11.9038568"><ele>289.0</ele><time>2026-04-23T10:57:57.537Z</time></trkpt><trkpt lat="46.0297689" lon="11.9037826"><ele>289.33333333333337</ele><time>2026-04-23T10:57:59.534Z</time></trkpt><trkpt lat="46.029822" lon="11.9037053"><ele>289.6666666666667</ele><time>2026-04-23T10:58:01.535Z</time></trkpt><trkpt lat="46.0298731" lon="11.9036247"><ele>290.0</ele><time>2026-04-23T10:58:03.536Z</time></trkpt><trkpt lat="46.0299282" lon="11.9035418"><ele>290.1666666666667</ele><time>2026-04-23T10:58:05.538Z</time></trkpt><trkpt lat="46.0299832" lon="11.903469"><ele>290.33333333333337</ele><time>2026-04-23T10:58:07.54Z</time></trkpt><trkpt lat="46.0300285" lon="11.9033864"><ele>290.5</ele><time>2026-04-23T10:58:09.535Z</time></trkpt><trkpt lat="46.0300672" lon="11.9032903"><ele>290.6666666666667</ele><time>2026-04-23T10:58:11.535Z</time></trkpt><trkpt lat="46.0301003" lon="11.9031866"><ele>290.8333333333333</ele><time>2026-04-23T10:58:13.537Z</time></trkpt><trkpt lat="46.0301297" lon="11.9030811"><ele>291.0</ele><time>2026-04-23T10:58:15.536Z</time></trkpt><trkpt lat="46.0301572" lon="11.9029776"><ele>290.6666666666667</ele><time>2026-04-23T10:58:17.537Z</time></trkpt><trkpt lat="46.0301882" lon="11.9028741"><ele>290.3333333333333</ele><time>2026-04-23T10:58:19.537Z</time></trkpt><trkpt lat="46.0302194" lon="11.9027674"><ele>290.0</ele><time>2026-04-23T10:58:21.538Z</time></trkpt><trkpt lat="46.0302419" lon="11.9026599"><ele>289.66666666666663</ele><time>2026-04-23T10:58:23.538Z</time></trkpt><trkpt lat="46.0302635" lon="11.9025504"><ele>289.3333333333333</ele><time>2026-04-23T10:58:25.538Z</time></trkpt><trkpt lat="46.030279" lon="11.90244"><ele>289.0</ele><time>2026-04-23T10:58:27.539Z</time></trkpt><trkpt lat="46.0302868" lon="11.9023261"><ele>289.0</ele><time>2026-04-23T10:58:29.54Z</time></trkpt><trkpt lat="46.0302896" lon="11.9022071"><ele>289.0</ele><time>2026-04-23T10:58:31.539Z</time></trkpt><trkpt lat="46.0302912" lon="11.9020888"><ele>289.0</ele><time>2026-04-23T10:58:33.539Z</time></trkpt><trkpt lat="46.030288" lon="11.9019756"><ele>289.0</ele><time>2026-04-23T10:58:35.539Z</time></trkpt><trkpt lat="46.0302792" lon="11.9018618"><ele>289.0</ele><time>2026-04-23T10:58:37.54Z</time></trkpt><trkpt lat="46.030274" lon="11.9017512"><ele>289.0</ele><time>2026-04-23T10:58:39.539Z</time></trkpt><trkpt lat="46.0302654" lon="11.9016448"><ele>289.0</ele><time>2026-04-23T10:58:41.537Z</time></trkpt><trkpt lat="46.030253" lon="11.901537"><ele>289.0</ele><time>2026-04-23T10:58:43.541Z</time></trkpt><trkpt lat="46.0302361" lon="11.9014317"><ele>289.0</ele><time>2026-04-23T10:58:45.537Z</time></trkpt><trkpt lat="46.0302131" lon="11.9013279"><ele>289.0</ele><time>2026-04-23T10:58:47.535Z</time></trkpt><trkpt lat="46.0301868" lon="11.9012265"><ele>289.0</ele><time>2026-04-23T10:58:49.536Z</time></trkpt><trkpt lat="46.0301582" lon="11.9011261"><ele>289.0</ele><time>2026-04-23T10:58:51.539Z</time></trkpt><trkpt lat="46.0301276" lon="11.9010274"><ele>289.0</ele><time>2026-04-23T10:58:53.536Z</time></trkpt><trkpt lat="46.0300917" lon="11.9009304"><ele>289.0</ele><time>2026-04-23T10:58:55.539Z</time></trkpt><trkpt lat="46.0300543" lon="11.9008346"><ele>289.0</ele><time>2026-04-23T10:58:57.538Z</time></trkpt><trkpt lat="46.0300145" lon="11.900742"><ele>289.0</ele><time>2026-04-23T10:58:59.539Z</time></trkpt><trkpt lat="46.0299713" lon="11.9006541"><ele>289.0</ele><time>2026-04-23T10:59:01.536Z</time></trkpt><trkpt lat="46.0299236" lon="11.9005729"><ele>289.0</ele><time>2026-04-23T10:59:03.54Z</time></trkpt><trkpt lat="46.0298802" lon="11.9004901"><ele>289.0</ele><time>2026-04-23T10:59:05.539Z</time></trkpt><trkpt lat="46.029844" lon="11.9004043"><ele>289.0</ele><time>2026-04-23T10:59:07.537Z</time></trkpt><trkpt lat="46.0298222" lon="11.9003122"><ele>289.0</ele><time>2026-04-23T10:59:09.539Z</time></trkpt><trkpt lat="46.029837" lon="11.900224"><ele>289.0</ele><time>2026-04-23T10:59:11.536Z</time></trkpt><trkpt lat="46.0298902" lon="11.9001595"><ele>289.0</ele><time>2026-04-23T10:59:13.539Z</time></trkpt><trkpt lat="46.0299465" lon="11.9000896"><ele>289.0</ele><time>2026-04-23T10:59:15.538Z</time></trkpt><trkpt lat="46.0299994" lon="11.9000148"><ele>289.0</ele><time>2026-04-23T10:59:17.539Z</time></trkpt><trkpt lat="46.0300481" lon="11.8999378"><ele>289.0</ele><time>2026-04-23T10:59:19.538Z</time></trkpt><trkpt lat="46.0300837" lon="11.8998592"><ele>289.0</ele><time>2026-04-23T10:59:21.539Z</time></trkpt><trkpt lat="46.030077" lon="11.8997354"><ele>289.0</ele><time>2026-04-23T10:59:24.538Z</time></trkpt><trkpt lat="46.0300326" lon="11.8996558"><ele>289.0</ele><time>2026-04-23T10:59:26.539Z</time></trkpt><trkpt lat="46.0299855" lon="11.8995738"><ele>289.0</ele><time>2026-04-23T10:59:28.536Z</time></trkpt><trkpt lat="46.0299499" lon="11.8994873"><ele>289.0</ele><time>2026-04-23T10:59:30.538Z</time></trkpt><trkpt lat="46.0299204" lon="11.8993965"><ele>289.0</ele><time>2026-04-23T10:59:32.54Z</time></trkpt><trkpt lat="46.0298819" lon="11.8993097"><ele>289.0</ele><time>2026-04-23T10:59:34.539Z</time></trkpt><trkpt lat="46.0298524" lon="11.899221"><ele>289.5</ele><time>2026-04-23T10:59:36.538Z</time></trkpt><trkpt lat="46.0298269" lon="11.8991273"><ele>290.0</ele><time>2026-04-23T10:59:38.538Z</time></trkpt><trkpt lat="46.0298001" lon="11.8990339"><ele>290.5</ele><time>2026-04-23T10:59:40.539Z</time></trkpt><trkpt lat="46.0297753" lon="11.8989419"><ele>291.0</ele><time>2026-04-23T10:59:42.539Z</time></trkpt><trkpt lat="46.0297536" lon="11.898851"><ele>291.5</ele><time>2026-04-23T10:59:44.54Z</time></trkpt><trkpt lat="46.0297134" lon="11.8987301"><ele>292.0</ele><time>2026-04-23T10:59:47.538Z</time></trkpt><trkpt lat="46.02967" lon="11.8986302"><ele>292.0</ele><time>2026-04-23T10:59:50.536Z</time></trkpt><trkpt lat="46.0296839" lon="11.8985278"><ele>292.0</ele><time>2026-04-23T10:59:54.536Z</time></trkpt><trkpt lat="46.0297472" lon="11.8985015"><ele>292.0</ele><time>2026-04-23T10:59:56.539Z</time></trkpt><trkpt lat="46.0298144" lon="11.8984703"><ele>292.0</ele><time>2026-04-23T10:59:58.535Z</time></trkpt><trkpt lat="46.0298839" lon="11.8984351"><ele>292.0</ele><time>2026-04-23T11:00:00.538Z</time></trkpt><trkpt lat="46.0299561" lon="11.898402"><ele>292.0</ele><time>2026-04-23T11:00:02.539Z</time></trkpt><trkpt lat="46.0300299" lon="11.8983666"><ele>292.0</ele><time>2026-04-23T11:00:04.536Z</time></trkpt><trkpt lat="46.0301015" lon="11.8983256"><ele>291.8333333333333</ele><time>2026-04-23T11:00:06.538Z</time></trkpt><trkpt lat="46.030174" lon="11.8982792"><ele>291.66666666666663</ele><time>2026-04-23T11:00:08.539Z</time></trkpt><trkpt lat="46.0302474" lon="11.8982364"><ele>291.5</ele><time>2026-04-23T11:00:10.539Z</time></trkpt><trkpt lat="46.0303217" lon="11.8981958"><ele>291.3333333333333</ele><time>2026-04-23T11:00:12.538Z</time></trkpt><trkpt lat="46.0303901" lon="11.8981498"><ele>291.1666666666667</ele><time>2026-04-23T11:00:14.537Z</time></trkpt><trkpt lat="46.0304512" lon="11.8980986"><ele>291.0</ele><time>2026-04-23T11:00:16.538Z</time></trkpt><trkpt lat="46.0305092" lon="11.8980535"><ele>291.0</ele><time>2026-04-23T11:00:18.538Z</time></trkpt><trkpt lat="46.0305701" lon="11.8980057"><ele>291.0</ele><time>2026-04-23T11:00:20.538Z</time></trkpt><trkpt lat="46.0306366" lon="11.8979456"><ele>291.0</ele><time>2026-04-23T11:00:22.539Z</time></trkpt><trkpt lat="46.0307128" lon="11.8978814"><ele>291.0</ele><time>2026-04-23T11:00:24.537Z</time></trkpt><trkpt lat="46.0308009" lon="11.8978136"><ele>291.0</ele><time>2026-04-23T11:00:26.538Z</time></trkpt><trkpt lat="46.0308883" lon="11.8977365"><ele>291.0</ele><time>2026-04-23T11:00:28.539Z</time></trkpt><trkpt lat="46.0309647" lon="11.89764"><ele>291.40000000000003</ele><time>2026-04-23T11:00:30.539Z</time></trkpt><trkpt lat="46.0310367" lon="11.8975375"><ele>291.8</ele><time>2026-04-23T11:00:32.539Z</time></trkpt><trkpt lat="46.031106" lon="11.8974344"><ele>292.20000000000005</ele><time>2026-04-23T11:00:34.536Z</time></trkpt><trkpt lat="46.0311688" lon="11.8973258"><ele>292.6</ele><time>2026-04-23T11:00:36.54Z</time></trkpt><trkpt lat="46.0312166" lon="11.8972047"><ele>293.0</ele><time>2026-04-23T11:00:38.538Z</time></trkpt><trkpt lat="46.0312643" lon="11.8970817"><ele>293.0</ele><time>2026-04-23T11:00:40.538Z</time></trkpt><trkpt lat="46.0313189" lon="11.8969627"><ele>293.0</ele><time>2026-04-23T11:00:42.538Z</time></trkpt><trkpt lat="46.0313759" lon="11.8968533"><ele>293.0</ele><time>2026-04-23T11:00:44.537Z</time></trkpt><trkpt lat="46.0314328" lon="11.8967498"><ele>293.0</ele><time>2026-04-23T11:00:46.538Z</time></trkpt><trkpt lat="46.0314847" lon="11.896646"><ele>293.0</ele><time>2026-04-23T11:00:48.535Z</time></trkpt><trkpt lat="46.0315316" lon="11.8965382"><ele>293.8</ele><time>2026-04-23T11:00:50.539Z</time></trkpt><trkpt lat="46.0315784" lon="11.8964293"><ele>294.6</ele><time>2026-04-23T11:00:52.538Z</time></trkpt><trkpt lat="46.0316261" lon="11.896324"><ele>295.4</ele><time>2026-04-23T11:00:54.536Z</time></trkpt><trkpt lat="46.0316764" lon="11.8962137"><ele>296.2</ele><time>2026-04-23T11:00:56.539Z</time></trkpt><trkpt lat="46.0317282" lon="11.8961041"><ele>297.0</ele><time>2026-04-23T11:00:58.535Z</time></trkpt><trkpt lat="46.0317779" lon="11.8959934"><ele>297.6</ele><time>2026-04-23T11:01:00.539Z</time></trkpt><trkpt lat="46.031827" lon="11.895884"><ele>298.2</ele><time>2026-04-23T11:01:02.537Z</time></trkpt><trkpt lat="46.031877" lon="11.8957706"><ele>298.8</ele><time>2026-04-23T11:01:04.538Z</time></trkpt><trkpt lat="46.0319241" lon="11.895659"><ele>299.4</ele><time>2026-04-23T11:01:06.539Z</time></trkpt><trkpt lat="46.0319675" lon="11.8955456"><ele>300.0</ele><time>2026-04-23T11:01:08.539Z</time></trkpt><trkpt lat="46.0320094" lon="11.8954302"><ele>300.0</ele><time>2026-04-23T11:01:10.539Z</time></trkpt><trkpt lat="46.0320483" lon="11.8953165"><ele>300.0</ele><time>2026-04-23T11:01:12.538Z</time></trkpt><trkpt lat="46.032088" lon="11.895207"><ele>300.0</ele><time>2026-04-23T11:01:14.539Z</time></trkpt><trkpt lat="46.0321297" lon="11.8950982"><ele>300.0</ele><time>2026-04-23T11:01:16.539Z</time></trkpt><trkpt lat="46.032175" lon="11.8949879"><ele>300.0</ele><time>2026-04-23T11:01:18.539Z</time></trkpt><trkpt lat="46.0322194" lon="11.8948799"><ele>300.0</ele><time>2026-04-23T11:01:20.538Z</time></trkpt><trkpt lat="46.0322776" lon="11.8947927"><ele>300.1666666666667</ele><time>2026-04-23T11:01:22.539Z</time></trkpt><trkpt lat="46.0323528" lon="11.8947305"><ele>300.3333333333333</ele><time>2026-04-23T11:01:24.537Z</time></trkpt><trkpt lat="46.03243" lon="11.8946826"><ele>300.5</ele><time>2026-04-23T11:01:26.538Z</time></trkpt><trkpt lat="46.0325028" lon="11.8946342"><ele>300.66666666666663</ele><time>2026-04-23T11:01:28.538Z</time></trkpt><trkpt lat="46.0325595" lon="11.8945801"><ele>300.8333333333333</ele><time>2026-04-23T11:01:30.539Z</time></trkpt><trkpt lat="46.0325967" lon="11.8945006"><ele>301.0</ele><time>2026-04-23T11:01:32.54Z</time></trkpt><trkpt lat="46.032609" lon="11.8943997"><ele>301.0</ele><time>2026-04-23T11:01:34.538Z</time></trkpt><trkpt lat="46.032619" lon="11.8942931"><ele>301.0</ele><time>2026-04-23T11:01:36.539Z</time></trkpt><trkpt lat="46.0326304" lon="11.8941894"><ele>301.0</ele><time>2026-04-23T11:01:38.538Z</time></trkpt><trkpt lat="46.0326288" lon="11.8940911"><ele>301.0</ele><time>2026-04-23T11:01:40.536Z</time></trkpt><trkpt lat="46.0325902" lon="11.8939915"><ele>301.0</ele><time>2026-04-23T11:01:42.538Z</time></trkpt><trkpt lat="46.0325425" lon="11.893887"><ele>301.0</ele><time>2026-04-23T11:01:44.537Z</time></trkpt><trkpt lat="46.0324972" lon="11.8937873"><ele>301.3333333333333</ele><time>2026-04-23T11:01:46.537Z</time></trkpt><trkpt lat="46.0324544" lon="11.8936922"><ele>301.66666666666663</ele><time>2026-04-23T11:01:48.539Z</time></trkpt><trkpt lat="46.0324119" lon="11.8936016"><ele>302.0</ele><time>2026-04-23T11:01:50.539Z</time></trkpt><trkpt lat="46.0323785" lon="11.8935071"><ele>302.3333333333333</ele><time>2026-04-23T11:01:52.539Z</time></trkpt><trkpt lat="46.0323767" lon="11.893402"><ele>302.6666666666667</ele><time>2026-04-23T11:01:54.539Z</time></trkpt><trkpt lat="46.0323883" lon="11.8932941"><ele>303.0</ele><time>2026-04-23T11:01:56.54Z</time></trkpt><trkpt lat="46.0324014" lon="11.8931905"><ele>303.2857142857143</ele><time>2026-04-23T11:01:58.536Z</time></trkpt><trkpt lat="46.0324144" lon="11.8930877"><ele>303.57142857142856</ele><time>2026-04-23T11:02:00.539Z</time></trkpt><trkpt lat="46.0324241" lon="11.8929848"><ele>303.8571428571429</ele><time>2026-04-23T11:02:02.537Z</time></trkpt><trkpt lat="46.0324309" lon="11.8928793"><ele>304.1428571428571</ele><time>2026-04-23T11:02:04.538Z</time></trkpt><trkpt lat="46.0324454" lon="11.8927768"><ele>304.4285714285714</ele><time>2026-04-23T11:02:06.538Z</time></trkpt><trkpt lat="46.0324612" lon="11.8926666"><ele>304.7142857142857</ele><time>2026-04-23T11:02:08.539Z</time></trkpt><trkpt lat="46.0324715" lon="11.8925605"><ele>305.0</ele><time>2026-04-23T11:02:10.536Z</time></trkpt><trkpt lat="46.0324831" lon="11.8924493"><ele>305.0</ele><time>2026-04-23T11:02:12.538Z</time></trkpt><trkpt lat="46.032491" lon="11.8923397"><ele>305.0</ele><time>2026-04-23T11:02:14.538Z</time></trkpt><trkpt lat="46.0324987" lon="11.892227"><ele>305.0</ele><time>2026-04-23T11:02:16.539Z</time></trkpt><trkpt lat="46.0325105" lon="11.8921172"><ele>305.0</ele><time>2026-04-23T11:02:18.539Z</time></trkpt><trkpt lat="46.0325233" lon="11.8920135"><ele>305.0</ele><time>2026-04-23T11:02:20.539Z</time></trkpt><trkpt lat="46.0325445" lon="11.8919206"><ele>305.0</ele><time>2026-04-23T11:02:22.538Z</time></trkpt><trkpt lat="46.0325671" lon="11.8918249"><ele>305.0</ele><time>2026-04-23T11:02:24.539Z</time></trkpt><trkpt lat="46.0325945" lon="11.891732"><ele>305.2857142857143</ele><time>2026-04-23T11:02:26.538Z</time></trkpt><trkpt lat="46.0326154" lon="11.8916445"><ele>305.57142857142856</ele><time>2026-04-23T11:02:28.538Z</time></trkpt><trkpt lat="46.0326048" lon="11.8915079"><ele>305.85714285714283</ele><time>2026-04-23T11:02:31.539Z</time></trkpt><trkpt lat="46.0325906" lon="11.8914159"><ele>306.1428571428571</ele><time>2026-04-23T11:02:33.537Z</time></trkpt><trkpt lat="46.0325832" lon="11.8913174"><ele>306.42857142857144</ele><time>2026-04-23T11:02:35.538Z</time></trkpt><trkpt lat="46.0325801" lon="11.8912081"><ele>306.71428571428567</ele><time>2026-04-23T11:02:37.539Z</time></trkpt><trkpt lat="46.0325914" lon="11.8910979"><ele>307.0</ele><time>2026-04-23T11:02:39.54Z</time></trkpt><trkpt lat="46.0326095" lon="11.8909859"><ele>307.3333333333333</ele><time>2026-04-23T11:02:41.54Z</time></trkpt><trkpt lat="46.0326298" lon="11.8908695"><ele>307.66666666666663</ele><time>2026-04-23T11:02:43.539Z</time></trkpt><trkpt lat="46.032644" lon="11.8907522"><ele>308.0</ele><time>2026-04-23T11:02:45.537Z</time></trkpt><trkpt lat="46.0326587" lon="11.8906385"><ele>308.3333333333333</ele><time>2026-04-23T11:02:47.538Z</time></trkpt><trkpt lat="46.0326713" lon="11.8905251"><ele>308.6666666666667</ele><time>2026-04-23T11:02:49.537Z</time></trkpt><trkpt lat="46.0326793" lon="11.890416"><ele>309.0</ele><time>2026-04-23T11:02:51.539Z</time></trkpt><trkpt lat="46.0326919" lon="11.8903036"><ele>309.0</ele><time>2026-04-23T11:02:53.539Z</time></trkpt><trkpt lat="46.0327062" lon="11.8901845"><ele>309.0</ele><time>2026-04-23T11:02:55.539Z</time></trkpt><trkpt lat="46.0327135" lon="11.8900688"><ele>309.0</ele><time>2026-04-23T11:02:57.539Z</time></trkpt><trkpt lat="46.0327202" lon="11.8899617"><ele>309.0</ele><time>2026-04-23T11:02:59.537Z</time></trkpt><trkpt lat="46.0327292" lon="11.889851"><ele>309.0</ele><time>2026-04-23T11:03:01.54Z</time></trkpt><trkpt lat="46.032737" lon="11.8897356"><ele>309.0</ele><time>2026-04-23T11:03:03.539Z</time></trkpt><trkpt lat="46.0327538" lon="11.8896201"><ele>309.5</ele><time>2026-04-23T11:03:05.539Z</time></trkpt><trkpt lat="46.0327754" lon="11.8895076"><ele>310.0</ele><time>2026-04-23T11:03:07.537Z</time></trkpt><trkpt lat="46.0327956" lon="11.8893945"><ele>310.5</ele><time>2026-04-23T11:03:09.54Z</time></trkpt><trkpt lat="46.0328097" lon="11.8892856"><ele>311.0</ele><time>2026-04-23T11:03:11.539Z</time></trkpt><trkpt lat="46.03282" lon="11.8891717"><ele>311.5</ele><time>2026-04-23T11:03:13.54Z</time></trkpt><trkpt lat="46.0328302" lon="11.8890609"><ele>312.0</ele><time>2026-04-23T11:03:15.537Z</time></trkpt><trkpt lat="46.032847" lon="11.8889507"><ele>312.1666666666667</ele><time>2026-04-23T11:03:17.536Z</time></trkpt><trkpt lat="46.0328735" lon="11.8888422"><ele>312.3333333333333</ele><time>2026-04-23T11:03:19.539Z</time></trkpt><trkpt lat="46.0328982" lon="11.8887306"><ele>312.5</ele><time>2026-04-23T11:03:21.539Z</time></trkpt><trkpt lat="46.0329201" lon="11.8886177"><ele>312.66666666666663</ele><time>2026-04-23T11:03:23.538Z</time></trkpt><trkpt lat="46.0329461" lon="11.8885053"><ele>312.8333333333333</ele><time>2026-04-23T11:03:25.538Z</time></trkpt><trkpt lat="46.0329714" lon="11.8883935"><ele>313.0</ele><time>2026-04-23T11:03:27.538Z</time></trkpt><trkpt lat="46.0329994" lon="11.8882811"><ele>313.16666666666663</ele><time>2026-04-23T11:03:29.539Z</time></trkpt><trkpt lat="46.0330286" lon="11.888167"><ele>313.3333333333333</ele><time>2026-04-23T11:03:31.537Z</time></trkpt><trkpt lat="46.0330583" lon="11.8880513"><ele>313.5</ele><time>2026-04-23T11:03:33.539Z</time></trkpt><trkpt lat="46.0330905" lon="11.8879339"><ele>313.6666666666667</ele><time>2026-04-23T11:03:35.536Z</time></trkpt><trkpt lat="46.0331275" lon="11.8878198"><ele>313.83333333333337</ele><time>2026-04-23T11:03:37.537Z</time></trkpt><trkpt lat="46.0331709" lon="11.8877056"><ele>314.0</ele><time>2026-04-23T11:03:39.539Z</time></trkpt><trkpt lat="46.0332083" lon="11.8875929"><ele>314.6666666666667</ele><time>2026-04-23T11:03:41.539Z</time></trkpt><trkpt lat="46.0332446" lon="11.8874911"><ele>315.33333333333337</ele><time>2026-04-23T11:03:43.538Z</time></trkpt><trkpt lat="46.0332796" lon="11.8873902"><ele>316.0</ele><time>2026-04-23T11:03:45.539Z</time></trkpt><trkpt lat="46.0333155" lon="11.8872889"><ele>316.6666666666667</ele><time>2026-04-23T11:03:47.538Z</time></trkpt><trkpt lat="46.0333527" lon="11.8871873"><ele>317.3333333333333</ele><time>2026-04-23T11:03:49.539Z</time></trkpt><trkpt lat="46.0333907" lon="11.8870857"><ele>318.0</ele><time>2026-04-23T11:03:51.537Z</time></trkpt><trkpt lat="46.0334273" lon="11.886984"><ele>318.0</ele><time>2026-04-23T11:03:53.537Z</time></trkpt><trkpt lat="46.0334678" lon="11.8868845"><ele>318.0</ele><time>2026-04-23T11:03:55.538Z</time></trkpt><trkpt lat="46.0335129" lon="11.8867848"><ele>318.0</ele><time>2026-04-23T11:03:57.538Z</time></trkpt><trkpt lat="46.0335537" lon="11.8866824"><ele>318.0</ele><time>2026-04-23T11:03:59.539Z</time></trkpt><trkpt lat="46.033593" lon="11.8865802"><ele>318.0</ele><time>2026-04-23T11:04:01.538Z</time></trkpt><trkpt lat="46.033627" lon="11.8864761"><ele>318.0</ele><time>2026-04-23T11:04:03.538Z</time></trkpt><trkpt lat="46.0336669" lon="11.8863755"><ele>318.6666666666667</ele><time>2026-04-23T11:04:05.54Z</time></trkpt><trkpt lat="46.0337223" lon="11.8862908"><ele>319.3333333333333</ele><time>2026-04-23T11:04:07.541Z</time></trkpt><trkpt lat="46.0337782" lon="11.8862062"><ele>320.0</ele><time>2026-04-23T11:04:09.54Z</time></trkpt><trkpt lat="46.0338346" lon="11.8861247"><ele>320.66666666666663</ele><time>2026-04-23T11:04:11.539Z</time></trkpt><trkpt lat="46.0338905" lon="11.8860418"><ele>321.3333333333333</ele><time>2026-04-23T11:04:13.542Z</time></trkpt><trkpt lat="46.0339473" lon="11.8859601"><ele>322.0</ele><time>2026-04-23T11:04:15.539Z</time></trkpt><trkpt lat="46.0340002" lon="11.8858855"><ele>322.14285714285717</ele><time>2026-04-23T11:04:17.536Z</time></trkpt><trkpt lat="46.0340531" lon="11.8858081"><ele>322.2857142857143</ele><time>2026-04-23T11:04:19.539Z</time></trkpt><trkpt lat="46.0341021" lon="11.8857336"><ele>322.42857142857144</ele><time>2026-04-23T11:04:21.539Z</time></trkpt><trkpt lat="46.0341572" lon="11.8856741"><ele>322.57142857142856</ele><time>2026-04-23T11:04:23.538Z</time></trkpt><trkpt lat="46.0342171" lon="11.8856059"><ele>322.7142857142857</ele><time>2026-04-23T11:04:25.539Z</time></trkpt><trkpt lat="46.0342721" lon="11.8855341"><ele>322.8571428571429</ele><time>2026-04-23T11:04:27.537Z</time></trkpt><trkpt lat="46.0343297" lon="11.8854603"><ele>323.0</ele><time>2026-04-23T11:04:29.538Z</time></trkpt><trkpt lat="46.0343876" lon="11.8853829"><ele>323.0</ele><time>2026-04-23T11:04:31.539Z</time></trkpt><trkpt lat="46.0344438" lon="11.8853054"><ele>323.0</ele><time>2026-04-23T11:04:33.539Z</time></trkpt><trkpt lat="46.0345016" lon="11.8852282"><ele>323.0</ele><time>2026-04-23T11:04:35.538Z</time></trkpt><trkpt lat="46.0345614" lon="11.8851497"><ele>323.0</ele><time>2026-04-23T11:04:37.539Z</time></trkpt><trkpt lat="46.03462" lon="11.8850708"><ele>323.0</ele><time>2026-04-23T11:04:39.539Z</time></trkpt><trkpt lat="46.0346786" lon="11.8849964"><ele>323.0</ele><time>2026-04-23T11:04:41.536Z</time></trkpt><trkpt lat="46.0347323" lon="11.8849223"><ele>323.28571428571433</ele><time>2026-04-23T11:04:43.539Z</time></trkpt><trkpt lat="46.0347814" lon="11.8848518"><ele>323.57142857142856</ele><time>2026-04-23T11:04:45.538Z</time></trkpt><trkpt lat="46.0348446" lon="11.8847752"><ele>323.8571428571429</ele><time>2026-04-23T11:04:48.539Z</time></trkpt><trkpt lat="46.0348616" lon="11.884675"><ele>324.14285714285717</ele><time>2026-04-23T11:04:51.538Z</time></trkpt><trkpt lat="46.0348318" lon="11.8845902"><ele>324.42857142857144</ele><time>2026-04-23T11:04:53.539Z</time></trkpt><trkpt lat="46.0347833" lon="11.8845145"><ele>324.7142857142857</ele><time>2026-04-23T11:04:55.537Z</time></trkpt><trkpt lat="46.0347467" lon="11.8844351"><ele>325.0</ele><time>2026-04-23T11:04:57.536Z</time></trkpt><trkpt lat="46.0347574" lon="11.884309"><ele>325.3333333333333</ele><time>2026-04-23T11:05:00.537Z</time></trkpt><trkpt lat="46.0348179" lon="11.8842136"><ele>325.66666666666663</ele><time>2026-04-23T11:05:03.537Z</time></trkpt><trkpt lat="46.0348646" lon="11.8841479"><ele>326.0</ele><time>2026-04-23T11:05:05.539Z</time></trkpt><trkpt lat="46.03491" lon="11.8840784"><ele>326.3333333333333</ele><time>2026-04-23T11:05:07.538Z</time></trkpt><trkpt lat="46.034971" lon="11.8839695"><ele>326.6666666666667</ele><time>2026-04-23T11:05:10.538Z</time></trkpt><trkpt lat="46.0350257" lon="11.8838994"><ele>327.0</ele><time>2026-04-23T11:05:12.54Z</time></trkpt><trkpt lat="46.0350801" lon="11.8838249"><ele>327.0</ele><time>2026-04-23T11:05:14.541Z</time></trkpt><trkpt lat="46.0351378" lon="11.883753"><ele>327.0</ele><time>2026-04-23T11:05:16.538Z</time></trkpt><trkpt lat="46.035193" lon="11.8836816"><ele>327.0</ele><time>2026-04-23T11:05:18.537Z</time></trkpt><trkpt lat="46.0352475" lon="11.8836193"><ele>327.0</ele><time>2026-04-23T11:05:20.539Z</time></trkpt><trkpt lat="46.0353076" lon="11.8835567"><ele>327.0</ele><time>2026-04-23T11:05:22.536Z</time></trkpt><trkpt lat="46.0353609" lon="11.8835003"><ele>327.0</ele><time>2026-04-23T11:05:24.539Z</time></trkpt><trkpt lat="46.0354152" lon="11.8834521"><ele>327.0</ele><time>2026-04-23T11:05:26.539Z</time></trkpt><trkpt lat="46.0354841" lon="11.8834262"><ele>327.0</ele><time>2026-04-23T11:05:28.538Z</time></trkpt><trkpt lat="46.0355739" lon="11.8834226"><ele>327.0</ele><time>2026-04-23T11:05:31.539Z</time></trkpt><trkpt lat="46.0356289" lon="11.8833783"><ele>327.0</ele><time>2026-04-23T11:05:33.539Z</time></trkpt><trkpt lat="46.0356869" lon="11.8833127"><ele>327.0</ele><time>2026-04-23T11:05:35.539Z</time></trkpt><trkpt lat="46.0357536" lon="11.8832447"><ele>327.0</ele><time>2026-04-23T11:05:37.539Z</time></trkpt><trkpt lat="46.0358157" lon="11.8831767"><ele>327.0</ele><time>2026-04-23T11:05:39.535Z</time></trkpt><trkpt lat="46.0358807" lon="11.883123"><ele>327.0</ele><time>2026-04-23T11:05:41.537Z</time></trkpt><trkpt lat="46.0359474" lon="11.8830761"><ele>327.0</ele><time>2026-04-23T11:05:43.54Z</time></trkpt><trkpt lat="46.036006" lon="11.8830339"><ele>327.0</ele><time>2026-04-23T11:05:45.539Z</time></trkpt><trkpt lat="46.0360748" lon="11.8829741"><ele>327.0</ele><time>2026-04-23T11:05:48.539Z</time></trkpt><trkpt lat="46.0360646" lon="11.8828514"><ele>327.0</ele><time>2026-04-23T11:05:52.538Z</time></trkpt><trkpt lat="46.0360353" lon="11.8827687"><ele>327.0</ele><time>2026-04-23T11:05:54.539Z</time></trkpt><trkpt lat="46.0360105" lon="11.8826726"><ele>327.0</ele><time>2026-04-23T11:05:56.537Z</time></trkpt><trkpt lat="46.0359856" lon="11.8825739"><ele>327.57142857142856</ele><time>2026-04-23T11:05:58.539Z</time></trkpt><trkpt lat="46.0359589" lon="11.882474"><ele>328.14285714285717</ele><time>2026-04-23T11:06:00.538Z</time></trkpt><trkpt lat="46.03593" lon="11.8823776"><ele>328.7142857142857</ele><time>2026-04-23T11:06:02.538Z</time></trkpt><trkpt lat="46.0359016" lon="11.8822863"><ele>329.2857142857143</ele><time>2026-04-23T11:06:04.539Z</time></trkpt><trkpt lat="46.0358768" lon="11.8822008"><ele>329.85714285714283</ele><time>2026-04-23T11:06:06.537Z</time></trkpt><trkpt lat="46.0358418" lon="11.8820804"><ele>330.42857142857144</ele><time>2026-04-23T11:06:09.535Z</time></trkpt><trkpt lat="46.0358162" lon="11.8819769"><ele>331.0</ele><time>2026-04-23T11:06:12.537Z</time></trkpt><trkpt lat="46.0358225" lon="11.8818508"><ele>331.3333333333333</ele><time>2026-04-23T11:06:15.537Z</time></trkpt><trkpt lat="46.0358307" lon="11.881758"><ele>331.66666666666663</ele><time>2026-04-23T11:06:17.539Z</time></trkpt><trkpt lat="46.0358275" lon="11.8816348"><ele>332.0</ele><time>2026-04-23T11:06:20.538Z</time></trkpt><trkpt lat="46.0357972" lon="11.8815293"><ele>332.3333333333333</ele><time>2026-04-23T11:06:23.538Z</time></trkpt><trkpt lat="46.0357623" lon="11.8814459"><ele>332.6666666666667</ele><time>2026-04-23T11:06:25.535Z</time></trkpt><trkpt lat="46.0357094" lon="11.8813617"><ele>333.0</ele><time>2026-04-23T11:06:28.534Z</time></trkpt><trkpt lat="46.0356245" lon="11.8813688"><ele>333.8571428571429</ele><time>2026-04-23T11:06:31.534Z</time></trkpt><trkpt lat="46.0355695" lon="11.881419"><ele>334.71428571428567</ele><time>2026-04-23T11:06:33.539Z</time></trkpt><trkpt lat="46.0355101" lon="11.8814673"><ele>335.57142857142856</ele><time>2026-04-23T11:06:35.534Z</time></trkpt><trkpt lat="46.0354493" lon="11.8815146"><ele>336.42857142857144</ele><time>2026-04-23T11:06:37.534Z</time></trkpt><trkpt lat="46.0353868" lon="11.8815541"><ele>337.28571428571433</ele><time>2026-04-23T11:06:39.535Z</time></trkpt><trkpt lat="46.0353048" lon="11.8815896"><ele>338.1428571428571</ele><time>2026-04-23T11:06:42.534Z</time></trkpt><trkpt lat="46.035231" lon="11.8816153"><ele>339.0</ele><time>2026-04-23T11:06:45.534Z</time></trkpt><trkpt lat="46.0351631" lon="11.8816186"><ele>339.0</ele><time>2026-04-23T11:06:48.536Z</time></trkpt><trkpt lat="46.0350995" lon="11.8816157"><ele>339.0</ele><time>2026-04-23T11:06:51.533Z</time></trkpt><trkpt lat="46.0350361" lon="11.8816508"><ele>339.0</ele><time>2026-04-23T11:06:54.534Z</time></trkpt><trkpt lat="46.0349848" lon="11.8817397"><ele>339.0</ele><time>2026-04-23T11:06:57.534Z</time></trkpt><trkpt lat="46.0349672" lon="11.8818779"><ele>339.0</ele><time>2026-04-23T11:07:00.535Z</time></trkpt><trkpt lat="46.0349572" lon="11.8819857"><ele>339.0</ele><time>2026-04-23T11:07:02.535Z</time></trkpt><trkpt lat="46.0349457" lon="11.8820928"><ele>339.0</ele><time>2026-04-23T11:07:04.535Z</time></trkpt><trkpt lat="46.0349377" lon="11.8821926"><ele>339.0</ele><time>2026-04-23T11:07:06.534Z</time></trkpt><trkpt lat="46.0349177" lon="11.8822948"><ele>339.0</ele><time>2026-04-23T11:07:08.536Z</time></trkpt><trkpt lat="46.0348947" lon="11.8824047"><ele>339.0</ele><time>2026-04-23T11:07:10.534Z</time></trkpt><trkpt lat="46.0348702" lon="11.8825092"><ele>339.0</ele><time>2026-04-23T11:07:12.536Z</time></trkpt><trkpt lat="46.0348384" lon="11.8826155"><ele>339.0</ele><time>2026-04-23T11:07:14.537Z</time></trkpt><trkpt lat="46.0347988" lon="11.8827128"><ele>339.0</ele><time>2026-04-23T11:07:16.533Z</time></trkpt><trkpt lat="46.0347598" lon="11.8827961"><ele>339.0</ele><time>2026-04-23T11:07:18.534Z</time></trkpt><trkpt lat="46.0347046" lon="11.882885"><ele>339.0</ele><time>2026-04-23T11:07:20.535Z</time></trkpt><trkpt lat="46.0346441" lon="11.8829744"><ele>339.0</ele><time>2026-04-23T11:07:22.535Z</time></trkpt><trkpt lat="46.0345767" lon="11.8830706"><ele>339.0</ele><time>2026-04-23T11:07:24.535Z</time></trkpt><trkpt lat="46.0345094" lon="11.8831722"><ele>339.0</ele><time>2026-04-23T11:07:26.535Z</time></trkpt><trkpt lat="46.0344347" lon="11.8832767"><ele>339.0</ele><time>2026-04-23T11:07:28.538Z</time></trkpt><trkpt lat="46.0343527" lon="11.8833779"><ele>339.0</ele><time>2026-04-23T11:07:30.537Z</time></trkpt><trkpt lat="46.034265" lon="11.8834672"><ele>339.0</ele><time>2026-04-23T11:07:32.538Z</time></trkpt><trkpt lat="46.0341978" lon="11.8835444"><ele>339.0</ele><time>2026-04-23T11:07:34.535Z</time></trkpt><trkpt lat="46.034141" lon="11.8836083"><ele>339.0</ele><time>2026-04-23T11:07:36.535Z</time></trkpt><trkpt lat="46.0340823" lon="11.883654"><ele>339.0</ele><time>2026-04-23T11:07:38.537Z</time></trkpt><trkpt lat="46.0340237" lon="11.8837026"><ele>338.57142857142856</ele><time>2026-04-23T11:07:40.537Z</time></trkpt><trkpt lat="46.033962" lon="11.8837355"><ele>338.14285714285717</ele><time>2026-04-23T11:07:42.536Z</time></trkpt><trkpt lat="46.0338934" lon="11.8837638"><ele>337.7142857142857</ele><time>2026-04-23T11:07:44.537Z</time></trkpt><trkpt lat="46.0338223" lon="11.8837989"><ele>337.2857142857143</ele><time>2026-04-23T11:07:46.533Z</time></trkpt><trkpt lat="46.0337525" lon="11.8838336"><ele>336.8571428571429</ele><time>2026-04-23T11:07:48.536Z</time></trkpt><trkpt lat="46.0336837" lon="11.883866"><ele>336.42857142857144</ele><time>2026-04-23T11:07:50.537Z</time></trkpt><trkpt lat="46.0336134" lon="11.8838971"><ele>336.0</ele><time>2026-04-23T11:07:52.536Z</time></trkpt><trkpt lat="46.0335481" lon="11.8839353"><ele>336.0</ele><time>2026-04-23T11:07:54.538Z</time></trkpt><trkpt lat="46.0334812" lon="11.8839671"><ele>336.0</ele><time>2026-04-23T11:07:56.538Z</time></trkpt><trkpt lat="46.0334148" lon="11.8839963"><ele>336.0</ele><time>2026-04-23T11:07:58.538Z</time></trkpt><trkpt lat="46.0333513" lon="11.8840135"><ele>336.0</ele><time>2026-04-23T11:08:00.538Z</time></trkpt><trkpt lat="46.03328" lon="11.8840246"><ele>336.0</ele><time>2026-04-23T11:08:02.539Z</time></trkpt><trkpt lat="46.0332067" lon="11.8840442"><ele>336.0</ele><time>2026-04-23T11:08:04.54Z</time></trkpt><trkpt lat="46.0331361" lon="11.884062"><ele>336.0</ele><time>2026-04-23T11:08:06.537Z</time></trkpt><trkpt lat="46.0330652" lon="11.8840856"><ele>336.1666666666667</ele><time>2026-04-23T11:08:08.538Z</time></trkpt><trkpt lat="46.0329999" lon="11.8840991"><ele>336.3333333333333</ele><time>2026-04-23T11:08:10.54Z</time></trkpt><trkpt lat="46.032912" lon="11.884079"><ele>336.5</ele><time>2026-04-23T11:08:13.541Z</time></trkpt><trkpt lat="46.0328371" lon="11.8840136"><ele>336.66666666666663</ele><time>2026-04-23T11:08:16.536Z</time></trkpt><trkpt lat="46.0327856" lon="11.8839485"><ele>336.8333333333333</ele><time>2026-04-23T11:08:19.538Z</time></trkpt><trkpt lat="46.0327626" lon="11.8838454"><ele>337.0</ele><time>2026-04-23T11:08:53.535Z</time></trkpt><trkpt lat="46.0327724" lon="11.8837212"><ele>337.0</ele><time>2026-04-23T11:08:56.536Z</time></trkpt><trkpt lat="46.0327863" lon="11.8836017"><ele>337.0</ele><time>2026-04-23T11:08:59.535Z</time></trkpt><trkpt lat="46.0327925" lon="11.8835076"><ele>337.0</ele><time>2026-04-23T11:09:01.535Z</time></trkpt><trkpt lat="46.0327939" lon="11.8833866"><ele>337.0</ele><time>2026-04-23T11:09:04.535Z</time></trkpt><trkpt lat="46.0327772" lon="11.8832937"><ele>337.0</ele><time>2026-04-23T11:09:06.536Z</time></trkpt><trkpt lat="46.0327489" lon="11.8831781"><ele>337.0</ele><time>2026-04-23T11:09:09.535Z</time></trkpt><trkpt lat="46.0327207" lon="11.8830559"><ele>337.5</ele><time>2026-04-23T11:09:12.535Z</time></trkpt><trkpt lat="46.0326918" lon="11.8829303"><ele>338.0</ele><time>2026-04-23T11:09:15.534Z</time></trkpt><trkpt lat="46.0326786" lon="11.8828009"><ele>338.5</ele><time>2026-04-23T11:09:18.538Z</time></trkpt><trkpt lat="46.0326707" lon="11.8827099"><ele>339.0</ele><time>2026-04-23T11:09:20.537Z</time></trkpt><trkpt lat="46.032661" lon="11.8826076"><ele>339.5</ele><time>2026-04-23T11:09:22.539Z</time></trkpt><trkpt lat="46.0326585" lon="11.8825099"><ele>340.0</ele><time>2026-04-23T11:09:24.539Z</time></trkpt><trkpt lat="46.0326588" lon="11.8824095"><ele>340.5714285714286</ele><time>2026-04-23T11:09:26.537Z</time></trkpt><trkpt lat="46.032658" lon="11.8823092"><ele>341.1428571428571</ele><time>2026-04-23T11:09:28.539Z</time></trkpt><trkpt lat="46.0326543" lon="11.8822105"><ele>341.7142857142857</ele><time>2026-04-23T11:09:30.536Z</time></trkpt><trkpt lat="46.0326533" lon="11.882109"><ele>342.28571428571433</ele><time>2026-04-23T11:09:32.538Z</time></trkpt><trkpt lat="46.0326494" lon="11.8820093"><ele>342.8571428571429</ele><time>2026-04-23T11:09:34.538Z</time></trkpt><trkpt lat="46.0326474" lon="11.8819125"><ele>343.42857142857144</ele><time>2026-04-23T11:09:36.539Z</time></trkpt><trkpt lat="46.0326521" lon="11.8818212"><ele>344.0</ele><time>2026-04-23T11:09:38.539Z</time></trkpt><trkpt lat="46.0326511" lon="11.8817304"><ele>344.00000000000006</ele><time>2026-04-23T11:09:40.539Z</time></trkpt><trkpt lat="46.0326448" lon="11.8816391"><ele>344.0</ele><time>2026-04-23T11:09:42.536Z</time></trkpt><trkpt lat="46.0326373" lon="11.8815424"><ele>344.0</ele><time>2026-04-23T11:09:44.538Z</time></trkpt><trkpt lat="46.0326272" lon="11.8814474"><ele>344.0</ele><time>2026-04-23T11:09:46.536Z</time></trkpt><trkpt lat="46.03261" lon="11.8813584"><ele>344.0</ele><time>2026-04-23T11:09:48.539Z</time></trkpt><trkpt lat="46.0325882" lon="11.8812657"><ele>344.00000000000006</ele><time>2026-04-23T11:09:50.539Z</time></trkpt><trkpt lat="46.03256" lon="11.8811714"><ele>344.0</ele><time>2026-04-23T11:09:52.539Z</time></trkpt><trkpt lat="46.0325278" lon="11.8810749"><ele>344.00000000000006</ele><time>2026-04-23T11:09:54.538Z</time></trkpt><trkpt lat="46.0324937" lon="11.8809795"><ele>344.0</ele><time>2026-04-23T11:09:56.537Z</time></trkpt><trkpt lat="46.0324544" lon="11.8808877"><ele>344.0</ele><time>2026-04-23T11:09:58.539Z</time></trkpt><trkpt lat="46.0324127" lon="11.8808024"><ele>344.0</ele><time>2026-04-23T11:10:00.539Z</time></trkpt><trkpt lat="46.0323674" lon="11.8807249"><ele>344.0</ele><time>2026-04-23T11:10:02.539Z</time></trkpt><trkpt lat="46.0323428" lon="11.8806357"><ele>344.00000000000006</ele><time>2026-04-23T11:10:04.537Z</time></trkpt><trkpt lat="46.0323543" lon="11.8805391"><ele>344.0</ele><time>2026-04-23T11:10:06.538Z</time></trkpt><trkpt lat="46.032331" lon="11.8804205"><ele>344.5</ele><time>2026-04-23T11:10:09.537Z</time></trkpt><trkpt lat="46.0322727" lon="11.8803854"><ele>345.0</ele><time>2026-04-23T11:10:11.538Z</time></trkpt><trkpt lat="46.0322102" lon="11.8803652"><ele>345.5</ele><time>2026-04-23T11:10:13.54Z</time></trkpt><trkpt lat="46.032127" lon="11.8803095"><ele>346.0</ele><time>2026-04-23T11:10:16.539Z</time></trkpt><trkpt lat="46.0320438" lon="11.8802516"><ele>346.5</ele><time>2026-04-23T11:10:19.539Z</time></trkpt><trkpt lat="46.0319687" lon="11.8801912"><ele>347.0</ele><time>2026-04-23T11:10:22.537Z</time></trkpt><trkpt lat="46.031896" lon="11.8801377"><ele>348.1666666666667</ele><time>2026-04-23T11:10:25.541Z</time></trkpt><trkpt lat="46.0318167" lon="11.8800701"><ele>349.33333333333337</ele><time>2026-04-23T11:10:28.539Z</time></trkpt><trkpt lat="46.0317503" lon="11.8799886"><ele>350.5</ele><time>2026-04-23T11:10:31.538Z</time></trkpt><trkpt lat="46.0316861" lon="11.8799098"><ele>351.6666666666667</ele><time>2026-04-23T11:10:34.539Z</time></trkpt><trkpt lat="46.0316138" lon="11.8798337"><ele>352.8333333333333</ele><time>2026-04-23T11:10:37.539Z</time></trkpt><trkpt lat="46.0315423" lon="11.879759"><ele>354.0</ele><time>2026-04-23T11:10:40.539Z</time></trkpt><trkpt lat="46.0314638" lon="11.8796933"><ele>354.1666666666667</ele><time>2026-04-23T11:10:43.538Z</time></trkpt><trkpt lat="46.0313922" lon="11.8796245"><ele>354.3333333333333</ele><time>2026-04-23T11:10:46.536Z</time></trkpt><trkpt lat="46.0313164" lon="11.8795465"><ele>354.5</ele><time>2026-04-23T11:10:49.538Z</time></trkpt><trkpt lat="46.0312448" lon="11.8794693"><ele>354.66666666666663</ele><time>2026-04-23T11:10:52.535Z</time></trkpt><trkpt lat="46.031191" lon="11.8793911"><ele>354.8333333333333</ele><time>2026-04-23T11:10:55.536Z</time></trkpt><trkpt lat="46.031136" lon="11.8793009"><ele>355.0</ele><time>2026-04-23T11:10:59.538Z</time></trkpt><trkpt lat="46.0310985" lon="11.8792136"><ele>354.66666666666663</ele><time>2026-04-23T11:11:04.538Z</time></trkpt><trkpt lat="46.0310255" lon="11.8791541"><ele>354.3333333333333</ele><time>2026-04-23T11:11:08.539Z</time></trkpt><trkpt lat="46.0309441" lon="11.8791087"><ele>354.0</ele><time>2026-04-23T11:11:11.541Z</time></trkpt><trkpt lat="46.0308529" lon="11.8790752"><ele>353.6666666666667</ele><time>2026-04-23T11:11:14.537Z</time></trkpt><trkpt lat="46.0307849" lon="11.8790683"><ele>353.33333333333337</ele><time>2026-04-23T11:11:16.539Z</time></trkpt><trkpt lat="46.0307181" lon="11.8790623"><ele>353.0</ele><time>2026-04-23T11:11:18.537Z</time></trkpt><trkpt lat="46.0306485" lon="11.8790627"><ele>353.0</ele><time>2026-04-23T11:11:20.537Z</time></trkpt><trkpt lat="46.0305817" lon="11.8790649"><ele>353.0</ele><time>2026-04-23T11:11:22.537Z</time></trkpt><trkpt lat="46.0305132" lon="11.8790638"><ele>353.0</ele><time>2026-04-23T11:11:24.537Z</time></trkpt><trkpt lat="46.0304429" lon="11.8790633"><ele>353.0</ele><time>2026-04-23T11:11:26.538Z</time></trkpt><trkpt lat="46.0303714" lon="11.8790636"><ele>353.0</ele><time>2026-04-23T11:11:28.537Z</time></trkpt><trkpt lat="46.0302942" lon="11.879057"><ele>353.0</ele><time>2026-04-23T11:11:30.536Z</time></trkpt><trkpt lat="46.0302106" lon="11.8790526"><ele>353.0</ele><time>2026-04-23T11:11:32.54Z</time></trkpt><trkpt lat="46.0301317" lon="11.8790355"><ele>353.0</ele><time>2026-04-23T11:11:34.539Z</time></trkpt><trkpt lat="46.0300582" lon="11.879027"><ele>353.0</ele><time>2026-04-23T11:11:36.538Z</time></trkpt><trkpt lat="46.0299891" lon="11.8790244"><ele>353.0</ele><time>2026-04-23T11:11:38.534Z</time></trkpt><trkpt lat="46.0299137" lon="11.8790235"><ele>353.0</ele><time>2026-04-23T11:11:40.539Z</time></trkpt><trkpt lat="46.0298326" lon="11.8790222"><ele>353.0</ele><time>2026-04-23T11:11:42.539Z</time></trkpt><trkpt lat="46.0297547" lon="11.879034"><ele>353.0</ele><time>2026-04-23T11:11:44.54Z</time></trkpt><trkpt lat="46.029677" lon="11.8790561"><ele>352.1666666666667</ele><time>2026-04-23T11:11:46.538Z</time></trkpt><trkpt lat="46.0296008" lon="11.8790782"><ele>351.33333333333337</ele><time>2026-04-23T11:11:48.539Z</time></trkpt><trkpt lat="46.0295217" lon="11.8790842"><ele>350.5</ele><time>2026-04-23T11:11:50.537Z</time></trkpt><trkpt lat="46.0294378" lon="11.8790754"><ele>349.6666666666667</ele><time>2026-04-23T11:11:52.538Z</time></trkpt><trkpt lat="46.029354" lon="11.8790588"><ele>348.8333333333333</ele><time>2026-04-23T11:11:54.539Z</time></trkpt><trkpt lat="46.0292701" lon="11.8790399"><ele>348.0</ele><time>2026-04-23T11:11:56.539Z</time></trkpt><trkpt lat="46.0291923" lon="11.879005"><ele>347.7142857142857</ele><time>2026-04-23T11:11:58.539Z</time></trkpt><trkpt lat="46.0291149" lon="11.8789661"><ele>347.42857142857144</ele><time>2026-04-23T11:12:00.539Z</time></trkpt><trkpt lat="46.0290378" lon="11.8789306"><ele>347.1428571428571</ele><time>2026-04-23T11:12:02.539Z</time></trkpt><trkpt lat="46.02896" lon="11.8789216"><ele>346.8571428571429</ele><time>2026-04-23T11:12:04.539Z</time></trkpt><trkpt lat="46.0288933" lon="11.8789553"><ele>346.5714285714286</ele><time>2026-04-23T11:12:06.537Z</time></trkpt><trkpt lat="46.0288341" lon="11.878993"><ele>346.2857142857143</ele><time>2026-04-23T11:12:08.538Z</time></trkpt><trkpt lat="46.0287681" lon="11.8790243"><ele>346.0</ele><time>2026-04-23T11:12:10.539Z</time></trkpt><trkpt lat="46.028684" lon="11.8790526"><ele>346.0</ele><time>2026-04-23T11:12:12.536Z</time></trkpt><trkpt lat="46.0286031" lon="11.8790865"><ele>346.0</ele><time>2026-04-23T11:12:14.537Z</time></trkpt><trkpt lat="46.0285285" lon="11.8791341"><ele>346.0</ele><time>2026-04-23T11:12:16.538Z</time></trkpt><trkpt lat="46.0284503" lon="11.879177"><ele>346.0</ele><time>2026-04-23T11:12:18.537Z</time></trkpt><trkpt lat="46.0283745" lon="11.8791943"><ele>346.0</ele><time>2026-04-23T11:12:20.535Z</time></trkpt><trkpt lat="46.0283082" lon="11.8792007"><ele>346.0</ele><time>2026-04-23T11:12:22.539Z</time></trkpt><trkpt lat="46.0282357" lon="11.8792045"><ele>345.0</ele><time>2026-04-23T11:12:24.54Z</time></trkpt><trkpt lat="46.0281604" lon="11.8792025"><ele>344.0</ele><time>2026-04-23T11:12:26.537Z</time></trkpt><trkpt lat="46.0280816" lon="11.8791972"><ele>343.0</ele><time>2026-04-23T11:12:28.539Z</time></trkpt><trkpt lat="46.027996" lon="11.87918"><ele>342.0</ele><time>2026-04-23T11:12:30.537Z</time></trkpt><trkpt lat="46.0279103" lon="11.8791587"><ele>341.0</ele><time>2026-04-23T11:12:32.539Z</time></trkpt><trkpt lat="46.0278205" lon="11.8791329"><ele>340.0</ele><time>2026-04-23T11:12:34.537Z</time></trkpt><trkpt lat="46.027726" lon="11.8790953"><ele>340.0</ele><time>2026-04-23T11:12:36.536Z</time></trkpt><trkpt lat="46.0276312" lon="11.8790582"><ele>340.0</ele><time>2026-04-23T11:12:38.537Z</time></trkpt><trkpt lat="46.0275402" lon="11.8790382"><ele>340.0</ele><time>2026-04-23T11:12:40.536Z</time></trkpt><trkpt lat="46.0274531" lon="11.8790326"><ele>340.0</ele><time>2026-04-23T11:12:42.539Z</time></trkpt><trkpt lat="46.0273729" lon="11.8790619"><ele>340.0</ele><time>2026-04-23T11:12:44.537Z</time></trkpt><trkpt lat="46.0273151" lon="11.87914"><ele>340.0</ele><time>2026-04-23T11:12:46.536Z</time></trkpt><trkpt lat="46.0272784" lon="11.8792568"><ele>338.5</ele><time>2026-04-23T11:12:48.537Z</time></trkpt><trkpt lat="46.0272545" lon="11.8793893"><ele>337.0</ele><time>2026-04-23T11:12:50.539Z</time></trkpt><trkpt lat="46.027239" lon="11.8795138"><ele>335.5</ele><time>2026-04-23T11:12:52.538Z</time></trkpt><trkpt lat="46.0272336" lon="11.8796207"><ele>334.0</ele><time>2026-04-23T11:12:54.535Z</time></trkpt><trkpt lat="46.0271893" lon="11.8797177"><ele>332.5</ele><time>2026-04-23T11:12:57.539Z</time></trkpt><trkpt lat="46.027131" lon="11.8796744"><ele>331.0</ele><time>2026-04-23T11:12:59.536Z</time></trkpt><trkpt lat="46.027076" lon="11.8796248"><ele>331.0</ele><time>2026-04-23T11:13:40.535Z</time></trkpt><trkpt lat="46.0270313" lon="11.8795162"><ele>331.0</ele><time>2026-04-23T11:13:44.539Z</time></trkpt><trkpt lat="46.0270015" lon="11.8794188"><ele>331.0</ele><time>2026-04-23T11:13:46.538Z</time></trkpt><trkpt lat="46.0269796" lon="11.8793175"><ele>331.0</ele><time>2026-04-23T11:13:48.537Z</time></trkpt><trkpt lat="46.0269523" lon="11.8792179"><ele>331.0</ele><time>2026-04-23T11:13:50.539Z</time></trkpt><trkpt lat="46.0269259" lon="11.8791189"><ele>331.0</ele><time>2026-04-23T11:13:52.535Z</time></trkpt><trkpt lat="46.0269004" lon="11.8790191"><ele>331.66666666666663</ele><time>2026-04-23T11:13:54.538Z</time></trkpt><trkpt lat="46.0268806" lon="11.8789169"><ele>332.3333333333333</ele><time>2026-04-23T11:13:56.54Z</time></trkpt><trkpt lat="46.0268687" lon="11.8788171"><ele>333.0</ele><time>2026-04-23T11:13:58.54Z</time></trkpt><trkpt lat="46.0268637" lon="11.8787165"><ele>333.6666666666667</ele><time>2026-04-23T11:14:00.537Z</time></trkpt><trkpt lat="46.0268724" lon="11.8786135"><ele>334.33333333333337</ele><time>2026-04-23T11:14:02.539Z</time></trkpt><trkpt lat="46.0269062" lon="11.8785101"><ele>335.0</ele><time>2026-04-23T11:14:04.538Z</time></trkpt><trkpt lat="46.026949" lon="11.878398"><ele>335.6</ele><time>2026-04-23T11:14:06.539Z</time></trkpt><trkpt lat="46.0269971" lon="11.8782867"><ele>336.2</ele><time>2026-04-23T11:14:08.54Z</time></trkpt><trkpt lat="46.0270515" lon="11.878184"><ele>336.79999999999995</ele><time>2026-04-23T11:14:10.537Z</time></trkpt><trkpt lat="46.0271145" lon="11.8780843"><ele>337.4</ele><time>2026-04-23T11:14:12.539Z</time></trkpt><trkpt lat="46.0271937" lon="11.8779956"><ele>338.0</ele><time>2026-04-23T11:14:14.539Z</time></trkpt><trkpt lat="46.0272841" lon="11.8779182"><ele>338.0</ele><time>2026-04-23T11:14:16.537Z</time></trkpt><trkpt lat="46.0273746" lon="11.8778472"><ele>338.0</ele><time>2026-04-23T11:14:18.54Z</time></trkpt><trkpt lat="46.0274626" lon="11.8777794"><ele>338.0</ele><time>2026-04-23T11:14:20.537Z</time></trkpt><trkpt lat="46.0275393" lon="11.8777073"><ele>338.0</ele><time>2026-04-23T11:14:22.536Z</time></trkpt><trkpt lat="46.0276017" lon="11.877631"><ele>338.0</ele><time>2026-04-23T11:14:24.54Z</time></trkpt><trkpt lat="46.027655" lon="11.8775385"><ele>336.59999999999997</ele><time>2026-04-23T11:14:26.539Z</time></trkpt><trkpt lat="46.0277104" lon="11.8774145"><ele>335.2</ele><time>2026-04-23T11:14:28.538Z</time></trkpt><trkpt lat="46.0277393" lon="11.8772696"><ele>333.8</ele><time>2026-04-23T11:14:30.538Z</time></trkpt><trkpt lat="46.0277625" lon="11.8771123"><ele>332.4</ele><time>2026-04-23T11:14:32.538Z</time></trkpt><trkpt lat="46.0277864" lon="11.8769701"><ele>331.0</ele><time>2026-04-23T11:14:34.539Z</time></trkpt><trkpt lat="46.0278118" lon="11.876834"><ele>329.20000000000005</ele><time>2026-04-23T11:14:36.538Z</time></trkpt><trkpt lat="46.027849" lon="11.8767054"><ele>327.40000000000003</ele><time>2026-04-23T11:14:38.539Z</time></trkpt><trkpt lat="46.0279039" lon="11.8765865"><ele>325.6</ele><time>2026-04-23T11:14:40.538Z</time></trkpt><trkpt lat="46.0279695" lon="11.8764798"><ele>323.8</ele><time>2026-04-23T11:14:42.537Z</time></trkpt><trkpt lat="46.0280493" lon="11.8763948"><ele>322.0</ele><time>2026-04-23T11:14:44.539Z</time></trkpt><trkpt lat="46.0281452" lon="11.8763249"><ele>322.0</ele><time>2026-04-23T11:14:46.538Z</time></trkpt><trkpt lat="46.028244" lon="11.8762606"><ele>322.0</ele><time>2026-04-23T11:14:48.537Z</time></trkpt><trkpt lat="46.0283353" lon="11.8762002"><ele>322.0</ele><time>2026-04-23T11:14:50.54Z</time></trkpt><trkpt lat="46.0284166" lon="11.8761281"><ele>322.0</ele><time>2026-04-23T11:14:52.538Z</time></trkpt><trkpt lat="46.0284865" lon="11.876037"><ele>322.0</ele><time>2026-04-23T11:14:54.537Z</time></trkpt><trkpt lat="46.028555" lon="11.8759386"><ele>321.0</ele><time>2026-04-23T11:14:56.537Z</time></trkpt><trkpt lat="46.0286158" lon="11.8758287"><ele>320.0</ele><time>2026-04-23T11:14:58.536Z</time></trkpt><trkpt lat="46.0286589" lon="11.8757049"><ele>319.0</ele><time>2026-04-23T11:15:00.538Z</time></trkpt><trkpt lat="46.0286841" lon="11.8755719"><ele>318.0</ele><time>2026-04-23T11:15:02.539Z</time></trkpt><trkpt lat="46.0286873" lon="11.8754416"><ele>317.0</ele><time>2026-04-23T11:15:04.54Z</time></trkpt><trkpt lat="46.0286749" lon="11.8753194"><ele>317.0</ele><time>2026-04-23T11:15:06.538Z</time></trkpt><trkpt lat="46.0286565" lon="11.8752023"><ele>317.0</ele><time>2026-04-23T11:15:08.54Z</time></trkpt><trkpt lat="46.028633" lon="11.8750912"><ele>317.0</ele><time>2026-04-23T11:15:10.539Z</time></trkpt><trkpt lat="46.0286052" lon="11.8749827"><ele>317.0</ele><time>2026-04-23T11:15:12.539Z</time></trkpt><trkpt lat="46.0285877" lon="11.8748719"><ele>317.0</ele><time>2026-04-23T11:15:14.536Z</time></trkpt><trkpt lat="46.0285767" lon="11.8747665"><ele>317.0</ele><time>2026-04-23T11:15:16.539Z</time></trkpt><trkpt lat="46.0285817" lon="11.8746327"><ele>317.5</ele><time>2026-04-23T11:15:19.539Z</time></trkpt><trkpt lat="46.0286042" lon="11.8745072"><ele>318.0</ele><time>2026-04-23T11:15:22.539Z</time></trkpt><trkpt lat="46.0286322" lon="11.874392"><ele>318.5</ele><time>2026-04-23T11:15:25.536Z</time></trkpt><trkpt lat="46.0286613" lon="11.8742858"><ele>319.0</ele><time>2026-04-23T11:15:28.539Z</time></trkpt><trkpt lat="46.0286891" lon="11.8741836"><ele>319.5</ele><time>2026-04-23T11:15:31.539Z</time></trkpt><trkpt lat="46.0287162" lon="11.8740852"><ele>320.0</ele><time>2026-04-23T11:15:34.539Z</time></trkpt><trkpt lat="46.0287431" lon="11.8739876"><ele>321.2857142857143</ele><time>2026-04-23T11:15:37.539Z</time></trkpt><trkpt lat="46.0287674" lon="11.8738863"><ele>322.57142857142856</ele><time>2026-04-23T11:15:40.54Z</time></trkpt><trkpt lat="46.028792" lon="11.873793"><ele>323.8571428571429</ele><time>2026-04-23T11:15:43.538Z</time></trkpt><trkpt lat="46.0288183" lon="11.8737038"><ele>325.1428571428571</ele><time>2026-04-23T11:15:46.539Z</time></trkpt><trkpt lat="46.0288152" lon="11.8736004"><ele>326.42857142857144</ele><time>2026-04-23T11:15:50.538Z</time></trkpt><trkpt lat="46.028759" lon="11.8735504"><ele>327.7142857142857</ele><time>2026-04-23T11:15:53.539Z</time></trkpt><trkpt lat="46.0287039" lon="11.8734891"><ele>329.0</ele><time>2026-04-23T11:15:56.538Z</time></trkpt><trkpt lat="46.0286715" lon="11.8733968"><ele>329.83333333333337</ele><time>2026-04-23T11:15:59.539Z</time></trkpt><trkpt lat="46.0286515" lon="11.8732962"><ele>330.6666666666667</ele><time>2026-04-23T11:16:02.538Z</time></trkpt><trkpt lat="46.0286275" lon="11.8731878"><ele>331.5</ele><time>2026-04-23T11:16:05.539Z</time></trkpt><trkpt lat="46.0286154" lon="11.8730848"><ele>332.3333333333333</ele><time>2026-04-23T11:16:08.537Z</time></trkpt><trkpt lat="46.0285974" lon="11.8729805"><ele>333.16666666666663</ele><time>2026-04-23T11:16:11.536Z</time></trkpt><trkpt lat="46.0285859" lon="11.8728708"><ele>334.0</ele><time>2026-04-23T11:16:14.538Z</time></trkpt><trkpt lat="46.0286143" lon="11.8727611"><ele>334.0</ele><time>2026-04-23T11:16:17.54Z</time></trkpt><trkpt lat="46.0286528" lon="11.8726733"><ele>334.0</ele><time>2026-04-23T11:16:20.54Z</time></trkpt><trkpt lat="46.0286911" lon="11.8725953"><ele>334.0</ele><time>2026-04-23T11:16:23.539Z</time></trkpt><trkpt lat="46.028708" lon="11.8724941"><ele>334.0</ele><time>2026-04-23T11:16:28.536Z</time></trkpt><trkpt lat="46.0287592" lon="11.872386"><ele>334.0</ele><time>2026-04-23T11:16:32.537Z</time></trkpt><trkpt lat="46.0288054" lon="11.8723118"><ele>334.0</ele><time>2026-04-23T11:16:34.538Z</time></trkpt><trkpt lat="46.0288615" lon="11.8722567"><ele>334.0</ele><time>2026-04-23T11:16:36.539Z</time></trkpt><trkpt lat="46.0289207" lon="11.8722184"><ele>334.0</ele><time>2026-04-23T11:16:38.539Z</time></trkpt><trkpt lat="46.0290033" lon="11.8721535"><ele>334.0</ele><time>2026-04-23T11:16:41.539Z</time></trkpt><trkpt lat="46.0290624" lon="11.8721115"><ele>334.0</ele><time>2026-04-23T11:16:43.539Z</time></trkpt><trkpt lat="46.0291159" lon="11.8720566"><ele>334.0</ele><time>2026-04-23T11:16:45.539Z</time></trkpt><trkpt lat="46.0291665" lon="11.8719969"><ele>334.0</ele><time>2026-04-23T11:16:47.539Z</time></trkpt><trkpt lat="46.0292131" lon="11.8719356"><ele>334.0</ele><time>2026-04-23T11:16:49.539Z</time></trkpt><trkpt lat="46.0292771" lon="11.8718387"><ele>334.0</ele><time>2026-04-23T11:16:52.537Z</time></trkpt><trkpt lat="46.0293344" lon="11.8717325"><ele>334.5</ele><time>2026-04-23T11:16:55.539Z</time></trkpt><trkpt lat="46.0293879" lon="11.8716228"><ele>335.0</ele><time>2026-04-23T11:16:58.537Z</time></trkpt><trkpt lat="46.0294321" lon="11.871513"><ele>335.5</ele><time>2026-04-23T11:17:01.539Z</time></trkpt><trkpt lat="46.029464" lon="11.8713892"><ele>336.0</ele><time>2026-04-23T11:17:04.538Z</time></trkpt><trkpt lat="46.0294868" lon="11.8712628"><ele>336.5</ele><time>2026-04-23T11:17:07.538Z</time></trkpt><trkpt lat="46.0294955" lon="11.871172"><ele>337.0</ele><time>2026-04-23T11:17:09.539Z</time></trkpt><trkpt lat="46.029509" lon="11.8710449"><ele>337.66666666666663</ele><time>2026-04-23T11:17:12.539Z</time></trkpt><trkpt lat="46.0295209" lon="11.8709228"><ele>338.3333333333333</ele><time>2026-04-23T11:17:15.538Z</time></trkpt><trkpt lat="46.0295345" lon="11.8707999"><ele>339.0</ele><time>2026-04-23T11:17:18.537Z</time></trkpt><trkpt lat="46.0295581" lon="11.8706754"><ele>339.6666666666667</ele><time>2026-04-23T11:17:21.54Z</time></trkpt><trkpt lat="46.0295784" lon="11.8705509"><ele>340.33333333333337</ele><time>2026-04-23T11:17:24.537Z</time></trkpt><trkpt lat="46.0295975" lon="11.8704297"><ele>341.0</ele><time>2026-04-23T11:17:27.538Z</time></trkpt><trkpt lat="46.0296098" lon="11.8703088"><ele>341.0</ele><time>2026-04-23T11:17:30.537Z</time></trkpt><trkpt lat="46.0296038" lon="11.8701917"><ele>341.0</ele><time>2026-04-23T11:17:33.538Z</time></trkpt><trkpt lat="46.0295593" lon="11.8700772"><ele>341.0</ele><time>2026-04-23T11:17:36.539Z</time></trkpt><trkpt lat="46.0295186" lon="11.8700035"><ele>341.0</ele><time>2026-04-23T11:17:38.54Z</time></trkpt><trkpt lat="46.0294808" lon="11.8699287"><ele>341.0</ele><time>2026-04-23T11:17:40.54Z</time></trkpt><trkpt lat="46.0294259" lon="11.8698237"><ele>341.0</ele><time>2026-04-23T11:17:43.54Z</time></trkpt><trkpt lat="46.0293694" lon="11.8697179"><ele>340.83333333333337</ele><time>2026-04-23T11:17:46.537Z</time></trkpt><trkpt lat="46.0293265" lon="11.8696472"><ele>340.6666666666667</ele><time>2026-04-23T11:17:48.539Z</time></trkpt><trkpt lat="46.0292613" lon="11.8695499"><ele>340.5</ele><time>2026-04-23T11:17:51.537Z</time></trkpt><trkpt lat="46.0291943" lon="11.8694629"><ele>340.3333333333333</ele><time>2026-04-23T11:17:54.539Z</time></trkpt><trkpt lat="46.0291298" lon="11.8693707"><ele>340.16666666666663</ele><time>2026-04-23T11:17:57.537Z</time></trkpt><trkpt lat="46.0290598" lon="11.8692887"><ele>340.0</ele><time>2026-04-23T11:18:00.536Z</time></trkpt><trkpt lat="46.0289865" lon="11.8692055"><ele>341.16666666666663</ele><time>2026-04-23T11:18:03.54Z</time></trkpt><trkpt lat="46.0289149" lon="11.869124"><ele>342.3333333333333</ele><time>2026-04-23T11:18:06.538Z</time></trkpt><trkpt lat="46.0288448" lon="11.8690433"><ele>343.5</ele><time>2026-04-23T11:18:09.539Z</time></trkpt><trkpt lat="46.0287762" lon="11.8689648"><ele>344.6666666666667</ele><time>2026-04-23T11:18:12.536Z</time></trkpt><trkpt lat="46.0287019" lon="11.8688914"><ele>345.83333333333337</ele><time>2026-04-23T11:18:15.536Z</time></trkpt><trkpt lat="46.028644" lon="11.8688482"><ele>347.0</ele><time>2026-04-23T11:18:17.54Z</time></trkpt><trkpt lat="46.0285587" lon="11.8687996"><ele>347.0</ele><time>2026-04-23T11:18:20.538Z</time></trkpt><trkpt lat="46.0284977" lon="11.8687686"><ele>347.0</ele><time>2026-04-23T11:18:22.539Z</time></trkpt><trkpt lat="46.0284079" lon="11.8687299"><ele>347.0</ele><time>2026-04-23T11:18:24.539Z</time></trkpt><trkpt lat="46.0283036" lon="11.8686962"><ele>347.0</ele><time>2026-04-23T11:18:26.538Z</time></trkpt><trkpt lat="46.0281952" lon="11.8686568"><ele>347.0</ele><time>2026-04-23T11:18:28.54Z</time></trkpt><trkpt lat="46.0280783" lon="11.8686061"><ele>347.14285714285717</ele><time>2026-04-23T11:18:30.539Z</time></trkpt><trkpt lat="46.0280146" lon="11.8685712"><ele>347.2857142857143</ele><time>2026-04-23T11:18:31.538Z</time></trkpt><trkpt lat="46.0279526" lon="11.8685286"><ele>347.42857142857144</ele><time>2026-04-23T11:18:32.54Z</time></trkpt><trkpt lat="46.0278952" lon="11.868474"><ele>347.57142857142856</ele><time>2026-04-23T11:18:33.539Z</time></trkpt><trkpt lat="46.0278362" lon="11.8684184"><ele>347.7142857142857</ele><time>2026-04-23T11:18:34.539Z</time></trkpt><trkpt lat="46.0277727" lon="11.8683678"><ele>347.85714285714283</ele><time>2026-04-23T11:18:35.538Z</time></trkpt><trkpt lat="46.0277074" lon="11.8683245"><ele>348.0</ele><time>2026-04-23T11:18:36.539Z</time></trkpt><trkpt lat="46.0276383" lon="11.8682892"><ele>348.0</ele><time>2026-04-23T11:18:37.538Z</time></trkpt><trkpt lat="46.0275678" lon="11.8682599"><ele>348.0</ele><time>2026-04-23T11:18:38.54Z</time></trkpt><trkpt lat="46.0274972" lon="11.8682324"><ele>348.0</ele><time>2026-04-23T11:18:39.539Z</time></trkpt><trkpt lat="46.0274288" lon="11.8682031"><ele>348.0</ele><time>2026-04-23T11:18:40.539Z</time></trkpt><trkpt lat="46.02736" lon="11.8681723"><ele>348.0</ele><time>2026-04-23T11:18:41.54Z</time></trkpt><trkpt lat="46.0272889" lon="11.8681467"><ele>348.0</ele><time>2026-04-23T11:18:42.539Z</time></trkpt><trkpt lat="46.0272187" lon="11.8681222"><ele>348.0</ele><time>2026-04-23T11:18:43.539Z</time></trkpt><trkpt lat="46.0271499" lon="11.8680981"><ele>347.0</ele><time>2026-04-23T11:18:44.539Z</time></trkpt><trkpt lat="46.0270853" lon="11.8680713"><ele>346.0</ele><time>2026-04-23T11:18:45.535Z</time></trkpt><trkpt lat="46.026979" lon="11.8679934"><ele>345.0</ele><time>2026-04-23T11:18:47.539Z</time></trkpt><trkpt lat="46.0268955" lon="11.8678982"><ele>344.0</ele><time>2026-04-23T11:18:49.54Z</time></trkpt><trkpt lat="46.026826" lon="11.8678193"><ele>343.0</ele><time>2026-04-23T11:18:51.539Z</time></trkpt><trkpt lat="46.0267609" lon="11.8677576"><ele>343.0</ele><time>2026-04-23T11:18:53.539Z</time></trkpt><trkpt lat="46.0266857" lon="11.8676923"><ele>343.0</ele><time>2026-04-23T11:18:55.539Z</time></trkpt><trkpt lat="46.0266044" lon="11.8676366"><ele>343.0</ele><time>2026-04-23T11:18:57.538Z</time></trkpt><trkpt lat="46.0265207" lon="11.8675857"><ele>343.0</ele><time>2026-04-23T11:18:59.539Z</time></trkpt><trkpt lat="46.0264388" lon="11.8675283"><ele>343.0</ele><time>2026-04-23T11:19:01.539Z</time></trkpt><trkpt lat="46.0263637" lon="11.8674586"><ele>343.0</ele><time>2026-04-23T11:19:03.539Z</time></trkpt><trkpt lat="46.0262907" lon="11.8673851"><ele>342.79999999999995</ele><time>2026-04-23T11:19:05.54Z</time></trkpt><trkpt lat="46.026215" lon="11.8673079"><ele>342.6</ele><time>2026-04-23T11:19:07.538Z</time></trkpt><trkpt lat="46.0261473" lon="11.8672137"><ele>342.4</ele><time>2026-04-23T11:19:09.54Z</time></trkpt><trkpt lat="46.0260828" lon="11.8671154"><ele>342.20000000000005</ele><time>2026-04-23T11:19:11.54Z</time></trkpt><trkpt lat="46.0260203" lon="11.8670199"><ele>342.0</ele><time>2026-04-23T11:19:13.539Z</time></trkpt><trkpt lat="46.025956" lon="11.8669254"><ele>342.0</ele><time>2026-04-23T11:19:15.537Z</time></trkpt><trkpt lat="46.0258879" lon="11.8668304"><ele>342.0</ele><time>2026-04-23T11:19:17.54Z</time></trkpt><trkpt lat="46.0258224" lon="11.8667305"><ele>342.0</ele><time>2026-04-23T11:19:19.537Z</time></trkpt><trkpt lat="46.0257618" lon="11.8666229"><ele>342.0</ele><time>2026-04-23T11:19:21.539Z</time></trkpt><trkpt lat="46.0256947" lon="11.8665071"><ele>342.0</ele><time>2026-04-23T11:19:23.537Z</time></trkpt><trkpt lat="46.0256245" lon="11.8663863"><ele>341.40000000000003</ele><time>2026-04-23T11:19:25.539Z</time></trkpt><trkpt lat="46.0255761" lon="11.8662601"><ele>340.8</ele><time>2026-04-23T11:19:27.539Z</time></trkpt><trkpt lat="46.0255329" lon="11.8661306"><ele>340.2</ele><time>2026-04-23T11:19:29.539Z</time></trkpt><trkpt lat="46.0254888" lon="11.8660034"><ele>339.6</ele><time>2026-04-23T11:19:31.535Z</time></trkpt><trkpt lat="46.025452" lon="11.8658741"><ele>339.0</ele><time>2026-04-23T11:19:33.539Z</time></trkpt><trkpt lat="46.0254107" lon="11.8657483"><ele>339.0</ele><time>2026-04-23T11:19:35.539Z</time></trkpt><trkpt lat="46.0253735" lon="11.8656276"><ele>339.0</ele><time>2026-04-23T11:19:37.538Z</time></trkpt><trkpt lat="46.0253324" lon="11.8655078"><ele>339.0</ele><time>2026-04-23T11:19:39.537Z</time></trkpt><trkpt lat="46.0252966" lon="11.8653886"><ele>339.0</ele><time>2026-04-23T11:19:41.535Z</time></trkpt><trkpt lat="46.0252826" lon="11.8652653"><ele>339.0</ele><time>2026-04-23T11:19:43.539Z</time></trkpt><trkpt lat="46.0252797" lon="11.865143"><ele>339.0</ele><time>2026-04-23T11:19:45.539Z</time></trkpt><trkpt lat="46.0252866" lon="11.8650248"><ele>340.8333333333333</ele><time>2026-04-23T11:19:47.54Z</time></trkpt><trkpt lat="46.0252826" lon="11.8649049"><ele>342.6666666666667</ele><time>2026-04-23T11:19:49.54Z</time></trkpt><trkpt lat="46.0252593" lon="11.8647888"><ele>344.5</ele><time>2026-04-23T11:19:51.537Z</time></trkpt><trkpt lat="46.0252276" lon="11.8646789"><ele>346.33333333333337</ele><time>2026-04-23T11:19:53.539Z</time></trkpt><trkpt lat="46.0251793" lon="11.8645792"><ele>348.1666666666667</ele><time>2026-04-23T11:19:55.54Z</time></trkpt><trkpt lat="46.0251226" lon="11.8644911"><ele>350.0</ele><time>2026-04-23T11:19:57.539Z</time></trkpt><trkpt lat="46.0250594" lon="11.8644086"><ele>350.0</ele><time>2026-04-23T11:19:59.539Z</time></trkpt><trkpt lat="46.0249984" lon="11.8643253"><ele>350.0</ele><time>2026-04-23T11:20:01.537Z</time></trkpt><trkpt lat="46.0249299" lon="11.8642466"><ele>350.0</ele><time>2026-04-23T11:20:03.537Z</time></trkpt><trkpt lat="46.0248668" lon="11.8641683"><ele>350.0</ele><time>2026-04-23T11:20:05.539Z</time></trkpt><trkpt lat="46.0248018" lon="11.864088"><ele>350.0</ele><time>2026-04-23T11:20:07.537Z</time></trkpt><trkpt lat="46.0247349" lon="11.8640136"><ele>350.0</ele><time>2026-04-23T11:20:09.538Z</time></trkpt><trkpt lat="46.0246674" lon="11.8639346"><ele>352.83333333333337</ele><time>2026-04-23T11:20:11.539Z</time></trkpt><trkpt lat="46.0245978" lon="11.8638602"><ele>355.6666666666667</ele><time>2026-04-23T11:20:13.539Z</time></trkpt><trkpt lat="46.0245277" lon="11.8637963"><ele>358.5</ele><time>2026-04-23T11:20:15.538Z</time></trkpt><trkpt lat="46.0244538" lon="11.8637365"><ele>361.3333333333333</ele><time>2026-04-23T11:20:17.538Z</time></trkpt><trkpt lat="46.0243829" lon="11.8636767"><ele>364.16666666666663</ele><time>2026-04-23T11:20:19.537Z</time></trkpt><trkpt lat="46.0243135" lon="11.8636161"><ele>367.0</ele><time>2026-04-23T11:20:21.536Z</time></trkpt><trkpt lat="46.0242438" lon="11.8635553"><ele>367.0</ele><time>2026-04-23T11:20:23.54Z</time></trkpt><trkpt lat="46.0241726" lon="11.8635001"><ele>367.0</ele><time>2026-04-23T11:20:25.539Z</time></trkpt><trkpt lat="46.0240998" lon="11.8634377"><ele>367.0</ele><time>2026-04-23T11:20:27.54Z</time></trkpt><trkpt lat="46.0240364" lon="11.8633712"><ele>367.0</ele><time>2026-04-23T11:20:29.539Z</time></trkpt><trkpt lat="46.0239832" lon="11.8632844"><ele>367.0</ele><time>2026-04-23T11:20:31.539Z</time></trkpt><trkpt lat="46.0239376" lon="11.863191"><ele>367.0</ele><time>2026-04-23T11:20:33.536Z</time></trkpt><trkpt lat="46.0238943" lon="11.863096"><ele>367.0</ele><time>2026-04-23T11:20:35.539Z</time></trkpt><trkpt lat="46.0238607" lon="11.862991"><ele>367.0</ele><time>2026-04-23T11:20:37.54Z</time></trkpt><trkpt lat="46.0238281" lon="11.8628887"><ele>367.0</ele><time>2026-04-23T11:20:39.54Z</time></trkpt><trkpt lat="46.0238154" lon="11.8627782"><ele>367.0</ele><time>2026-04-23T11:20:41.536Z</time></trkpt><trkpt lat="46.0238099" lon="11.8626633"><ele>367.0</ele><time>2026-04-23T11:20:43.538Z</time></trkpt><trkpt lat="46.0238014" lon="11.8625418"><ele>367.0</ele><time>2026-04-23T11:20:45.539Z</time></trkpt><trkpt lat="46.023796" lon="11.8624216"><ele>367.0</ele><time>2026-04-23T11:20:47.539Z</time></trkpt><trkpt lat="46.0237817" lon="11.8623058"><ele>367.0</ele><time>2026-04-23T11:20:49.539Z</time></trkpt><trkpt lat="46.0237559" lon="11.8622002"><ele>367.0</ele><time>2026-04-23T11:20:51.539Z</time></trkpt><trkpt lat="46.0237183" lon="11.8620989"><ele>367.0</ele><time>2026-04-23T11:20:53.536Z</time></trkpt><trkpt lat="46.0236747" lon="11.8620028"><ele>367.0</ele><time>2026-04-23T11:20:55.538Z</time></trkpt><trkpt lat="46.0236217" lon="11.8619103"><ele>367.0</ele><time>2026-04-23T11:20:57.539Z</time></trkpt><trkpt lat="46.0235687" lon="11.8618204"><ele>367.0</ele><time>2026-04-23T11:20:59.536Z</time></trkpt><trkpt lat="46.0235097" lon="11.8617373"><ele>367.0</ele><time>2026-04-23T11:21:01.538Z</time></trkpt><trkpt lat="46.0234532" lon="11.8616492"><ele>367.0</ele><time>2026-04-23T11:21:03.54Z</time></trkpt><trkpt lat="46.0233968" lon="11.8615631"><ele>367.0</ele><time>2026-04-23T11:21:05.539Z</time></trkpt><trkpt lat="46.0233385" lon="11.8614743"><ele>367.0</ele><time>2026-04-23T11:21:07.538Z</time></trkpt><trkpt lat="46.0232823" lon="11.8613869"><ele>367.0</ele><time>2026-04-23T11:21:09.54Z</time></trkpt><trkpt lat="46.0232233" lon="11.8613044"><ele>367.16666666666663</ele><time>2026-04-23T11:21:11.54Z</time></trkpt><trkpt lat="46.0231651" lon="11.8612266"><ele>367.3333333333333</ele><time>2026-04-23T11:21:13.538Z</time></trkpt><trkpt lat="46.0231101" lon="11.861141"><ele>367.5</ele><time>2026-04-23T11:21:15.537Z</time></trkpt><trkpt lat="46.0230672" lon="11.8610407"><ele>367.6666666666667</ele><time>2026-04-23T11:21:17.538Z</time></trkpt><trkpt lat="46.0230266" lon="11.8609381"><ele>367.83333333333337</ele><time>2026-04-23T11:21:19.54Z</time></trkpt><trkpt lat="46.0229873" lon="11.8608335"><ele>368.0</ele><time>2026-04-23T11:21:21.54Z</time></trkpt><trkpt lat="46.0229712" lon="11.8607262"><ele>368.0</ele><time>2026-04-23T11:21:23.538Z</time></trkpt><trkpt lat="46.0229895" lon="11.8606288"><ele>368.0</ele><time>2026-04-23T11:21:25.537Z</time></trkpt><trkpt lat="46.0230398" lon="11.8605697"><ele>368.0</ele><time>2026-04-23T11:21:27.539Z</time></trkpt><trkpt lat="46.0231083" lon="11.8605604"><ele>368.0</ele><time>2026-04-23T11:21:29.539Z</time></trkpt><trkpt lat="46.0231802" lon="11.8605547"><ele>368.0</ele><time>2026-04-23T11:21:31.537Z</time></trkpt><trkpt lat="46.0232556" lon="11.86055"><ele>368.0</ele><time>2026-04-23T11:21:33.539Z</time></trkpt><trkpt lat="46.0233322" lon="11.8605451"><ele>368.0</ele><time>2026-04-23T11:21:35.539Z</time></trkpt><trkpt lat="46.0234101" lon="11.8605316"><ele>368.1666666666667</ele><time>2026-04-23T11:21:37.538Z</time></trkpt><trkpt lat="46.0234844" lon="11.8605191"><ele>368.33333333333337</ele><time>2026-04-23T11:21:39.537Z</time></trkpt><trkpt lat="46.0235583" lon="11.8604929"><ele>368.5</ele><time>2026-04-23T11:21:41.539Z</time></trkpt><trkpt lat="46.0236295" lon="11.8604465"><ele>368.6666666666667</ele><time>2026-04-23T11:21:43.536Z</time></trkpt><trkpt lat="46.0236953" lon="11.860398"><ele>368.8333333333333</ele><time>2026-04-23T11:21:45.539Z</time></trkpt><trkpt lat="46.0237612" lon="11.8603436"><ele>369.0</ele><time>2026-04-23T11:21:47.538Z</time></trkpt><trkpt lat="46.0238275" lon="11.8602882"><ele>369.0</ele><time>2026-04-23T11:21:49.539Z</time></trkpt><trkpt lat="46.0239004" lon="11.8602326"><ele>369.0</ele><time>2026-04-23T11:21:51.539Z</time></trkpt><trkpt lat="46.0239712" lon="11.8601739"><ele>369.0</ele><time>2026-04-23T11:21:53.539Z</time></trkpt><trkpt lat="46.0240347" lon="11.8601264"><ele>369.0</ele><time>2026-04-23T11:21:55.538Z</time></trkpt><trkpt lat="46.0241048" lon="11.860135"><ele>369.0</ele><time>2026-04-23T11:21:57.539Z</time></trkpt><trkpt lat="46.0241782" lon="11.8601743"><ele>369.0</ele><time>2026-04-23T11:21:59.535Z</time></trkpt><trkpt lat="46.0242509" lon="11.8602119"><ele>370.6666666666667</ele><time>2026-04-23T11:22:01.538Z</time></trkpt><trkpt lat="46.0243252" lon="11.8602598"><ele>372.3333333333333</ele><time>2026-04-23T11:22:03.539Z</time></trkpt><trkpt lat="46.0244002" lon="11.8602972"><ele>374.0</ele><time>2026-04-23T11:22:05.539Z</time></trkpt><trkpt lat="46.0244727" lon="11.8603177"><ele>375.66666666666663</ele><time>2026-04-23T11:22:07.54Z</time></trkpt><trkpt lat="46.0245451" lon="11.8603437"><ele>377.3333333333333</ele><time>2026-04-23T11:22:09.54Z</time></trkpt><trkpt lat="46.0246189" lon="11.8603528"><ele>379.0</ele><time>2026-04-23T11:22:11.538Z</time></trkpt><trkpt lat="46.0247004" lon="11.8603547"><ele>379.0</ele><time>2026-04-23T11:22:13.537Z</time></trkpt><trkpt lat="46.0247887" lon="11.8603449"><ele>379.0</ele><time>2026-04-23T11:22:15.538Z</time></trkpt><trkpt lat="46.0248771" lon="11.8603455"><ele>379.0</ele><time>2026-04-23T11:22:17.539Z</time></trkpt><trkpt lat="46.0249511" lon="11.8603727"><ele>379.0</ele><time>2026-04-23T11:22:19.538Z</time></trkpt><trkpt lat="46.0250258" lon="11.8604198"><ele>379.0</ele><time>2026-04-23T11:22:21.535Z</time></trkpt><trkpt lat="46.0250917" lon="11.8604761"><ele>379.0</ele><time>2026-04-23T11:22:23.54Z</time></trkpt><trkpt lat="46.0251577" lon="11.8605367"><ele>379.66666666666663</ele><time>2026-04-23T11:22:25.538Z</time></trkpt><trkpt lat="46.0252137" lon="11.8606008"><ele>380.3333333333333</ele><time>2026-04-23T11:22:27.539Z</time></trkpt><trkpt lat="46.025268" lon="11.8606726"><ele>381.0</ele><time>2026-04-23T11:22:29.538Z</time></trkpt><trkpt lat="46.0253094" lon="11.8607576"><ele>381.6666666666667</ele><time>2026-04-23T11:22:31.537Z</time></trkpt><trkpt lat="46.0253448" lon="11.8608577"><ele>382.33333333333337</ele><time>2026-04-23T11:22:33.537Z</time></trkpt><trkpt lat="46.0253863" lon="11.8609605"><ele>383.0</ele><time>2026-04-23T11:22:35.539Z</time></trkpt><trkpt lat="46.0254288" lon="11.861064"><ele>383.0</ele><time>2026-04-23T11:22:37.539Z</time></trkpt><trkpt lat="46.0254682" lon="11.8611665"><ele>383.0</ele><time>2026-04-23T11:22:39.538Z</time></trkpt><trkpt lat="46.0255198" lon="11.8612621"><ele>383.0</ele><time>2026-04-23T11:22:41.537Z</time></trkpt><trkpt lat="46.0255826" lon="11.8613428"><ele>383.0</ele><time>2026-04-23T11:22:43.538Z</time></trkpt><trkpt lat="46.0256481" lon="11.8613988"><ele>383.0</ele><time>2026-04-23T11:22:45.536Z</time></trkpt><trkpt lat="46.0257165" lon="11.8614439"><ele>383.0</ele><time>2026-04-23T11:22:47.538Z</time></trkpt><trkpt lat="46.025792" lon="11.861479"><ele>383.0</ele><time>2026-04-23T11:22:49.539Z</time></trkpt><trkpt lat="46.0258589" lon="11.8615031"><ele>383.0</ele><time>2026-04-23T11:22:51.538Z</time></trkpt><trkpt lat="46.0259289" lon="11.8615307"><ele>383.0</ele><time>2026-04-23T11:22:53.537Z</time></trkpt><trkpt lat="46.0259969" lon="11.8615839"><ele>383.0</ele><time>2026-04-23T11:22:55.537Z</time></trkpt><trkpt lat="46.026068" lon="11.8616416"><ele>383.0</ele><time>2026-04-23T11:22:57.534Z</time></trkpt><trkpt lat="46.0261376" lon="11.8617043"><ele>383.0</ele><time>2026-04-23T11:22:59.538Z</time></trkpt><trkpt lat="46.0262071" lon="11.8617513"><ele>383.0</ele><time>2026-04-23T11:23:01.536Z</time></trkpt><trkpt lat="46.0262845" lon="11.8617789"><ele>383.0</ele><time>2026-04-23T11:23:03.536Z</time></trkpt><trkpt lat="46.0263717" lon="11.8617979"><ele>383.0</ele><time>2026-04-23T11:23:06.538Z</time></trkpt><trkpt lat="46.0264516" lon="11.8618089"><ele>383.0</ele><time>2026-04-23T11:23:09.536Z</time></trkpt><trkpt lat="46.0265222" lon="11.8618101"><ele>383.0</ele><time>2026-04-23T11:23:12.536Z</time></trkpt><trkpt lat="46.026605" lon="11.8617982"><ele>383.0</ele><time>2026-04-23T11:23:15.539Z</time></trkpt><trkpt lat="46.0266729" lon="11.8617865"><ele>385.0</ele><time>2026-04-23T11:23:18.537Z</time></trkpt><trkpt lat="46.0267397" lon="11.8617552"><ele>387.0</ele><time>2026-04-23T11:23:21.539Z</time></trkpt><trkpt lat="46.0268152" lon="11.8617099"><ele>389.0</ele><time>2026-04-23T11:23:24.534Z</time></trkpt><trkpt lat="46.02689" lon="11.86167"><ele>391.0</ele><time>2026-04-23T11:23:27.534Z</time></trkpt><trkpt lat="46.0269623" lon="11.861628"><ele>392.99999999999994</ele><time>2026-04-23T11:23:30.539Z</time></trkpt><trkpt lat="46.0270385" lon="11.8616264"><ele>395.0</ele><time>2026-04-23T11:23:33.538Z</time></trkpt><trkpt lat="46.0271008" lon="11.8616754"><ele>394.99999999999994</ele><time>2026-04-23T11:23:36.539Z</time></trkpt><trkpt lat="46.0271565" lon="11.8617555"><ele>395.0</ele><time>2026-04-23T11:23:39.539Z</time></trkpt><trkpt lat="46.0272088" lon="11.861837"><ele>395.0</ele><time>2026-04-23T11:23:42.539Z</time></trkpt><trkpt lat="46.0272735" lon="11.8618958"><ele>395.0</ele><time>2026-04-23T11:23:45.537Z</time></trkpt><trkpt lat="46.0273505" lon="11.8619398"><ele>394.99999999999994</ele><time>2026-04-23T11:23:48.538Z</time></trkpt><trkpt lat="46.0274223" lon="11.8619619"><ele>395.0</ele><time>2026-04-23T11:23:52.537Z</time></trkpt><trkpt lat="46.0274943" lon="11.8619653"><ele>396.16666666666663</ele><time>2026-04-23T11:23:55.539Z</time></trkpt><trkpt lat="46.0275721" lon="11.8619392"><ele>397.3333333333333</ele><time>2026-04-23T11:23:58.537Z</time></trkpt><trkpt lat="46.0276519" lon="11.8619147"><ele>398.5</ele><time>2026-04-23T11:24:01.539Z</time></trkpt><trkpt lat="46.0277365" lon="11.8618739"><ele>399.66666666666663</ele><time>2026-04-23T11:24:04.538Z</time></trkpt><trkpt lat="46.0278204" lon="11.8618695"><ele>400.8333333333333</ele><time>2026-04-23T11:24:07.539Z</time></trkpt><trkpt lat="46.0279089" lon="11.8618794"><ele>402.0</ele><time>2026-04-23T11:24:10.538Z</time></trkpt><trkpt lat="46.0279976" lon="11.8619066"><ele>402.0</ele><time>2026-04-23T11:24:13.54Z</time></trkpt><trkpt lat="46.0280736" lon="11.8619398"><ele>402.0</ele><time>2026-04-23T11:24:16.539Z</time></trkpt><trkpt lat="46.0281353" lon="11.8619739"><ele>402.0</ele><time>2026-04-23T11:24:20.54Z</time></trkpt><trkpt lat="46.0282511" lon="11.8620011"><ele>402.0</ele><time>2026-04-23T11:25:54.534Z</time></trkpt><trkpt lat="46.0283319" lon="11.8620494"><ele>402.0</ele><time>2026-04-23T11:25:59.536Z</time></trkpt><trkpt lat="46.0284094" lon="11.8621121"><ele>402.0</ele><time>2026-04-23T11:26:02.534Z</time></trkpt><trkpt lat="46.0284929" lon="11.8621813"><ele>403.5</ele><time>2026-04-23T11:26:05.536Z</time></trkpt><trkpt lat="46.0285543" lon="11.8622502"><ele>405.0</ele><time>2026-04-23T11:26:07.536Z</time></trkpt><trkpt lat="46.0286152" lon="11.8623077"><ele>406.5</ele><time>2026-04-23T11:26:09.535Z</time></trkpt><trkpt lat="46.0286741" lon="11.8623687"><ele>408.0</ele><time>2026-04-23T11:26:11.537Z</time></trkpt><trkpt lat="46.0287289" lon="11.8624266"><ele>409.5</ele><time>2026-04-23T11:26:13.538Z</time></trkpt><trkpt lat="46.0288102" lon="11.8624998"><ele>411.0</ele><time>2026-04-23T11:26:16.535Z</time></trkpt><trkpt lat="46.0288638" lon="11.8625538"><ele>411.0</ele><time>2026-04-23T11:26:18.534Z</time></trkpt><trkpt lat="46.0289183" lon="11.8626003"><ele>411.0</ele><time>2026-04-23T11:26:20.535Z</time></trkpt><trkpt lat="46.0289955" lon="11.8626651"><ele>411.0</ele><time>2026-04-23T11:26:23.534Z</time></trkpt><trkpt lat="46.0290751" lon="11.8627178"><ele>411.0</ele><time>2026-04-23T11:26:26.536Z</time></trkpt><trkpt lat="46.0291564" lon="11.8627366"><ele>411.0</ele><time>2026-04-23T11:26:29.536Z</time></trkpt><trkpt lat="46.0292444" lon="11.8627544"><ele>411.0</ele><time>2026-04-23T11:26:32.537Z</time></trkpt><trkpt lat="46.0293325" lon="11.862764"><ele>411.8333333333333</ele><time>2026-04-23T11:26:35.534Z</time></trkpt><trkpt lat="46.0294148" lon="11.8627425"><ele>412.66666666666663</ele><time>2026-04-23T11:26:38.537Z</time></trkpt><trkpt lat="46.0294917" lon="11.8627126"><ele>413.5</ele><time>2026-04-23T11:26:41.533Z</time></trkpt><trkpt lat="46.0295656" lon="11.8626653"><ele>414.3333333333333</ele><time>2026-04-23T11:26:44.535Z</time></trkpt><trkpt lat="46.0296454" lon="11.8626242"><ele>415.16666666666663</ele><time>2026-04-23T11:26:47.535Z</time></trkpt><trkpt lat="46.0297302" lon="11.8625853"><ele>416.0</ele><time>2026-04-23T11:26:50.538Z</time></trkpt><trkpt lat="46.0298122" lon="11.8625383"><ele>416.66666666666663</ele><time>2026-04-23T11:26:53.536Z</time></trkpt><trkpt lat="46.0299015" lon="11.8625243"><ele>417.3333333333333</ele><time>2026-04-23T11:26:56.537Z</time></trkpt><trkpt lat="46.0299886" lon="11.8625275"><ele>418.0</ele><time>2026-04-23T11:26:59.537Z</time></trkpt><trkpt lat="46.0300697" lon="11.862555"><ele>418.66666666666663</ele><time>2026-04-23T11:27:02.538Z</time></trkpt><trkpt lat="46.0301542" lon="11.8625988"><ele>419.3333333333333</ele><time>2026-04-23T11:27:05.536Z</time></trkpt><trkpt lat="46.0302427" lon="11.8626298"><ele>420.0</ele><time>2026-04-23T11:27:08.539Z</time></trkpt><trkpt lat="46.0303" lon="11.8626738"><ele>421.5</ele><time>2026-04-23T11:27:10.539Z</time></trkpt><trkpt lat="46.0303766" lon="11.8627283"><ele>423.0</ele><time>2026-04-23T11:27:13.539Z</time></trkpt><trkpt lat="46.0304454" lon="11.8627867"><ele>424.5</ele><time>2026-04-23T11:27:16.539Z</time></trkpt><trkpt lat="46.0305296" lon="11.8628058"><ele>426.0</ele><time>2026-04-23T11:27:19.534Z</time></trkpt><trkpt lat="46.0306154" lon="11.8627894"><ele>427.5</ele><time>2026-04-23T11:27:22.538Z</time></trkpt><trkpt lat="46.0306894" lon="11.8627472"><ele>429.0</ele><time>2026-04-23T11:27:25.539Z</time></trkpt><trkpt lat="46.0307591" lon="11.8626889"><ele>429.1666666666667</ele><time>2026-04-23T11:27:28.539Z</time></trkpt><trkpt lat="46.030799" lon="11.8625934"><ele>429.33333333333337</ele><time>2026-04-23T11:27:31.538Z</time></trkpt><trkpt lat="46.030784" lon="11.8624609"><ele>429.5</ele><time>2026-04-23T11:27:34.539Z</time></trkpt><trkpt lat="46.0307503" lon="11.8623636"><ele>429.6666666666667</ele><time>2026-04-23T11:27:36.539Z</time></trkpt><trkpt lat="46.0307121" lon="11.862257"><ele>429.83333333333337</ele><time>2026-04-23T11:27:38.537Z</time></trkpt><trkpt lat="46.0306757" lon="11.8621292"><ele>430.0</ele><time>2026-04-23T11:27:40.537Z</time></trkpt><trkpt lat="46.030635" lon="11.8620043"><ele>430.0</ele><time>2026-04-23T11:27:42.539Z</time></trkpt><trkpt lat="46.0305886" lon="11.8618896"><ele>430.0</ele><time>2026-04-23T11:27:44.539Z</time></trkpt><trkpt lat="46.030553" lon="11.8617639"><ele>430.0</ele><time>2026-04-23T11:27:46.536Z</time></trkpt><trkpt lat="46.0305088" lon="11.8616173"><ele>430.0</ele><time>2026-04-23T11:27:48.534Z</time></trkpt><trkpt lat="46.030468" lon="11.8614685"><ele>430.0</ele><time>2026-04-23T11:27:50.537Z</time></trkpt><trkpt lat="46.030442" lon="11.8613097"><ele>429.25</ele><time>2026-04-23T11:27:52.538Z</time></trkpt><trkpt lat="46.0304291" lon="11.8611419"><ele>428.5</ele><time>2026-04-23T11:27:54.535Z</time></trkpt><trkpt lat="46.0304174" lon="11.8609725"><ele>427.75</ele><time>2026-04-23T11:27:56.537Z</time></trkpt><trkpt lat="46.0304068" lon="11.8608059"><ele>427.0</ele><time>2026-04-23T11:27:58.535Z</time></trkpt><trkpt lat="46.030401" lon="11.8606359"><ele>427.0</ele><time>2026-04-23T11:28:00.537Z</time></trkpt><trkpt lat="46.030392" lon="11.8604715"><ele>427.00000000000006</ele><time>2026-04-23T11:28:02.536Z</time></trkpt><trkpt lat="46.0303726" lon="11.8603134"><ele>427.00000000000006</ele><time>2026-04-23T11:28:04.537Z</time></trkpt><trkpt lat="46.0303516" lon="11.8601658"><ele>427.0</ele><time>2026-04-23T11:28:06.536Z</time></trkpt><trkpt lat="46.0303191" lon="11.8600423"><ele>427.0</ele><time>2026-04-23T11:28:08.538Z</time></trkpt><trkpt lat="46.0302888" lon="11.8599358"><ele>426.83333333333337</ele><time>2026-04-23T11:28:10.538Z</time></trkpt><trkpt lat="46.0302546" lon="11.8598184"><ele>426.6666666666667</ele><time>2026-04-23T11:28:12.537Z</time></trkpt><trkpt lat="46.03022" lon="11.85971"><ele>426.5</ele><time>2026-04-23T11:28:14.54Z</time></trkpt><trkpt lat="46.030187" lon="11.8596176"><ele>426.33333333333337</ele><time>2026-04-23T11:28:16.536Z</time></trkpt><trkpt lat="46.0301462" lon="11.8595257"><ele>426.1666666666667</ele><time>2026-04-23T11:28:18.537Z</time></trkpt><trkpt lat="46.0301028" lon="11.8594352"><ele>426.0</ele><time>2026-04-23T11:28:20.536Z</time></trkpt><trkpt lat="46.0300583" lon="11.8593514"><ele>426.8333333333333</ele><time>2026-04-23T11:28:22.539Z</time></trkpt><trkpt lat="46.0300118" lon="11.8592702"><ele>427.66666666666663</ele><time>2026-04-23T11:28:24.536Z</time></trkpt><trkpt lat="46.0299572" lon="11.8592032"><ele>428.5</ele><time>2026-04-23T11:28:26.539Z</time></trkpt><trkpt lat="46.0298903" lon="11.8591379"><ele>429.3333333333333</ele><time>2026-04-23T11:28:28.538Z</time></trkpt><trkpt lat="46.0298209" lon="11.8590782"><ele>430.16666666666663</ele><time>2026-04-23T11:28:30.539Z</time></trkpt><trkpt lat="46.0297538" lon="11.8590085"><ele>431.0</ele><time>2026-04-23T11:28:32.54Z</time></trkpt><trkpt lat="46.0296901" lon="11.8589373"><ele>431.0</ele><time>2026-04-23T11:28:34.536Z</time></trkpt><trkpt lat="46.0296341" lon="11.8588573"><ele>431.0</ele><time>2026-04-23T11:28:36.537Z</time></trkpt><trkpt lat="46.029582" lon="11.8587725"><ele>431.0</ele><time>2026-04-23T11:28:38.539Z</time></trkpt><trkpt lat="46.0295417" lon="11.8586847"><ele>431.0</ele><time>2026-04-23T11:28:40.538Z</time></trkpt><trkpt lat="46.0295007" lon="11.8586026"><ele>431.0</ele><time>2026-04-23T11:28:42.54Z</time></trkpt><trkpt lat="46.0294595" lon="11.8585226"><ele>431.0</ele><time>2026-04-23T11:28:44.54Z</time></trkpt><trkpt lat="46.0294189" lon="11.8584451"><ele>431.0</ele><time>2026-04-23T11:28:46.537Z</time></trkpt><trkpt lat="46.029375" lon="11.8583643"><ele>431.0</ele><time>2026-04-23T11:28:48.538Z</time></trkpt><trkpt lat="46.0293322" lon="11.8582811"><ele>431.0</ele><time>2026-04-23T11:28:50.54Z</time></trkpt><trkpt lat="46.0292965" lon="11.8581949"><ele>431.0</ele><time>2026-04-23T11:28:52.538Z</time></trkpt><trkpt lat="46.0292652" lon="11.8581051"><ele>431.0</ele><time>2026-04-23T11:28:54.538Z</time></trkpt><trkpt lat="46.0292354" lon="11.8580141"><ele>431.0</ele><time>2026-04-23T11:28:56.54Z</time></trkpt><trkpt lat="46.0291995" lon="11.8579205"><ele>431.0</ele><time>2026-04-23T11:28:58.537Z</time></trkpt><trkpt lat="46.0291616" lon="11.8578232"><ele>431.0</ele><time>2026-04-23T11:29:00.539Z</time></trkpt><trkpt lat="46.0291258" lon="11.8577242"><ele>430.49999999999994</ele><time>2026-04-23T11:29:02.539Z</time></trkpt><trkpt lat="46.0290807" lon="11.8576271"><ele>430.0</ele><time>2026-04-23T11:29:04.539Z</time></trkpt><trkpt lat="46.0290348" lon="11.857535"><ele>429.5</ele><time>2026-04-23T11:29:06.539Z</time></trkpt><trkpt lat="46.0289874" lon="11.8574355"><ele>429.0</ele><time>2026-04-23T11:29:08.538Z</time></trkpt><trkpt lat="46.0289348" lon="11.8573411"><ele>428.49999999999994</ele><time>2026-04-23T11:29:10.539Z</time></trkpt><trkpt lat="46.0288789" lon="11.8572465"><ele>428.0</ele><time>2026-04-23T11:29:12.54Z</time></trkpt><trkpt lat="46.0288166" lon="11.8571504"><ele>427.99999999999994</ele><time>2026-04-23T11:29:14.539Z</time></trkpt><trkpt lat="46.0287493" lon="11.8570733"><ele>428.0</ele><time>2026-04-23T11:29:16.536Z</time></trkpt><trkpt lat="46.0286766" lon="11.8570088"><ele>428.0</ele><time>2026-04-23T11:29:18.538Z</time></trkpt><trkpt lat="46.0286008" lon="11.8569522"><ele>428.0</ele><time>2026-04-23T11:29:20.539Z</time></trkpt><trkpt lat="46.0285287" lon="11.8568962"><ele>427.99999999999994</ele><time>2026-04-23T11:29:22.54Z</time></trkpt><trkpt lat="46.0284551" lon="11.8568363"><ele>428.0</ele><time>2026-04-23T11:29:24.54Z</time></trkpt><trkpt lat="46.0283826" lon="11.8567779"><ele>428.7142857142857</ele><time>2026-04-23T11:29:26.538Z</time></trkpt><trkpt lat="46.0283159" lon="11.8567158"><ele>429.42857142857144</ele><time>2026-04-23T11:29:28.537Z</time></trkpt><trkpt lat="46.0282516" lon="11.8566512"><ele>430.1428571428571</ele><time>2026-04-23T11:29:30.538Z</time></trkpt><trkpt lat="46.0281956" lon="11.8565745"><ele>430.8571428571429</ele><time>2026-04-23T11:29:32.54Z</time></trkpt><trkpt lat="46.0281494" lon="11.8564889"><ele>431.57142857142856</ele><time>2026-04-23T11:29:34.538Z</time></trkpt><trkpt lat="46.0281068" lon="11.8564068"><ele>432.2857142857143</ele><time>2026-04-23T11:29:36.538Z</time></trkpt><trkpt lat="46.0280662" lon="11.8563306"><ele>433.0</ele><time>2026-04-23T11:29:38.541Z</time></trkpt><trkpt lat="46.0280173" lon="11.8562184"><ele>433.00000000000006</ele><time>2026-04-23T11:29:41.542Z</time></trkpt><trkpt lat="46.0279964" lon="11.8561011"><ele>433.0</ele><time>2026-04-23T11:29:44.539Z</time></trkpt><trkpt lat="46.0279873" lon="11.8559773"><ele>433.0</ele><time>2026-04-23T11:29:47.539Z</time></trkpt><trkpt lat="46.027972" lon="11.8558748"><ele>433.0</ele><time>2026-04-23T11:29:50.535Z</time></trkpt><trkpt lat="46.0279521" lon="11.8557816"><ele>433.00000000000006</ele><time>2026-04-23T11:29:53.539Z</time></trkpt><trkpt lat="46.0279319" lon="11.8556797"><ele>433.0</ele><time>2026-04-23T11:29:56.539Z</time></trkpt><trkpt lat="46.0279033" lon="11.8555753"><ele>434.71428571428567</ele><time>2026-04-23T11:29:59.54Z</time></trkpt><trkpt lat="46.0278732" lon="11.8554748"><ele>436.42857142857144</ele><time>2026-04-23T11:30:02.539Z</time></trkpt><trkpt lat="46.0278479" lon="11.8553761"><ele>438.1428571428571</ele><time>2026-04-23T11:30:05.539Z</time></trkpt><trkpt lat="46.0278102" lon="11.8552775"><ele>439.85714285714283</ele><time>2026-04-23T11:30:08.539Z</time></trkpt><trkpt lat="46.0277818" lon="11.8551768"><ele>441.57142857142856</ele><time>2026-04-23T11:30:11.539Z</time></trkpt><trkpt lat="46.0277546" lon="11.8550736"><ele>443.2857142857143</ele><time>2026-04-23T11:30:14.537Z</time></trkpt><trkpt lat="46.0277259" lon="11.8549871"><ele>445.0</ele><time>2026-04-23T11:30:17.538Z</time></trkpt><trkpt lat="46.0276983" lon="11.8548986"><ele>447.0</ele><time>2026-04-23T11:30:20.539Z</time></trkpt><trkpt lat="46.0276817" lon="11.8547968"><ele>449.0</ele><time>2026-04-23T11:30:23.534Z</time></trkpt><trkpt lat="46.0276579" lon="11.8547003"><ele>451.0</ele><time>2026-04-23T11:30:26.54Z</time></trkpt><trkpt lat="46.0276298" lon="11.8546007"><ele>453.0</ele><time>2026-04-23T11:30:29.538Z</time></trkpt><trkpt lat="46.0275958" lon="11.8545077"><ele>455.0</ele><time>2026-04-23T11:30:32.541Z</time></trkpt><trkpt lat="46.0275584" lon="11.8544097"><ele>457.0</ele><time>2026-04-23T11:30:35.54Z</time></trkpt><trkpt lat="46.0275225" lon="11.8543216"><ele>459.0</ele><time>2026-04-23T11:30:38.538Z</time></trkpt><trkpt lat="46.0274885" lon="11.8542293"><ele>458.6666666666667</ele><time>2026-04-23T11:30:41.539Z</time></trkpt><trkpt lat="46.0274583" lon="11.8541359"><ele>458.33333333333337</ele><time>2026-04-23T11:30:44.539Z</time></trkpt><trkpt lat="46.0274217" lon="11.8540317"><ele>458.0</ele><time>2026-04-23T11:30:47.537Z</time></trkpt><trkpt lat="46.027379" lon="11.8539357"><ele>457.6666666666667</ele><time>2026-04-23T11:30:50.535Z</time></trkpt><trkpt lat="46.0273456" lon="11.8538349"><ele>457.33333333333337</ele><time>2026-04-23T11:30:53.536Z</time></trkpt><trkpt lat="46.0273001" lon="11.8537504"><ele>457.0</ele><time>2026-04-23T11:30:56.54Z</time></trkpt><trkpt lat="46.027246" lon="11.853673"><ele>457.00000000000006</ele><time>2026-04-23T11:30:59.54Z</time></trkpt><trkpt lat="46.0271888" lon="11.8535883"><ele>457.0</ele><time>2026-04-23T11:31:02.541Z</time></trkpt><trkpt lat="46.0271292" lon="11.8535102"><ele>457.0</ele><time>2026-04-23T11:31:05.541Z</time></trkpt><trkpt lat="46.0270729" lon="11.8534354"><ele>457.0</ele><time>2026-04-23T11:31:08.541Z</time></trkpt><trkpt lat="46.0270064" lon="11.8533577"><ele>457.00000000000006</ele><time>2026-04-23T11:31:11.541Z</time></trkpt><trkpt lat="46.0269525" lon="11.8532805"><ele>457.0</ele><time>2026-04-23T11:31:14.537Z</time></trkpt><trkpt lat="46.0268936" lon="11.8532031"><ele>459.83333333333337</ele><time>2026-04-23T11:31:17.54Z</time></trkpt><trkpt lat="46.0268355" lon="11.8531221"><ele>462.6666666666667</ele><time>2026-04-23T11:31:20.539Z</time></trkpt><trkpt lat="46.0267809" lon="11.8530531"><ele>465.5</ele><time>2026-04-23T11:31:23.537Z</time></trkpt><trkpt lat="46.026721" lon="11.8529939"><ele>468.33333333333337</ele><time>2026-04-23T11:31:26.539Z</time></trkpt><trkpt lat="46.026656" lon="11.8529265"><ele>471.1666666666667</ele><time>2026-04-23T11:31:29.537Z</time></trkpt><trkpt lat="46.0265975" lon="11.8528508"><ele>474.0</ele><time>2026-04-23T11:31:32.538Z</time></trkpt><trkpt lat="46.026544" lon="11.8527786"><ele>474.2857142857142</ele><time>2026-04-23T11:31:35.539Z</time></trkpt><trkpt lat="46.0264849" lon="11.8527158"><ele>474.57142857142856</ele><time>2026-04-23T11:31:38.539Z</time></trkpt><trkpt lat="46.0264249" lon="11.8526601"><ele>474.85714285714283</ele><time>2026-04-23T11:31:41.54Z</time></trkpt><trkpt lat="46.0263596" lon="11.8526113"><ele>475.1428571428571</ele><time>2026-04-23T11:31:44.539Z</time></trkpt><trkpt lat="46.0262928" lon="11.8525628"><ele>475.42857142857144</ele><time>2026-04-23T11:31:47.54Z</time></trkpt><trkpt lat="46.0262296" lon="11.8525054"><ele>475.7142857142857</ele><time>2026-04-23T11:31:50.537Z</time></trkpt><trkpt lat="46.0261663" lon="11.8524478"><ele>476.0</ele><time>2026-04-23T11:31:53.539Z</time></trkpt><trkpt lat="46.0260986" lon="11.8524038"><ele>476.2857142857143</ele><time>2026-04-23T11:31:56.537Z</time></trkpt><trkpt lat="46.026038" lon="11.8523501"><ele>476.57142857142856</ele><time>2026-04-23T11:31:59.54Z</time></trkpt><trkpt lat="46.0259744" lon="11.8522968"><ele>476.8571428571429</ele><time>2026-04-23T11:32:02.54Z</time></trkpt><trkpt lat="46.0259207" lon="11.8522449"><ele>477.14285714285717</ele><time>2026-04-23T11:32:05.539Z</time></trkpt><trkpt lat="46.0258674" lon="11.8521949"><ele>477.42857142857144</ele><time>2026-04-23T11:32:08.54Z</time></trkpt><trkpt lat="46.0258132" lon="11.8521315"><ele>477.7142857142858</ele><time>2026-04-23T11:32:11.537Z</time></trkpt><trkpt lat="46.0257598" lon="11.8520665"><ele>478.00000000000006</ele><time>2026-04-23T11:32:14.539Z</time></trkpt><trkpt lat="46.0256996" lon="11.8519844"><ele>478.00000000000006</ele><time>2026-04-23T11:32:18.537Z</time></trkpt><trkpt lat="46.0256513" lon="11.8519176"><ele>478.0</ele><time>2026-04-23T11:32:21.536Z</time></trkpt><trkpt lat="46.0256027" lon="11.8518402"><ele>478.0</ele><time>2026-04-23T11:32:24.539Z</time></trkpt><trkpt lat="46.0255487" lon="11.8517637"><ele>478.0</ele><time>2026-04-23T11:32:27.537Z</time></trkpt><trkpt lat="46.0254829" lon="11.851687"><ele>478.00000000000006</ele><time>2026-04-23T11:32:30.537Z</time></trkpt><trkpt lat="46.0254162" lon="11.8516152"><ele>478.0</ele><time>2026-04-23T11:32:33.539Z</time></trkpt><trkpt lat="46.0253503" lon="11.8515379"><ele>480.83333333333337</ele><time>2026-04-23T11:32:36.538Z</time></trkpt><trkpt lat="46.0252906" lon="11.8514558"><ele>483.6666666666667</ele><time>2026-04-23T11:32:39.54Z</time></trkpt><trkpt lat="46.0252409" lon="11.8513632"><ele>486.5</ele><time>2026-04-23T11:32:42.539Z</time></trkpt><trkpt lat="46.0252008" lon="11.851264"><ele>489.33333333333337</ele><time>2026-04-23T11:32:45.537Z</time></trkpt><trkpt lat="46.0251594" lon="11.8511801"><ele>492.1666666666667</ele><time>2026-04-23T11:32:48.541Z</time></trkpt><trkpt lat="46.025113" lon="11.8510834"><ele>495.0</ele><time>2026-04-23T11:32:51.539Z</time></trkpt><trkpt lat="46.0250773" lon="11.8509795"><ele>499.3333333333333</ele><time>2026-04-23T11:32:54.537Z</time></trkpt><trkpt lat="46.0250402" lon="11.8508816"><ele>503.66666666666663</ele><time>2026-04-23T11:32:57.537Z</time></trkpt><trkpt lat="46.0250062" lon="11.8507755"><ele>508.0</ele><time>2026-04-23T11:33:00.539Z</time></trkpt><trkpt lat="46.0249701" lon="11.8506746"><ele>512.3333333333333</ele><time>2026-04-23T11:33:03.536Z</time></trkpt><trkpt lat="46.0249261" lon="11.8505968"><ele>516.6666666666666</ele><time>2026-04-23T11:33:06.538Z</time></trkpt><trkpt lat="46.0248804" lon="11.8505137"><ele>521.0</ele><time>2026-04-23T11:33:09.538Z</time></trkpt><trkpt lat="46.0248035" lon="11.8504747"><ele>521.0</ele><time>2026-04-23T11:33:12.538Z</time></trkpt><trkpt lat="46.0247227" lon="11.8504571"><ele>521.0</ele><time>2026-04-23T11:33:15.538Z</time></trkpt><trkpt lat="46.024657" lon="11.8504542"><ele>521.0</ele><time>2026-04-23T11:33:18.538Z</time></trkpt><trkpt lat="46.0245887" lon="11.850459"><ele>521.0</ele><time>2026-04-23T11:33:21.54Z</time></trkpt><trkpt lat="46.0245194" lon="11.850463"><ele>521.0</ele><time>2026-04-23T11:33:24.538Z</time></trkpt><trkpt lat="46.0244483" lon="11.8504717"><ele>521.0</ele><time>2026-04-23T11:33:28.538Z</time></trkpt><trkpt lat="46.0243665" lon="11.850488"><ele>521.0</ele><time>2026-04-23T11:33:33.538Z</time></trkpt><trkpt lat="46.0242931" lon="11.8504846"><ele>521.0</ele><time>2026-04-23T11:33:37.539Z</time></trkpt><trkpt lat="46.0242232" lon="11.8504877"><ele>521.0</ele><time>2026-04-23T11:33:40.537Z</time></trkpt><trkpt lat="46.0241555" lon="11.850493"><ele>521.0</ele><time>2026-04-23T11:33:43.538Z</time></trkpt><trkpt lat="46.0240872" lon="11.8504941"><ele>521.0</ele><time>2026-04-23T11:33:46.539Z</time></trkpt><trkpt lat="46.0240175" lon="11.8504875"><ele>521.0</ele><time>2026-04-23T11:33:49.537Z</time></trkpt><trkpt lat="46.0239409" lon="11.8504974"><ele>521.0</ele><time>2026-04-23T11:33:52.537Z</time></trkpt><trkpt lat="46.0238684" lon="11.850501"><ele>521.0</ele><time>2026-04-23T11:33:55.535Z</time></trkpt><trkpt lat="46.0237968" lon="11.8505149"><ele>522.1666666666666</ele><time>2026-04-23T11:33:58.535Z</time></trkpt><trkpt lat="46.0237178" lon="11.8505385"><ele>523.3333333333333</ele><time>2026-04-23T11:34:01.538Z</time></trkpt><trkpt lat="46.0236436" lon="11.8505419"><ele>524.5</ele><time>2026-04-23T11:34:04.539Z</time></trkpt><trkpt lat="46.0235584" lon="11.8505509"><ele>525.6666666666666</ele><time>2026-04-23T11:34:08.539Z</time></trkpt><trkpt lat="46.0234768" lon="11.8505553"><ele>526.8333333333334</ele><time>2026-04-23T11:34:11.537Z</time></trkpt><trkpt lat="46.0234101" lon="11.85054"><ele>528.0</ele><time>2026-04-23T11:34:14.54Z</time></trkpt><trkpt lat="46.0233433" lon="11.8504963"><ele>527.0</ele><time>2026-04-23T11:34:18.54Z</time></trkpt><trkpt lat="46.0232579" lon="11.8504716"><ele>526.0</ele><time>2026-04-23T11:34:22.539Z</time></trkpt><trkpt lat="46.0231888" lon="11.8504375"><ele>525.0</ele><time>2026-04-23T11:34:25.536Z</time></trkpt><trkpt lat="46.0231231" lon="11.8504094"><ele>524.0</ele><time>2026-04-23T11:34:28.539Z</time></trkpt><trkpt lat="46.0230498" lon="11.8503734"><ele>523.0</ele><time>2026-04-23T11:34:32.538Z</time></trkpt><trkpt lat="46.0229938" lon="11.8503302"><ele>522.0</ele><time>2026-04-23T11:34:35.539Z</time></trkpt><trkpt lat="46.0229336" lon="11.8503012"><ele>521.0</ele><time>2026-04-23T11:34:39.539Z</time></trkpt><trkpt lat="46.0228828" lon="11.8502315"><ele>521.0</ele><time>2026-04-23T11:36:14.536Z</time></trkpt><trkpt lat="46.0228038" lon="11.8502257"><ele>521.0</ele><time>2026-04-23T11:36:21.536Z</time></trkpt><trkpt lat="46.022748" lon="11.850176"><ele>521.0</ele><time>2026-04-23T11:36:24.536Z</time></trkpt><trkpt lat="46.0226875" lon="11.8501332"><ele>521.0</ele><time>2026-04-23T11:36:27.535Z</time></trkpt><trkpt lat="46.0226089" lon="11.8500991"><ele>521.0</ele><time>2026-04-23T11:36:31.537Z</time></trkpt><trkpt lat="46.0225267" lon="11.8500664"><ele>521.0</ele><time>2026-04-23T11:36:35.537Z</time></trkpt><trkpt lat="46.0224605" lon="11.8500357"><ele>521.0</ele><time>2026-04-23T11:36:38.536Z</time></trkpt><trkpt lat="46.0223919" lon="11.8500208"><ele>525.1428571428571</ele><time>2026-04-23T11:36:41.535Z</time></trkpt><trkpt lat="46.0223303" lon="11.8499997"><ele>529.2857142857143</ele><time>2026-04-23T11:36:44.539Z</time></trkpt><trkpt lat="46.0222685" lon="11.8499689"><ele>533.4285714285714</ele><time>2026-04-23T11:36:47.534Z</time></trkpt><trkpt lat="46.0222019" lon="11.8499441"><ele>537.5714285714286</ele><time>2026-04-23T11:36:50.538Z</time></trkpt><trkpt lat="46.0221366" lon="11.849905"><ele>541.7142857142857</ele><time>2026-04-23T11:36:53.539Z</time></trkpt><trkpt lat="46.0220768" lon="11.8498635"><ele>545.8571428571429</ele><time>2026-04-23T11:36:56.538Z</time></trkpt><trkpt lat="46.0220041" lon="11.8498076"><ele>550.0</ele><time>2026-04-23T11:37:00.535Z</time></trkpt><trkpt lat="46.0219433" lon="11.8497812"><ele>550.0</ele><time>2026-04-23T11:37:03.536Z</time></trkpt><trkpt lat="46.0218766" lon="11.8497483"><ele>550.0</ele><time>2026-04-23T11:37:06.537Z</time></trkpt><trkpt lat="46.0218188" lon="11.8497042"><ele>550.0</ele><time>2026-04-23T11:37:09.536Z</time></trkpt><trkpt lat="46.0217555" lon="11.8496624"><ele>550.0</ele><time>2026-04-23T11:37:12.536Z</time></trkpt><trkpt lat="46.0216789" lon="11.8496147"><ele>550.0</ele><time>2026-04-23T11:37:16.538Z</time></trkpt><trkpt lat="46.0216003" lon="11.8495661"><ele>550.0</ele><time>2026-04-23T11:37:20.537Z</time></trkpt><trkpt lat="46.0215391" lon="11.8495339"><ele>550.0</ele><time>2026-04-23T11:37:23.538Z</time></trkpt><trkpt lat="46.0214708" lon="11.8494655"><ele>548.5714285714286</ele><time>2026-04-23T11:37:27.539Z</time></trkpt><trkpt lat="46.0214212" lon="11.8494013"><ele>547.1428571428571</ele><time>2026-04-23T11:37:30.538Z</time></trkpt><trkpt lat="46.0213746" lon="11.8493302"><ele>545.7142857142857</ele><time>2026-04-23T11:37:33.538Z</time></trkpt><trkpt lat="46.0213304" lon="11.8492476"><ele>544.2857142857142</ele><time>2026-04-23T11:37:36.538Z</time></trkpt><trkpt lat="46.0212891" lon="11.8491769"><ele>542.8571428571428</ele><time>2026-04-23T11:37:39.539Z</time></trkpt><trkpt lat="46.0212569" lon="11.8490706"><ele>541.4285714285714</ele><time>2026-04-23T11:37:43.538Z</time></trkpt><trkpt lat="46.021224" lon="11.8489889"><ele>540.0</ele><time>2026-04-23T11:37:46.537Z</time></trkpt><trkpt lat="46.0211898" lon="11.8489084"><ele>540.0</ele><time>2026-04-23T11:37:49.539Z</time></trkpt><trkpt lat="46.0211474" lon="11.8488067"><ele>540.0</ele><time>2026-04-23T11:37:53.537Z</time></trkpt><trkpt lat="46.0211462" lon="11.8486955"><ele>540.0</ele><time>2026-04-23T11:37:57.541Z</time></trkpt><trkpt lat="46.0211974" lon="11.8486012"><ele>540.0</ele><time>2026-04-23T11:38:01.539Z</time></trkpt><trkpt lat="46.0212705" lon="11.8485371"><ele>540.0</ele><time>2026-04-23T11:38:05.538Z</time></trkpt><trkpt lat="46.0213278" lon="11.8484847"><ele>540.0</ele><time>2026-04-23T11:38:08.539Z</time></trkpt><trkpt lat="46.021388" lon="11.848442"><ele>540.4285714285714</ele><time>2026-04-23T11:38:11.538Z</time></trkpt><trkpt lat="46.0214496" lon="11.8484124"><ele>540.8571428571428</ele><time>2026-04-23T11:38:14.538Z</time></trkpt><trkpt lat="46.0215173" lon="11.8483808"><ele>541.2857142857142</ele><time>2026-04-23T11:38:17.539Z</time></trkpt><trkpt lat="46.0215877" lon="11.8483466"><ele>541.7142857142857</ele><time>2026-04-23T11:38:20.537Z</time></trkpt><trkpt lat="46.0216572" lon="11.8483288"><ele>542.1428571428571</ele><time>2026-04-23T11:38:23.536Z</time></trkpt><trkpt lat="46.0217233" lon="11.8483092"><ele>542.5714285714286</ele><time>2026-04-23T11:38:26.539Z</time></trkpt><trkpt lat="46.0217895" lon="11.848271"><ele>543.0</ele><time>2026-04-23T11:38:29.539Z</time></trkpt><trkpt lat="46.021853" lon="11.8482196"><ele>550.8333333333334</ele><time>2026-04-23T11:38:32.539Z</time></trkpt><trkpt lat="46.0219175" lon="11.8481646"><ele>558.6666666666666</ele><time>2026-04-23T11:38:35.538Z</time></trkpt><trkpt lat="46.0219683" lon="11.8481079"><ele>566.5</ele><time>2026-04-23T11:38:38.537Z</time></trkpt><trkpt lat="46.0220155" lon="11.848036"><ele>574.3333333333333</ele><time>2026-04-23T11:38:41.539Z</time></trkpt><trkpt lat="46.0220876" lon="11.8479871"><ele>582.1666666666666</ele><time>2026-04-23T11:38:45.538Z</time></trkpt><trkpt lat="46.0221634" lon="11.8480229"><ele>590.0</ele><time>2026-04-23T11:38:49.537Z</time></trkpt><trkpt lat="46.0222147" lon="11.8481186"><ele>590.0000000000001</ele><time>2026-04-23T11:38:53.537Z</time></trkpt><trkpt lat="46.0222592" lon="11.8482167"><ele>590.0</ele><time>2026-04-23T11:38:57.536Z</time></trkpt><trkpt lat="46.0223153" lon="11.8483062"><ele>590.0</ele><time>2026-04-23T11:39:01.537Z</time></trkpt><trkpt lat="46.0223684" lon="11.8483943"><ele>590.0</ele><time>2026-04-23T11:39:05.538Z</time></trkpt><trkpt lat="46.0224317" lon="11.8484164"><ele>590.0</ele><time>2026-04-23T11:39:09.538Z</time></trkpt><trkpt lat="46.0224527" lon="11.8483243"><ele>590.0000000000001</ele><time>2026-04-23T11:39:13.538Z</time></trkpt><trkpt lat="46.0224378" lon="11.8482286"><ele>590.0</ele><time>2026-04-23T11:39:16.537Z</time></trkpt><trkpt lat="46.0224189" lon="11.8481353"><ele>590.0000000000001</ele><time>2026-04-23T11:39:19.536Z</time></trkpt><trkpt lat="46.0224101" lon="11.8480367"><ele>590.0</ele><time>2026-04-23T11:39:22.539Z</time></trkpt><trkpt lat="46.0224062" lon="11.8479437"><ele>590.0</ele><time>2026-04-23T11:39:25.539Z</time></trkpt><trkpt lat="46.0223951" lon="11.8478486"><ele>590.0</ele><time>2026-04-23T11:39:28.538Z</time></trkpt><trkpt lat="46.022383" lon="11.847748"><ele>590.0</ele><time>2026-04-23T11:39:31.539Z</time></trkpt><trkpt lat="46.0223738" lon="11.8476462"><ele>590.0000000000001</ele><time>2026-04-23T11:39:34.538Z</time></trkpt><trkpt lat="46.0223615" lon="11.8475467"><ele>590.0</ele><time>2026-04-23T11:39:37.539Z</time></trkpt><trkpt lat="46.0223494" lon="11.8474441"><ele>589.8571428571429</ele><time>2026-04-23T11:39:40.54Z</time></trkpt><trkpt lat="46.0223319" lon="11.8473475"><ele>589.7142857142858</ele><time>2026-04-23T11:39:43.536Z</time></trkpt><trkpt lat="46.0223163" lon="11.8472515"><ele>589.5714285714286</ele><time>2026-04-23T11:39:46.537Z</time></trkpt><trkpt lat="46.0223039" lon="11.8471599"><ele>589.4285714285714</ele><time>2026-04-23T11:39:49.536Z</time></trkpt><trkpt lat="46.0222923" lon="11.8470413"><ele>589.2857142857142</ele><time>2026-04-23T11:39:53.539Z</time></trkpt><trkpt lat="46.0223188" lon="11.8469551"><ele>589.1428571428571</ele><time>2026-04-23T11:39:56.537Z</time></trkpt><trkpt lat="46.0223736" lon="11.8468922"><ele>589.0</ele><time>2026-04-23T11:39:59.538Z</time></trkpt><trkpt lat="46.0224366" lon="11.8468287"><ele>597.6666666666667</ele><time>2026-04-23T11:40:02.539Z</time></trkpt><trkpt lat="46.0225059" lon="11.8467796"><ele>606.3333333333334</ele><time>2026-04-23T11:40:05.538Z</time></trkpt><trkpt lat="46.0225731" lon="11.8467464"><ele>615.0</ele><time>2026-04-23T11:40:08.539Z</time></trkpt><trkpt lat="46.0226397" lon="11.8467177"><ele>623.6666666666666</ele><time>2026-04-23T11:40:11.538Z</time></trkpt><trkpt lat="46.022718" lon="11.8466925"><ele>632.3333333333333</ele><time>2026-04-23T11:40:15.539Z</time></trkpt><trkpt lat="46.0227932" lon="11.8466589"><ele>641.0</ele><time>2026-04-23T11:40:18.539Z</time></trkpt><trkpt lat="46.0228669" lon="11.8466138"><ele>641.0</ele><time>2026-04-23T11:40:21.535Z</time></trkpt><trkpt lat="46.0229042" lon="11.8465286"><ele>641.0</ele><time>2026-04-23T11:40:24.536Z</time></trkpt><trkpt lat="46.0228883" lon="11.8464397"><ele>641.0</ele><time>2026-04-23T11:40:27.537Z</time></trkpt><trkpt lat="46.0228561" lon="11.8463531"><ele>641.0</ele><time>2026-04-23T11:40:30.538Z</time></trkpt><trkpt lat="46.022826" lon="11.8462689"><ele>641.0</ele><time>2026-04-23T11:40:33.539Z</time></trkpt><trkpt lat="46.0227889" lon="11.8461875"><ele>641.0</ele><time>2026-04-23T11:40:36.539Z</time></trkpt><trkpt lat="46.0227445" lon="11.8460994"><ele>641.0</ele><time>2026-04-23T11:40:39.539Z</time></trkpt><trkpt lat="46.0226979" lon="11.8460256"><ele>643.2857142857143</ele><time>2026-04-23T11:40:42.538Z</time></trkpt><trkpt lat="46.0226494" lon="11.8459562"><ele>645.5714285714286</ele><time>2026-04-23T11:40:45.538Z</time></trkpt><trkpt lat="46.0225985" lon="11.8458972"><ele>647.8571428571429</ele><time>2026-04-23T11:40:48.538Z</time></trkpt><trkpt lat="46.0225497" lon="11.845804"><ele>650.1428571428571</ele><time>2026-04-23T11:40:52.538Z</time></trkpt><trkpt lat="46.0225939" lon="11.8457061"><ele>652.4285714285714</ele><time>2026-04-23T11:40:56.541Z</time></trkpt><trkpt lat="46.022662" lon="11.8456896"><ele>654.7142857142857</ele><time>2026-04-23T11:40:59.538Z</time></trkpt><trkpt lat="46.0227429" lon="11.8456815"><ele>657.0</ele><time>2026-04-23T11:41:03.539Z</time></trkpt><trkpt lat="46.02282" lon="11.8456861"><ele>657.0</ele><time>2026-04-23T11:41:07.537Z</time></trkpt><trkpt lat="46.0228919" lon="11.8456767"><ele>657.0</ele><time>2026-04-23T11:41:10.539Z</time></trkpt><trkpt lat="46.0229592" lon="11.8456785"><ele>657.0</ele><time>2026-04-23T11:41:13.539Z</time></trkpt><trkpt lat="46.0230248" lon="11.845674"><ele>657.0</ele><time>2026-04-23T11:41:16.539Z</time></trkpt><trkpt lat="46.023067" lon="11.845603"><ele>657.0</ele><time>2026-04-23T11:41:19.539Z</time></trkpt><trkpt lat="46.0230536" lon="11.8455138"><ele>657.0</ele><time>2026-04-23T11:41:22.538Z</time></trkpt><trkpt lat="46.0230551" lon="11.8454227"><ele>657.0</ele><time>2026-04-23T11:41:25.537Z</time></trkpt><trkpt lat="46.0231146" lon="11.845381"><ele>657.0</ele><time>2026-04-23T11:41:28.536Z</time></trkpt><trkpt lat="46.0231924" lon="11.8454063"><ele>657.0</ele><time>2026-04-23T11:41:32.539Z</time></trkpt><trkpt lat="46.0232572" lon="11.8454348"><ele>657.0</ele><time>2026-04-23T11:41:35.538Z</time></trkpt><trkpt lat="46.0233201" lon="11.8454575"><ele>657.0</ele><time>2026-04-23T11:41:38.535Z</time></trkpt><trkpt lat="46.0233919" lon="11.845499"><ele>657.0</ele><time>2026-04-23T11:41:42.538Z</time></trkpt><trkpt lat="46.0234729" lon="11.8455218"><ele>657.0</ele><time>2026-04-23T11:41:46.537Z</time></trkpt><trkpt lat="46.0235306" lon="11.8455611"><ele>657.0</ele><time>2026-04-23T11:41:49.54Z</time></trkpt><trkpt lat="46.0235944" lon="11.8455885"><ele>659.5</ele><time>2026-04-23T11:41:53.54Z</time></trkpt><trkpt lat="46.0236735" lon="11.8455987"><ele>662.0</ele><time>2026-04-23T11:41:57.537Z</time></trkpt><trkpt lat="46.0237488" lon="11.8456101"><ele>664.5</ele><time>2026-04-23T11:42:01.537Z</time></trkpt><trkpt lat="46.0238306" lon="11.8455865"><ele>667.0</ele><time>2026-04-23T11:42:05.538Z</time></trkpt><trkpt lat="46.0238994" lon="11.8455351"><ele>669.5</ele><time>2026-04-23T11:42:08.538Z</time></trkpt><trkpt lat="46.0239659" lon="11.8454884"><ele>672.0</ele><time>2026-04-23T11:42:12.538Z</time></trkpt><trkpt lat="46.0240357" lon="11.845466"><ele>672.0</ele><time>2026-04-23T11:42:15.538Z</time></trkpt><trkpt lat="46.0240964" lon="11.8454373"><ele>672.0</ele><time>2026-04-23T11:42:18.539Z</time></trkpt><trkpt lat="46.0241446" lon="11.8453725"><ele>672.0</ele><time>2026-04-23T11:42:22.537Z</time></trkpt><trkpt lat="46.024128" lon="11.8452736"><ele>672.0</ele><time>2026-04-23T11:42:25.537Z</time></trkpt><trkpt lat="46.0241059" lon="11.845188"><ele>672.0</ele><time>2026-04-23T11:42:28.537Z</time></trkpt><trkpt lat="46.0240688" lon="11.8451054"><ele>672.0</ele><time>2026-04-23T11:42:31.539Z</time></trkpt><trkpt lat="46.0240369" lon="11.8450203"><ele>672.0</ele><time>2026-04-23T11:42:34.537Z</time></trkpt><trkpt lat="46.0239899" lon="11.8449319"><ele>674.8571428571429</ele><time>2026-04-23T11:42:37.535Z</time></trkpt><trkpt lat="46.0239473" lon="11.8448424"><ele>677.7142857142858</ele><time>2026-04-23T11:42:40.537Z</time></trkpt><trkpt lat="46.0239102" lon="11.8447543"><ele>680.5714285714286</ele><time>2026-04-23T11:42:43.536Z</time></trkpt><trkpt lat="46.0238699" lon="11.8446652"><ele>683.4285714285714</ele><time>2026-04-23T11:42:46.537Z</time></trkpt><trkpt lat="46.0238387" lon="11.8445816"><ele>686.2857142857143</ele><time>2026-04-23T11:42:49.534Z</time></trkpt><trkpt lat="46.0237967" lon="11.8444984"><ele>689.1428571428571</ele><time>2026-04-23T11:42:52.537Z</time></trkpt><trkpt lat="46.0237706" lon="11.8443935"><ele>692.0</ele><time>2026-04-23T11:42:55.537Z</time></trkpt><trkpt lat="46.0237394" lon="11.844293"><ele>694.6666666666666</ele><time>2026-04-23T11:42:58.537Z</time></trkpt><trkpt lat="46.0237092" lon="11.84418"><ele>697.3333333333333</ele><time>2026-04-23T11:43:01.538Z</time></trkpt><trkpt lat="46.0236535" lon="11.8440779"><ele>700.0</ele><time>2026-04-23T11:43:04.538Z</time></trkpt><trkpt lat="46.0236033" lon="11.8439809"><ele>702.6666666666666</ele><time>2026-04-23T11:43:07.538Z</time></trkpt><trkpt lat="46.0235517" lon="11.8438828"><ele>705.3333333333334</ele><time>2026-04-23T11:43:10.537Z</time></trkpt><trkpt lat="46.0235017" lon="11.8437899"><ele>708.0</ele><time>2026-04-23T11:43:13.536Z</time></trkpt><trkpt lat="46.0234674" lon="11.8436947"><ele>708.0</ele><time>2026-04-23T11:43:16.537Z</time></trkpt><trkpt lat="46.0234235" lon="11.8435973"><ele>708.0</ele><time>2026-04-23T11:43:19.536Z</time></trkpt><trkpt lat="46.0233764" lon="11.843515"><ele>708.0</ele><time>2026-04-23T11:43:22.538Z</time></trkpt><trkpt lat="46.0233322" lon="11.8434458"><ele>708.0</ele><time>2026-04-23T11:43:25.537Z</time></trkpt><trkpt lat="46.0232855" lon="11.8433763"><ele>708.0</ele><time>2026-04-23T11:43:28.537Z</time></trkpt><trkpt lat="46.0232274" lon="11.84329"><ele>708.0</ele><time>2026-04-23T11:43:31.535Z</time></trkpt><trkpt lat="46.0231698" lon="11.8431964"><ele>707.3333333333334</ele><time>2026-04-23T11:43:34.537Z</time></trkpt><trkpt lat="46.0231048" lon="11.8431036"><ele>706.6666666666666</ele><time>2026-04-23T11:43:37.538Z</time></trkpt><trkpt lat="46.0230543" lon="11.8430078"><ele>706.0</ele><time>2026-04-23T11:43:40.539Z</time></trkpt><trkpt lat="46.0230045" lon="11.8429202"><ele>705.3333333333333</ele><time>2026-04-23T11:43:43.538Z</time></trkpt><trkpt lat="46.0229557" lon="11.8428517"><ele>704.6666666666666</ele><time>2026-04-23T11:43:47.539Z</time></trkpt><trkpt lat="46.0229011" lon="11.8427574"><ele>704.0</ele><time>2026-04-23T11:43:51.537Z</time></trkpt><trkpt lat="46.0228433" lon="11.842674"><ele>706.5</ele><time>2026-04-23T11:43:54.539Z</time></trkpt><trkpt lat="46.0227897" lon="11.8425847"><ele>709.0</ele><time>2026-04-23T11:43:57.539Z</time></trkpt><trkpt lat="46.0227336" lon="11.8425043"><ele>711.5</ele><time>2026-04-23T11:44:00.539Z</time></trkpt><trkpt lat="46.0226941" lon="11.8424119"><ele>714.0</ele><time>2026-04-23T11:44:03.538Z</time></trkpt><trkpt lat="46.0226558" lon="11.8423105"><ele>716.5</ele><time>2026-04-23T11:44:06.539Z</time></trkpt><trkpt lat="46.0226215" lon="11.8422088"><ele>719.0</ele><time>2026-04-23T11:44:09.54Z</time></trkpt><trkpt lat="46.0225912" lon="11.8421045"><ele>719.0</ele><time>2026-04-23T11:44:12.537Z</time></trkpt><trkpt lat="46.0225391" lon="11.8420058"><ele>719.0</ele><time>2026-04-23T11:44:15.539Z</time></trkpt><trkpt lat="46.0225018" lon="11.8418919"><ele>719.0</ele><time>2026-04-23T11:44:18.539Z</time></trkpt><trkpt lat="46.0224685" lon="11.8417927"><ele>719.0</ele><time>2026-04-23T11:44:21.54Z</time></trkpt><trkpt lat="46.0224437" lon="11.8416761"><ele>719.0</ele><time>2026-04-23T11:44:24.54Z</time></trkpt><trkpt lat="46.0224203" lon="11.8415767"><ele>719.0</ele><time>2026-04-23T11:44:27.538Z</time></trkpt><trkpt lat="46.0224156" lon="11.8414648"><ele>716.9999999999999</ele><time>2026-04-23T11:44:31.537Z</time></trkpt><trkpt lat="46.0224084" lon="11.8413708"><ele>715.0</ele><time>2026-04-23T11:44:35.538Z</time></trkpt><trkpt lat="46.022393" lon="11.8412716"><ele>713.0</ele><time>2026-04-23T11:44:39.539Z</time></trkpt><trkpt lat="46.0223903" lon="11.8411682"><ele>711.0</ele><time>2026-04-23T11:44:43.539Z</time></trkpt><trkpt lat="46.0223838" lon="11.8410674"><ele>709.0</ele><time>2026-04-23T11:44:47.539Z</time></trkpt><trkpt lat="46.0223668" lon="11.8409552"><ele>706.9999999999999</ele><time>2026-04-23T11:44:51.535Z</time></trkpt><trkpt lat="46.0223419" lon="11.8408461"><ele>705.0</ele><time>2026-04-23T11:44:55.54Z</time></trkpt><trkpt lat="46.0223162" lon="11.8407623"><ele>704.9999999999999</ele><time>2026-04-23T11:44:59.54Z</time></trkpt><trkpt lat="46.022315" lon="11.8406601"><ele>705.0</ele><time>2026-04-23T11:45:03.538Z</time></trkpt><trkpt lat="46.0222984" lon="11.8405643"><ele>705.0</ele><time>2026-04-23T11:45:07.538Z</time></trkpt><trkpt lat="46.0222689" lon="11.8404607"><ele>705.0</ele><time>2026-04-23T11:45:11.54Z</time></trkpt><trkpt lat="46.0222349" lon="11.8403796"><ele>705.0</ele><time>2026-04-23T11:45:15.539Z</time></trkpt><trkpt lat="46.0221817" lon="11.8402957"><ele>704.9999999999999</ele><time>2026-04-23T11:45:20.54Z</time></trkpt><trkpt lat="46.0221345" lon="11.8402068"><ele>705.0</ele><time>2026-04-23T11:45:24.54Z</time></trkpt><trkpt lat="46.0220934" lon="11.8401162"><ele>707.1428571428571</ele><time>2026-04-23T11:45:29.541Z</time></trkpt><trkpt lat="46.0220595" lon="11.8400075"><ele>709.2857142857142</ele><time>2026-04-23T11:45:33.538Z</time></trkpt><trkpt lat="46.0220366" lon="11.8399149"><ele>711.4285714285713</ele><time>2026-04-23T11:45:37.541Z</time></trkpt><trkpt lat="46.0220273" lon="11.8398177"><ele>713.5714285714286</ele><time>2026-04-23T11:45:41.54Z</time></trkpt><trkpt lat="46.0220255" lon="11.839706"><ele>715.7142857142858</ele><time>2026-04-23T11:45:45.538Z</time></trkpt><trkpt lat="46.022021" lon="11.8396098"><ele>717.8571428571428</ele><time>2026-04-23T11:45:49.539Z</time></trkpt><trkpt lat="46.0220141" lon="11.8395168"><ele>720.0</ele><time>2026-04-23T11:45:53.539Z</time></trkpt><trkpt lat="46.0220141" lon="11.839415"><ele>720.0</ele><time>2026-04-23T11:45:57.541Z</time></trkpt><trkpt lat="46.0220088" lon="11.8393056"><ele>720.0</ele><time>2026-04-23T11:46:01.54Z</time></trkpt><trkpt lat="46.0220243" lon="11.8392166"><ele>720.0</ele><time>2026-04-23T11:46:06.541Z</time></trkpt><trkpt lat="46.0220387" lon="11.8391214"><ele>720.0</ele><time>2026-04-23T11:46:11.54Z</time></trkpt><trkpt lat="46.0220483" lon="11.839024"><ele>720.0</ele><time>2026-04-23T11:46:16.539Z</time></trkpt><trkpt lat="46.0220596" lon="11.8389329"><ele>720.0</ele><time>2026-04-23T11:46:20.538Z</time></trkpt><trkpt lat="46.0221134" lon="11.8388839"><ele>720.0</ele><time>2026-04-23T11:46:25.54Z</time></trkpt><trkpt lat="46.0221496" lon="11.8389713"><ele>720.0</ele><time>2026-04-23T11:46:31.54Z</time></trkpt><trkpt lat="46.0221816" lon="11.8391354"><ele>720.0</ele><time>2026-04-23T11:48:17.539Z</time></trkpt><trkpt lat="46.0222146" lon="11.8392332"><ele>720.0</ele><time>2026-04-23T11:48:22.537Z</time></trkpt><trkpt lat="46.0222495" lon="11.839321"><ele>720.0</ele><time>2026-04-23T11:48:26.537Z</time></trkpt><trkpt lat="46.0222846" lon="11.8394099"><ele>720.0</ele><time>2026-04-23T11:48:30.54Z</time></trkpt><trkpt lat="46.0223512" lon="11.8394517"><ele>720.0</ele><time>2026-04-23T11:48:35.54Z</time></trkpt><trkpt lat="46.0224081" lon="11.8395064"><ele>720.0</ele><time>2026-04-23T11:48:39.539Z</time></trkpt><trkpt lat="46.0224716" lon="11.8395548"><ele>720.0</ele><time>2026-04-23T11:48:43.538Z</time></trkpt><trkpt lat="46.0225292" lon="11.8395997"><ele>720.0</ele><time>2026-04-23T11:48:47.539Z</time></trkpt><trkpt lat="46.0225949" lon="11.8396622"><ele>720.0</ele><time>2026-04-23T11:48:52.539Z</time></trkpt><trkpt lat="46.0226641" lon="11.8397035"><ele>720.0</ele><time>2026-04-23T11:48:56.539Z</time></trkpt><trkpt lat="46.0227248" lon="11.839736"><ele>720.0</ele><time>2026-04-23T11:48:59.537Z</time></trkpt><trkpt lat="46.0227897" lon="11.8397924"><ele>720.0</ele><time>2026-04-23T11:49:03.539Z</time></trkpt><trkpt lat="46.0228564" lon="11.8398398"><ele>724.7142857142857</ele><time>2026-04-23T11:49:07.538Z</time></trkpt><trkpt lat="46.0229205" lon="11.8398882"><ele>729.4285714285714</ele><time>2026-04-23T11:49:11.536Z</time></trkpt><trkpt lat="46.0229724" lon="11.8399543"><ele>734.1428571428571</ele><time>2026-04-23T11:49:15.538Z</time></trkpt><trkpt lat="46.0230238" lon="11.8400318"><ele>738.8571428571429</ele><time>2026-04-23T11:49:19.537Z</time></trkpt><trkpt lat="46.0230615" lon="11.8401115"><ele>743.5714285714287</ele><time>2026-04-23T11:49:23.538Z</time></trkpt><trkpt lat="46.0231017" lon="11.8401864"><ele>748.2857142857143</ele><time>2026-04-23T11:49:27.537Z</time></trkpt><trkpt lat="46.0231465" lon="11.8402721"><ele>753.0</ele><time>2026-04-23T11:49:31.538Z</time></trkpt><trkpt lat="46.0231899" lon="11.8403471"><ele>753.0</ele><time>2026-04-23T11:49:35.539Z</time></trkpt><trkpt lat="46.0232393" lon="11.8404092"><ele>753.0</ele><time>2026-04-23T11:49:39.537Z</time></trkpt><trkpt lat="46.0232808" lon="11.8404919"><ele>753.0</ele><time>2026-04-23T11:49:43.536Z</time></trkpt><trkpt lat="46.023335" lon="11.8405672"><ele>753.0</ele><time>2026-04-23T11:49:49.54Z</time></trkpt><trkpt lat="46.0234034" lon="11.840613"><ele>753.0</ele><time>2026-04-23T11:49:53.539Z</time></trkpt><trkpt lat="46.0234672" lon="11.840665"><ele>753.0</ele><time>2026-04-23T11:49:57.54Z</time></trkpt><trkpt lat="46.0235145" lon="11.8407347"><ele>753.0</ele><time>2026-04-23T11:50:01.538Z</time></trkpt><trkpt lat="46.02356" lon="11.8408159"><ele>756.0</ele><time>2026-04-23T11:50:05.539Z</time></trkpt><trkpt lat="46.0235944" lon="11.8408965"><ele>759.0</ele><time>2026-04-23T11:50:09.538Z</time></trkpt><trkpt lat="46.0236379" lon="11.8409832"><ele>762.0</ele><time>2026-04-23T11:50:14.54Z</time></trkpt><trkpt lat="46.0236939" lon="11.8410266"><ele>765.0</ele><time>2026-04-23T11:50:17.539Z</time></trkpt><trkpt lat="46.0237441" lon="11.841111"><ele>768.0</ele><time>2026-04-23T11:50:22.539Z</time></trkpt><trkpt lat="46.0238046" lon="11.8411622"><ele>771.0</ele><time>2026-04-23T11:50:26.539Z</time></trkpt><trkpt lat="46.0238609" lon="11.8412174"><ele>774.0</ele><time>2026-04-23T11:50:30.539Z</time></trkpt><trkpt lat="46.0239274" lon="11.8412427"><ele>774.0</ele><time>2026-04-23T11:50:34.537Z</time></trkpt><trkpt lat="46.0239943" lon="11.8412917"><ele>774.0</ele><time>2026-04-23T11:50:38.536Z</time></trkpt><trkpt lat="46.0240542" lon="11.8413532"><ele>774.0</ele><time>2026-04-23T11:50:44.536Z</time></trkpt><trkpt lat="46.0241162" lon="11.841401"><ele>774.0</ele><time>2026-04-23T11:50:49.54Z</time></trkpt><trkpt lat="46.0241857" lon="11.8414441"><ele>774.0</ele><time>2026-04-23T11:50:54.537Z</time></trkpt><trkpt lat="46.0242504" lon="11.8415036"><ele>774.0</ele><time>2026-04-23T11:50:59.54Z</time></trkpt><trkpt lat="46.024316" lon="11.8415403"><ele>774.0</ele><time>2026-04-23T11:51:04.539Z</time></trkpt><trkpt lat="46.0243804" lon="11.8415875"><ele>778.8571428571429</ele><time>2026-04-23T11:51:09.537Z</time></trkpt><trkpt lat="46.0244515" lon="11.8416304"><ele>783.7142857142858</ele><time>2026-04-23T11:51:14.539Z</time></trkpt><trkpt lat="46.0245024" lon="11.8416856"><ele>788.5714285714286</ele><time>2026-04-23T11:51:19.536Z</time></trkpt><trkpt lat="46.0245692" lon="11.8416901"><ele>793.4285714285714</ele><time>2026-04-23T11:51:26.536Z</time></trkpt><trkpt lat="46.0245455" lon="11.841591"><ele>798.2857142857142</ele><time>2026-04-23T11:51:33.538Z</time></trkpt><trkpt lat="46.0245246" lon="11.8414895"><ele>803.1428571428571</ele><time>2026-04-23T11:51:38.539Z</time></trkpt><trkpt lat="46.024494" lon="11.8413886"><ele>808.0</ele><time>2026-04-23T11:51:43.537Z</time></trkpt><trkpt lat="46.0244619" lon="11.8412983"><ele>808.0</ele><time>2026-04-23T11:51:48.539Z</time></trkpt><trkpt lat="46.0244299" lon="11.8412083"><ele>808.0</ele><time>2026-04-23T11:51:53.538Z</time></trkpt><trkpt lat="46.0243939" lon="11.8411292"><ele>808.0</ele><time>2026-04-23T11:51:58.535Z</time></trkpt><trkpt lat="46.0243603" lon="11.8410261"><ele>808.0</ele><time>2026-04-23T11:52:04.535Z</time></trkpt><trkpt lat="46.0243368" lon="11.8409285"><ele>808.0</ele><time>2026-04-23T11:52:09.539Z</time></trkpt><trkpt lat="46.0243268" lon="11.8408265"><ele>808.0</ele><time>2026-04-23T11:52:13.539Z</time></trkpt><trkpt lat="46.0243145" lon="11.8407319"><ele>808.0</ele><time>2026-04-23T11:52:17.539Z</time></trkpt><trkpt lat="46.0243004" lon="11.8406392"><ele>812.0</ele><time>2026-04-23T11:52:21.536Z</time></trkpt><trkpt lat="46.0242974" lon="11.8405337"><ele>816.0</ele><time>2026-04-23T11:52:26.541Z</time></trkpt><trkpt lat="46.0242897" lon="11.8404392"><ele>820.0</ele><time>2026-04-23T11:52:30.537Z</time></trkpt><trkpt lat="46.0242866" lon="11.8403298"><ele>824.0</ele><time>2026-04-23T11:52:35.537Z</time></trkpt><trkpt lat="46.0242678" lon="11.8402278"><ele>828.0</ele><time>2026-04-23T11:52:39.538Z</time></trkpt><trkpt lat="46.024257" lon="11.8401272"><ele>832.0</ele><time>2026-04-23T11:52:43.538Z</time></trkpt><trkpt lat="46.0242515" lon="11.8400207"><ele>836.0</ele><time>2026-04-23T11:52:48.539Z</time></trkpt><trkpt lat="46.0242577" lon="11.8399141"><ele>839.7142857142857</ele><time>2026-04-23T11:52:53.539Z</time></trkpt><trkpt lat="46.0242596" lon="11.8398034"><ele>843.4285714285713</ele><time>2026-04-23T11:52:58.538Z</time></trkpt><trkpt lat="46.0242504" lon="11.8397061"><ele>847.1428571428571</ele><time>2026-04-23T11:53:03.54Z</time></trkpt><trkpt lat="46.0242246" lon="11.8396029"><ele>850.8571428571429</ele><time>2026-04-23T11:53:08.539Z</time></trkpt><trkpt lat="46.0242098" lon="11.8395066"><ele>854.5714285714286</ele><time>2026-04-23T11:53:12.539Z</time></trkpt><trkpt lat="46.0241794" lon="11.8394271"><ele>858.2857142857143</ele><time>2026-04-23T11:53:16.538Z</time></trkpt><trkpt lat="46.0241834" lon="11.8393285"><ele>862.0</ele><time>2026-04-23T11:53:21.538Z</time></trkpt><trkpt lat="46.0242416" lon="11.8392688"><ele>862.0</ele><time>2026-04-23T11:53:27.537Z</time></trkpt><trkpt lat="46.0243164" lon="11.8392662"><ele>862.0</ele><time>2026-04-23T11:53:33.538Z</time></trkpt><trkpt lat="46.0243815" lon="11.8393129"><ele>862.0</ele><time>2026-04-23T11:53:38.539Z</time></trkpt><trkpt lat="46.0244365" lon="11.8393577"><ele>862.0</ele><time>2026-04-23T11:53:43.541Z</time></trkpt><trkpt lat="46.0244849" lon="11.8394235"><ele>862.0</ele><time>2026-04-23T11:53:48.54Z</time></trkpt><trkpt lat="46.0245305" lon="11.8394907"><ele>862.0</ele><time>2026-04-23T11:53:53.54Z</time></trkpt><trkpt lat="46.0245967" lon="11.8395486"><ele>862.0</ele><time>2026-04-23T11:53:57.539Z</time></trkpt><trkpt lat="46.0246435" lon="11.8396292"><ele>862.0</ele><time>2026-04-23T11:54:01.541Z</time></trkpt><trkpt lat="46.0246888" lon="11.8397003"><ele>862.0</ele><time>2026-04-23T11:54:05.541Z</time></trkpt><trkpt lat="46.0247317" lon="11.8397925"><ele>862.0</ele><time>2026-04-23T11:54:10.537Z</time></trkpt><trkpt lat="46.0247836" lon="11.8398444"><ele>862.0</ele><time>2026-04-23T11:54:15.537Z</time></trkpt><trkpt lat="46.0248361" lon="11.8399193"><ele>862.0</ele><time>2026-04-23T11:54:20.539Z</time></trkpt><trkpt lat="46.024873" lon="11.8400025"><ele>862.0</ele><time>2026-04-23T11:54:25.538Z</time></trkpt><trkpt lat="46.0249296" lon="11.840071"><ele>862.0</ele><time>2026-04-23T11:54:30.537Z</time></trkpt><trkpt lat="46.0249803" lon="11.8401322"><ele>864.8571428571429</ele><time>2026-04-23T11:54:34.539Z</time></trkpt><trkpt lat="46.0250405" lon="11.8401987"><ele>867.7142857142857</ele><time>2026-04-23T11:54:39.539Z</time></trkpt><trkpt lat="46.0250796" lon="11.8402742"><ele>870.5714285714286</ele><time>2026-04-23T11:54:43.537Z</time></trkpt><trkpt lat="46.0251374" lon="11.8403354"><ele>873.4285714285714</ele><time>2026-04-23T11:54:48.534Z</time></trkpt><trkpt lat="46.0251805" lon="11.840411"><ele>876.2857142857142</ele><time>2026-04-23T11:54:53.537Z</time></trkpt><trkpt lat="46.02524" lon="11.8404609"><ele>879.1428571428571</ele><time>2026-04-23T11:54:58.538Z</time></trkpt><trkpt lat="46.0252976" lon="11.8405165"><ele>882.0</ele><time>2026-04-23T11:55:03.538Z</time></trkpt><trkpt lat="46.0253579" lon="11.8405466"><ele>882.0</ele><time>2026-04-23T11:55:08.537Z</time></trkpt><trkpt lat="46.0254231" lon="11.8405699"><ele>882.0</ele><time>2026-04-23T11:55:13.539Z</time></trkpt><trkpt lat="46.025495" lon="11.8405825"><ele>882.0</ele><time>2026-04-23T11:55:18.538Z</time></trkpt><trkpt lat="46.0255648" lon="11.8406151"><ele>882.0</ele><time>2026-04-23T11:55:23.537Z</time></trkpt><trkpt lat="46.0256388" lon="11.840649"><ele>882.0</ele><time>2026-04-23T11:55:27.537Z</time></trkpt><trkpt lat="46.0256977" lon="11.8406815"><ele>882.0</ele><time>2026-04-23T11:55:31.539Z</time></trkpt><trkpt lat="46.0257565" lon="11.8407289"><ele>882.0</ele><time>2026-04-23T11:55:35.533Z</time></trkpt><trkpt lat="46.0258123" lon="11.8407889"><ele>883.8571428571429</ele><time>2026-04-23T11:55:39.537Z</time></trkpt><trkpt lat="46.0258744" lon="11.8408611"><ele>885.7142857142858</ele><time>2026-04-23T11:55:44.538Z</time></trkpt><trkpt lat="46.0259387" lon="11.8408908"><ele>887.5714285714286</ele><time>2026-04-23T11:55:48.538Z</time></trkpt><trkpt lat="46.0260084" lon="11.8408986"><ele>889.4285714285714</ele><time>2026-04-23T11:55:52.538Z</time></trkpt><trkpt lat="46.0260722" lon="11.8409071"><ele>891.2857142857143</ele><time>2026-04-23T11:55:56.539Z</time></trkpt><trkpt lat="46.0261324" lon="11.8409418"><ele>893.1428571428571</ele><time>2026-04-23T11:56:01.536Z</time></trkpt><trkpt lat="46.0261933" lon="11.8409948"><ele>895.0</ele><time>2026-04-23T11:56:06.539Z</time></trkpt><trkpt lat="46.0262635" lon="11.8409902"><ele>895.0</ele><time>2026-04-23T11:56:11.536Z</time></trkpt><trkpt lat="46.0263266" lon="11.8409802"><ele>895.0</ele><time>2026-04-23T11:56:15.539Z</time></trkpt><trkpt lat="46.0263835" lon="11.8409072"><ele>895.0</ele><time>2026-04-23T11:56:19.538Z</time></trkpt><trkpt lat="46.0263984" lon="11.8408165"><ele>895.0</ele><time>2026-04-23T11:56:23.538Z</time></trkpt><trkpt lat="46.0263904" lon="11.8407042"><ele>895.0</ele><time>2026-04-23T11:56:28.538Z</time></trkpt><trkpt lat="46.0263693" lon="11.8405997"><ele>895.0</ele><time>2026-04-23T11:56:34.538Z</time></trkpt><trkpt lat="46.0264088" lon="11.8405144"><ele>895.0</ele><time>2026-04-23T11:56:40.538Z</time></trkpt><trkpt lat="46.0264792" lon="11.8405311"><ele>898.5714285714286</ele><time>2026-04-23T11:56:45.538Z</time></trkpt><trkpt lat="46.0265412" lon="11.8405501"><ele>902.1428571428571</ele><time>2026-04-23T11:56:49.539Z</time></trkpt><trkpt lat="46.0266077" lon="11.8405811"><ele>905.7142857142857</ele><time>2026-04-23T11:56:54.535Z</time></trkpt><trkpt lat="46.026678" lon="11.8405714"><ele>909.2857142857142</ele><time>2026-04-23T11:56:58.538Z</time></trkpt><trkpt lat="46.026749" lon="11.8405593"><ele>912.8571428571429</ele><time>2026-04-23T11:57:03.536Z</time></trkpt><trkpt lat="46.0268139" lon="11.8405601"><ele>916.4285714285713</ele><time>2026-04-23T11:57:07.539Z</time></trkpt><trkpt lat="46.0268856" lon="11.8405677"><ele>919.9999999999999</ele><time>2026-04-23T11:57:12.539Z</time></trkpt><trkpt lat="46.0269577" lon="11.8405798"><ele>923.7142857142856</ele><time>2026-04-23T11:57:16.537Z</time></trkpt><trkpt lat="46.0270318" lon="11.8406031"><ele>927.4285714285713</ele><time>2026-04-23T11:57:21.536Z</time></trkpt><trkpt lat="46.0270972" lon="11.8406281"><ele>931.1428571428571</ele><time>2026-04-23T11:57:25.538Z</time></trkpt><trkpt lat="46.0271635" lon="11.8406369"><ele>934.8571428571428</ele><time>2026-04-23T11:57:30.538Z</time></trkpt><trkpt lat="46.027237" lon="11.8406648"><ele>938.5714285714284</ele><time>2026-04-23T11:57:37.539Z</time></trkpt><trkpt lat="46.0273025" lon="11.8406937"><ele>942.2857142857143</ele><time>2026-04-23T11:57:42.537Z</time></trkpt><trkpt lat="46.0273648" lon="11.840719"><ele>946.0</ele><time>2026-04-23T11:57:46.539Z</time></trkpt><trkpt lat="46.0274251" lon="11.8407713"><ele>945.5714285714287</ele><time>2026-04-23T11:57:50.539Z</time></trkpt><trkpt lat="46.0274884" lon="11.8408223"><ele>945.1428571428571</ele><time>2026-04-23T11:57:54.539Z</time></trkpt><trkpt lat="46.0275457" lon="11.8408661"><ele>944.7142857142858</ele><time>2026-04-23T11:57:58.536Z</time></trkpt><trkpt lat="46.0276102" lon="11.8409171"><ele>944.2857142857143</ele><time>2026-04-23T11:58:02.536Z</time></trkpt><trkpt lat="46.0276839" lon="11.8409588"><ele>943.8571428571429</ele><time>2026-04-23T11:58:06.537Z</time></trkpt><trkpt lat="46.0277607" lon="11.8409763"><ele>943.4285714285714</ele><time>2026-04-23T11:58:10.54Z</time></trkpt><trkpt lat="46.0278327" lon="11.8409912"><ele>943.0</ele><time>2026-04-23T11:58:14.538Z</time></trkpt><trkpt lat="46.0279031" lon="11.8410138"><ele>943.0</ele><time>2026-04-23T11:58:20.538Z</time></trkpt><trkpt lat="46.0279757" lon="11.8410322"><ele>943.0000000000001</ele><time>2026-04-23T11:58:24.538Z</time></trkpt><trkpt lat="46.0280494" lon="11.8410655"><ele>943.0</ele><time>2026-04-23T11:58:28.539Z</time></trkpt><trkpt lat="46.028123" lon="11.8410923"><ele>943.0</ele><time>2026-04-23T11:58:32.537Z</time></trkpt><trkpt lat="46.0281926" lon="11.8410966"><ele>943.0000000000001</ele><time>2026-04-23T11:58:36.536Z</time></trkpt><trkpt lat="46.0282597" lon="11.8411242"><ele>943.0</ele><time>2026-04-23T11:58:40.539Z</time></trkpt><trkpt lat="46.0283339" lon="11.8411266"><ele>943.0</ele><time>2026-04-23T11:58:44.535Z</time></trkpt><trkpt lat="46.0284019" lon="11.8411511"><ele>945.1428571428572</ele><time>2026-04-23T11:58:48.539Z</time></trkpt><trkpt lat="46.0284756" lon="11.8411708"><ele>947.2857142857144</ele><time>2026-04-23T11:58:52.537Z</time></trkpt><trkpt lat="46.0285495" lon="11.841202"><ele>949.4285714285714</ele><time>2026-04-23T11:58:56.538Z</time></trkpt><trkpt lat="46.0286089" lon="11.841233"><ele>951.5714285714287</ele><time>2026-04-23T11:58:59.536Z</time></trkpt><trkpt lat="46.0286735" lon="11.8412594"><ele>953.7142857142858</ele><time>2026-04-23T11:59:04.537Z</time></trkpt><trkpt lat="46.028742" lon="11.8412759"><ele>955.8571428571429</ele><time>2026-04-23T11:59:08.539Z</time></trkpt><trkpt lat="46.0288209" lon="11.8412868"><ele>958.0</ele><time>2026-04-23T11:59:12.537Z</time></trkpt><trkpt lat="46.028885" lon="11.8412751"><ele>958.0</ele><time>2026-04-23T11:59:15.537Z</time></trkpt><trkpt lat="46.0289544" lon="11.8412773"><ele>958.0</ele><time>2026-04-23T11:59:19.539Z</time></trkpt><trkpt lat="46.0290216" lon="11.8412646"><ele>958.0</ele><time>2026-04-23T11:59:24.538Z</time></trkpt><trkpt lat="46.0290912" lon="11.8412347"><ele>958.0</ele><time>2026-04-23T11:59:28.539Z</time></trkpt><trkpt lat="46.0291578" lon="11.8412316"><ele>958.0</ele><time>2026-04-23T11:59:32.538Z</time></trkpt><trkpt lat="46.0292262" lon="11.8413051"><ele>958.0</ele><time>2026-04-23T11:59:36.539Z</time></trkpt><trkpt lat="46.0292774" lon="11.8413851"><ele>958.0</ele><time>2026-04-23T11:59:40.537Z</time></trkpt><trkpt lat="46.0293233" lon="11.8414655"><ele>957.4285714285713</ele><time>2026-04-23T11:59:44.539Z</time></trkpt><trkpt lat="46.0293666" lon="11.841534"><ele>956.8571428571429</ele><time>2026-04-23T11:59:48.538Z</time></trkpt><trkpt lat="46.0294336" lon="11.8415922"><ele>956.2857142857142</ele><time>2026-04-23T11:59:52.537Z</time></trkpt><trkpt lat="46.0295079" lon="11.8416205"><ele>955.7142857142857</ele><time>2026-04-23T11:59:56.537Z</time></trkpt><trkpt lat="46.0295653" lon="11.8416755"><ele>955.1428571428571</ele><time>2026-04-23T12:00:00.538Z</time></trkpt><trkpt lat="46.0296002" lon="11.8417679"><ele>954.5714285714286</ele><time>2026-04-23T12:00:04.539Z</time></trkpt><trkpt lat="46.0296508" lon="11.8418566"><ele>954.0</ele><time>2026-04-23T12:00:10.536Z</time></trkpt><trkpt lat="46.0297104" lon="11.8419089"><ele>954.0</ele><time>2026-04-23T12:00:15.537Z</time></trkpt><trkpt lat="46.0297778" lon="11.8419637"><ele>953.9999999999999</ele><time>2026-04-23T12:00:20.539Z</time></trkpt><trkpt lat="46.0298401" lon="11.8420061"><ele>954.0</ele><time>2026-04-23T12:00:24.537Z</time></trkpt><trkpt lat="46.0298965" lon="11.8420544"><ele>954.0</ele><time>2026-04-23T12:00:28.539Z</time></trkpt><trkpt lat="46.0299577" lon="11.8420931"><ele>953.9999999999999</ele><time>2026-04-23T12:00:32.539Z</time></trkpt><trkpt lat="46.030009" lon="11.8421503"><ele>954.0</ele><time>2026-04-23T12:00:36.538Z</time></trkpt><trkpt lat="46.0300761" lon="11.8421936"><ele>954.0</ele><time>2026-04-23T12:00:41.539Z</time></trkpt><trkpt lat="46.0301432" lon="11.8422327"><ele>959.0</ele><time>2026-04-23T12:00:45.539Z</time></trkpt><trkpt lat="46.0302181" lon="11.8422746"><ele>963.9999999999999</ele><time>2026-04-23T12:00:49.538Z</time></trkpt><trkpt lat="46.0302996" lon="11.8423015"><ele>969.0</ele><time>2026-04-23T12:00:53.537Z</time></trkpt><trkpt lat="46.0303651" lon="11.8423149"><ele>974.0</ele><time>2026-04-23T12:00:57.537Z</time></trkpt><trkpt lat="46.0304352" lon="11.842322"><ele>978.9999999999999</ele><time>2026-04-23T12:01:01.539Z</time></trkpt><trkpt lat="46.0304982" lon="11.8423182"><ele>984.0</ele><time>2026-04-23T12:01:05.538Z</time></trkpt><trkpt lat="46.0305723" lon="11.8423216"><ele>989.0</ele><time>2026-04-23T12:01:10.536Z</time></trkpt><trkpt lat="46.030642" lon="11.8423286"><ele>989.0</ele><time>2026-04-23T12:01:14.539Z</time></trkpt><trkpt lat="46.030713" lon="11.8423225"><ele>988.9999999999999</ele><time>2026-04-23T12:01:18.538Z</time></trkpt><trkpt lat="46.0307812" lon="11.8423163"><ele>989.0</ele><time>2026-04-23T12:01:22.537Z</time></trkpt><trkpt lat="46.0308334" lon="11.8422355"><ele>989.0</ele><time>2026-04-23T12:01:26.538Z</time></trkpt><trkpt lat="46.030827" lon="11.8421369"><ele>988.9999999999999</ele><time>2026-04-23T12:01:31.536Z</time></trkpt><trkpt lat="46.0307657" lon="11.8421033"><ele>989.0</ele><time>2026-04-23T12:01:35.539Z</time></trkpt><trkpt lat="46.0307101" lon="11.8420576"><ele>989.0</ele><time>2026-04-23T12:01:39.537Z</time></trkpt><trkpt lat="46.0306492" lon="11.8420137"><ele>989.0</ele><time>2026-04-23T12:01:43.538Z</time></trkpt><trkpt lat="46.0305909" lon="11.8419722"><ele>988.9999999999999</ele><time>2026-04-23T12:01:47.537Z</time></trkpt><trkpt lat="46.0305372" lon="11.8419238"><ele>989.0</ele><time>2026-04-23T12:01:51.54Z</time></trkpt><trkpt lat="46.0304762" lon="11.8418625"><ele>989.0</ele><time>2026-04-23T12:01:56.539Z</time></trkpt><trkpt lat="46.0304206" lon="11.8418175"><ele>988.9999999999999</ele><time>2026-04-23T12:02:00.539Z</time></trkpt><trkpt lat="46.0303721" lon="11.841754"><ele>989.0</ele><time>2026-04-23T12:02:04.541Z</time></trkpt><trkpt lat="46.0303257" lon="11.8416927"><ele>989.0</ele><time>2026-04-23T12:02:08.541Z</time></trkpt><trkpt lat="46.0302807" lon="11.8416259"><ele>991.5714285714286</ele><time>2026-04-23T12:02:12.539Z</time></trkpt><trkpt lat="46.0302329" lon="11.8415342"><ele>994.1428571428571</ele><time>2026-04-23T12:02:17.538Z</time></trkpt><trkpt lat="46.0302007" lon="11.8414445"><ele>996.7142857142857</ele><time>2026-04-23T12:02:22.537Z</time></trkpt><trkpt lat="46.0301853" lon="11.8413549"><ele>999.2857142857142</ele><time>2026-04-23T12:02:26.538Z</time></trkpt><trkpt lat="46.0301768" lon="11.8412565"><ele>1001.8571428571429</ele><time>2026-04-23T12:02:30.538Z</time></trkpt><trkpt lat="46.0301762" lon="11.8411613"><ele>1004.4285714285713</ele><time>2026-04-23T12:02:34.54Z</time></trkpt><trkpt lat="46.0301836" lon="11.8410697"><ele>1007.0</ele><time>2026-04-23T12:02:38.541Z</time></trkpt><trkpt lat="46.0301789" lon="11.8409733"><ele>1007.8571428571429</ele><time>2026-04-23T12:03:13.538Z</time></trkpt><trkpt lat="46.0301463" lon="11.840894"><ele>1008.7142857142858</ele><time>2026-04-23T12:03:17.54Z</time></trkpt><trkpt lat="46.0300987" lon="11.8408131"><ele>1009.5714285714287</ele><time>2026-04-23T12:03:21.537Z</time></trkpt><trkpt lat="46.0300478" lon="11.8407505"><ele>1010.4285714285714</ele><time>2026-04-23T12:03:25.537Z</time></trkpt><trkpt lat="46.0299904" lon="11.8406866"><ele>1011.2857142857144</ele><time>2026-04-23T12:03:29.54Z</time></trkpt><trkpt lat="46.0299342" lon="11.8406287"><ele>1012.1428571428572</ele><time>2026-04-23T12:03:33.539Z</time></trkpt><trkpt lat="46.0298847" lon="11.840552"><ele>1013.0</ele><time>2026-04-23T12:03:38.538Z</time></trkpt><trkpt lat="46.0298422" lon="11.8404208"><ele>1013.0</ele><time>2026-04-23T12:05:49.536Z</time></trkpt><trkpt lat="46.0298106" lon="11.8403269"><ele>1013.0000000000001</ele><time>2026-04-23T12:05:54.537Z</time></trkpt><trkpt lat="46.0297734" lon="11.8402373"><ele>1013.0</ele><time>2026-04-23T12:05:58.537Z</time></trkpt><trkpt lat="46.0297307" lon="11.8401343"><ele>1013.0</ele><time>2026-04-23T12:06:02.537Z</time></trkpt><trkpt lat="46.0296671" lon="11.8400779"><ele>1013.0000000000001</ele><time>2026-04-23T12:06:05.535Z</time></trkpt><trkpt lat="46.0295958" lon="11.8400555"><ele>1013.0</ele><time>2026-04-23T12:06:09.534Z</time></trkpt><trkpt lat="46.0295303" lon="11.8400316"><ele>1013.0</ele><time>2026-04-23T12:06:12.535Z</time></trkpt><trkpt lat="46.0294489" lon="11.8400054"><ele>1015.2857142857143</ele><time>2026-04-23T12:06:16.538Z</time></trkpt><trkpt lat="46.0293666" lon="11.8399721"><ele>1017.5714285714287</ele><time>2026-04-23T12:06:20.539Z</time></trkpt><trkpt lat="46.0293026" lon="11.8399636"><ele>1019.8571428571429</ele><time>2026-04-23T12:06:23.537Z</time></trkpt><trkpt lat="46.0292368" lon="11.8399459"><ele>1022.1428571428571</ele><time>2026-04-23T12:06:27.537Z</time></trkpt><trkpt lat="46.0291645" lon="11.8399112"><ele>1024.4285714285716</ele><time>2026-04-23T12:06:31.537Z</time></trkpt><trkpt lat="46.0291007" lon="11.8398783"><ele>1026.7142857142858</ele><time>2026-04-23T12:06:35.536Z</time></trkpt><trkpt lat="46.0290388" lon="11.839835"><ele>1029.0</ele><time>2026-04-23T12:06:39.538Z</time></trkpt><trkpt lat="46.0289629" lon="11.8397976"><ele>1029.0</ele><time>2026-04-23T12:06:43.539Z</time></trkpt><trkpt lat="46.028894" lon="11.8397663"><ele>1029.0</ele><time>2026-04-23T12:06:47.536Z</time></trkpt><trkpt lat="46.0288148" lon="11.8397391"><ele>1029.0</ele><time>2026-04-23T12:06:51.536Z</time></trkpt><trkpt lat="46.0287408" lon="11.8397269"><ele>1029.0</ele><time>2026-04-23T12:06:55.539Z</time></trkpt><trkpt lat="46.0286686" lon="11.8397157"><ele>1029.0</ele><time>2026-04-23T12:06:59.536Z</time></trkpt><trkpt lat="46.0286036" lon="11.8397038"><ele>1029.0</ele><time>2026-04-23T12:07:03.537Z</time></trkpt><trkpt lat="46.02854" lon="11.8396781"><ele>1029.0</ele><time>2026-04-23T12:07:06.535Z</time></trkpt><trkpt lat="46.0284569" lon="11.8396221"><ele>1029.0</ele><time>2026-04-23T12:07:09.538Z</time></trkpt><trkpt lat="46.0284022" lon="11.8395632"><ele>1029.0</ele><time>2026-04-23T12:07:11.54Z</time></trkpt><trkpt lat="46.0283528" lon="11.8394804"><ele>1029.0</ele><time>2026-04-23T12:07:14.539Z</time></trkpt><trkpt lat="46.0283082" lon="11.8393925"><ele>1029.0</ele><time>2026-04-23T12:07:18.538Z</time></trkpt><trkpt lat="46.0282613" lon="11.8393266"><ele>1029.0</ele><time>2026-04-23T12:07:21.539Z</time></trkpt><trkpt lat="46.0282043" lon="11.8392394"><ele>1029.0</ele><time>2026-04-23T12:07:25.54Z</time></trkpt><trkpt lat="46.0281524" lon="11.8391771"><ele>1029.0</ele><time>2026-04-23T12:07:28.539Z</time></trkpt><trkpt lat="46.0280959" lon="11.8390878"><ele>1029.5714285714287</ele><time>2026-04-23T12:07:32.541Z</time></trkpt><trkpt lat="46.0280629" lon="11.8389844"><ele>1030.142857142857</ele><time>2026-04-23T12:07:36.538Z</time></trkpt><trkpt lat="46.0280202" lon="11.8389056"><ele>1030.7142857142858</ele><time>2026-04-23T12:07:39.54Z</time></trkpt><trkpt lat="46.0279744" lon="11.8388401"><ele>1031.2857142857142</ele><time>2026-04-23T12:07:42.54Z</time></trkpt><trkpt lat="46.0279142" lon="11.8387886"><ele>1031.857142857143</ele><time>2026-04-23T12:07:45.537Z</time></trkpt><trkpt lat="46.0278445" lon="11.838736"><ele>1032.4285714285716</ele><time>2026-04-23T12:07:48.539Z</time></trkpt><trkpt lat="46.0277883" lon="11.838692"><ele>1033.0</ele><time>2026-04-23T12:07:51.539Z</time></trkpt><trkpt lat="46.0277284" lon="11.8386551"><ele>1033.0000000000002</ele><time>2026-04-23T12:07:54.539Z</time></trkpt><trkpt lat="46.0276649" lon="11.8385857"><ele>1033.0</ele><time>2026-04-23T12:07:58.539Z</time></trkpt><trkpt lat="46.0275999" lon="11.8385173"><ele>1033.0</ele><time>2026-04-23T12:08:02.538Z</time></trkpt><trkpt lat="46.0275479" lon="11.838462"><ele>1033.0</ele><time>2026-04-23T12:08:06.539Z</time></trkpt><trkpt lat="46.027492" lon="11.8384046"><ele>1033.0</ele><time>2026-04-23T12:08:10.539Z</time></trkpt><trkpt lat="46.0274314" lon="11.8383486"><ele>1033.0000000000002</ele><time>2026-04-23T12:08:14.538Z</time></trkpt><trkpt lat="46.0273795" lon="11.8382727"><ele>1033.0</ele><time>2026-04-23T12:08:20.54Z</time></trkpt><trkpt lat="46.0274441" lon="11.8382464"><ele>1038.6666666666665</ele><time>2026-04-23T12:08:26.54Z</time></trkpt><trkpt lat="46.027509" lon="11.8382232"><ele>1044.3333333333333</ele><time>2026-04-23T12:08:31.537Z</time></trkpt><trkpt lat="46.0275694" lon="11.8382517"><ele>1050.0</ele><time>2026-04-23T12:08:35.538Z</time></trkpt><trkpt lat="46.0276405" lon="11.8382538"><ele>1055.6666666666667</ele><time>2026-04-23T12:08:40.539Z</time></trkpt><trkpt lat="46.0276427" lon="11.8381555"><ele>1061.3333333333335</ele><time>2026-04-23T12:08:46.538Z</time></trkpt><trkpt lat="46.0276438" lon="11.8380171"><ele>1067.0</ele><time>2026-04-23T12:09:20.539Z</time></trkpt><trkpt lat="46.0277458" lon="11.837994"><ele>1067.0</ele><time>2026-04-23T12:09:46.536Z</time></trkpt><trkpt lat="46.0278586" lon="11.8380316"><ele>1067.0</ele><time>2026-04-23T12:10:04.539Z</time></trkpt><trkpt lat="46.0279556" lon="11.8380275"><ele>1067.0</ele><time>2026-04-23T12:11:03.539Z</time></trkpt><trkpt lat="46.0280283" lon="11.8380284"><ele>1067.0</ele><time>2026-04-23T12:11:08.539Z</time></trkpt><trkpt lat="46.0280918" lon="11.8379992"><ele>1067.0</ele><time>2026-04-23T12:11:12.54Z</time></trkpt><trkpt lat="46.0281652" lon="11.8379988"><ele>1067.0</ele><time>2026-04-23T12:11:18.537Z</time></trkpt><trkpt lat="46.0282338" lon="11.8379943"><ele>1066.9999999999998</ele><time>2026-04-23T12:11:22.537Z</time></trkpt><trkpt lat="46.0283039" lon="11.8380089"><ele>1067.0</ele><time>2026-04-23T12:11:26.537Z</time></trkpt><trkpt lat="46.0283724" lon="11.8380179"><ele>1067.0</ele><time>2026-04-23T12:11:30.539Z</time></trkpt><trkpt lat="46.0284405" lon="11.8380551"><ele>1067.0</ele><time>2026-04-23T12:11:34.538Z</time></trkpt><trkpt lat="46.0285055" lon="11.8380553"><ele>1067.0</ele><time>2026-04-23T12:11:38.538Z</time></trkpt><trkpt lat="46.0285697" lon="11.8380559"><ele>1066.9999999999998</ele><time>2026-04-23T12:11:42.539Z</time></trkpt><trkpt lat="46.0286425" lon="11.83804"><ele>1067.0</ele><time>2026-04-23T12:11:46.538Z</time></trkpt><trkpt lat="46.028711" lon="11.8380508"><ele>1070.7142857142856</ele><time>2026-04-23T12:11:51.536Z</time></trkpt><trkpt lat="46.0287801" lon="11.8380651"><ele>1074.4285714285713</ele><time>2026-04-23T12:11:55.538Z</time></trkpt><trkpt lat="46.0288572" lon="11.8380518"><ele>1078.142857142857</ele><time>2026-04-23T12:11:59.538Z</time></trkpt><trkpt lat="46.0289273" lon="11.8380496"><ele>1081.8571428571427</ele><time>2026-04-23T12:12:02.539Z</time></trkpt><trkpt lat="46.0289998" lon="11.838063"><ele>1085.5714285714284</ele><time>2026-04-23T12:12:06.537Z</time></trkpt><trkpt lat="46.0290591" lon="11.8381114"><ele>1089.2857142857142</ele><time>2026-04-23T12:12:09.539Z</time></trkpt><trkpt lat="46.029122" lon="11.8381493"><ele>1093.0</ele><time>2026-04-23T12:12:12.539Z</time></trkpt><trkpt lat="46.0291895" lon="11.8381744"><ele>1095.857142857143</ele><time>2026-04-23T12:12:15.54Z</time></trkpt><trkpt lat="46.029258" lon="11.8381925"><ele>1098.7142857142858</ele><time>2026-04-23T12:12:18.539Z</time></trkpt><trkpt lat="46.02933" lon="11.8381949"><ele>1101.5714285714284</ele><time>2026-04-23T12:12:21.537Z</time></trkpt><trkpt lat="46.029397" lon="11.8381908"><ele>1104.4285714285716</ele><time>2026-04-23T12:12:25.54Z</time></trkpt><trkpt lat="46.0294734" lon="11.8382171"><ele>1107.2857142857142</ele><time>2026-04-23T12:12:29.537Z</time></trkpt><trkpt lat="46.0295455" lon="11.8382554"><ele>1110.142857142857</ele><time>2026-04-23T12:12:33.539Z</time></trkpt><trkpt lat="46.0296089" lon="11.8382808"><ele>1113.0</ele><time>2026-04-23T12:12:36.538Z</time></trkpt><trkpt lat="46.0296713" lon="11.8383073"><ele>1113.0</ele><time>2026-04-23T12:12:39.539Z</time></trkpt><trkpt lat="46.0297369" lon="11.8383352"><ele>1113.0</ele><time>2026-04-23T12:12:42.539Z</time></trkpt><trkpt lat="46.0298022" lon="11.8383518"><ele>1113.0</ele><time>2026-04-23T12:12:46.538Z</time></trkpt><trkpt lat="46.0298686" lon="11.8383658"><ele>1113.0</ele><time>2026-04-23T12:12:49.54Z</time></trkpt><trkpt lat="46.0299453" lon="11.8383805"><ele>1113.0</ele><time>2026-04-23T12:12:53.538Z</time></trkpt><trkpt lat="46.0300179" lon="11.8383907"><ele>1113.0</ele><time>2026-04-23T12:12:57.541Z</time></trkpt><trkpt lat="46.0300921" lon="11.8383808"><ele>1113.0</ele><time>2026-04-23T12:13:02.54Z</time></trkpt><trkpt lat="46.030156" lon="11.8383555"><ele>1114.5714285714287</ele><time>2026-04-23T12:13:06.538Z</time></trkpt><trkpt lat="46.030232" lon="11.8383692"><ele>1116.142857142857</ele><time>2026-04-23T12:13:11.538Z</time></trkpt><trkpt lat="46.0303046" lon="11.83839"><ele>1117.7142857142858</ele><time>2026-04-23T12:13:16.539Z</time></trkpt><trkpt lat="46.0303716" lon="11.8384168"><ele>1119.2857142857142</ele><time>2026-04-23T12:13:22.539Z</time></trkpt><trkpt lat="46.0304449" lon="11.8384372"><ele>1120.857142857143</ele><time>2026-04-23T12:13:26.538Z</time></trkpt><trkpt lat="46.0305035" lon="11.8384741"><ele>1122.4285714285716</ele><time>2026-04-23T12:13:31.54Z</time></trkpt><trkpt lat="46.0305656" lon="11.8385105"><ele>1124.0</ele><time>2026-04-23T12:13:37.539Z</time></trkpt><trkpt lat="46.0306269" lon="11.838546"><ele>1123.4285714285716</ele><time>2026-04-23T12:13:41.538Z</time></trkpt><trkpt lat="46.030691" lon="11.8385683"><ele>1122.857142857143</ele><time>2026-04-23T12:13:45.539Z</time></trkpt><trkpt lat="46.03075" lon="11.8386166"><ele>1122.2857142857142</ele><time>2026-04-23T12:13:50.538Z</time></trkpt><trkpt lat="46.0308044" lon="11.8386971"><ele>1121.7142857142858</ele><time>2026-04-23T12:13:55.538Z</time></trkpt><trkpt lat="46.0308561" lon="11.8387574"><ele>1121.142857142857</ele><time>2026-04-23T12:13:59.537Z</time></trkpt><trkpt lat="46.0309103" lon="11.8388223"><ele>1120.5714285714287</ele><time>2026-04-23T12:14:03.537Z</time></trkpt><trkpt lat="46.0309677" lon="11.8388621"><ele>1120.0</ele><time>2026-04-23T12:14:07.539Z</time></trkpt><trkpt lat="46.0310391" lon="11.8389345"><ele>1120.0</ele><time>2026-04-23T12:15:29.539Z</time></trkpt><trkpt lat="46.0310917" lon="11.8390083"><ele>1120.0</ele><time>2026-04-23T12:15:31.539Z</time></trkpt><trkpt lat="46.0311698" lon="11.8390811"><ele>1120.0</ele><time>2026-04-23T12:15:34.538Z</time></trkpt><trkpt lat="46.0312222" lon="11.8391376"><ele>1120.0</ele><time>2026-04-23T12:15:36.537Z</time></trkpt><trkpt lat="46.0312779" lon="11.8391972"><ele>1120.0</ele><time>2026-04-23T12:15:38.538Z</time></trkpt><trkpt lat="46.0313297" lon="11.8392526"><ele>1120.0</ele><time>2026-04-23T12:15:40.538Z</time></trkpt><trkpt lat="46.0313921" lon="11.8393254"><ele>1120.0</ele><time>2026-04-23T12:15:43.537Z</time></trkpt><trkpt lat="46.0314599" lon="11.8394023"><ele>1118.3333333333333</ele><time>2026-04-23T12:15:46.539Z</time></trkpt><trkpt lat="46.0315474" lon="11.8394528"><ele>1116.6666666666665</ele><time>2026-04-23T12:15:49.54Z</time></trkpt><trkpt lat="46.0316291" lon="11.8394994"><ele>1115.0</ele><time>2026-04-23T12:15:52.541Z</time></trkpt><trkpt lat="46.0317073" lon="11.8395662"><ele>1113.3333333333333</ele><time>2026-04-23T12:15:55.537Z</time></trkpt><trkpt lat="46.0317756" lon="11.8396066"><ele>1111.6666666666667</ele><time>2026-04-23T12:15:57.538Z</time></trkpt><trkpt lat="46.0318466" lon="11.8396375"><ele>1110.0</ele><time>2026-04-23T12:15:59.539Z</time></trkpt><trkpt lat="46.0319271" lon="11.8396732"><ele>1110.0</ele><time>2026-04-23T12:16:01.539Z</time></trkpt><trkpt lat="46.0320049" lon="11.8397318"><ele>1110.0</ele><time>2026-04-23T12:16:03.537Z</time></trkpt><trkpt lat="46.0320872" lon="11.8397902"><ele>1110.0</ele><time>2026-04-23T12:16:05.54Z</time></trkpt><trkpt lat="46.0321798" lon="11.8398416"><ele>1110.0</ele><time>2026-04-23T12:16:07.538Z</time></trkpt><trkpt lat="46.032259" lon="11.8399157"><ele>1110.0</ele><time>2026-04-23T12:16:09.539Z</time></trkpt><trkpt lat="46.0323349" lon="11.8400083"><ele>1110.0</ele><time>2026-04-23T12:16:11.539Z</time></trkpt><trkpt lat="46.0324037" lon="11.8400975"><ele>1110.0</ele><time>2026-04-23T12:16:13.537Z</time></trkpt><trkpt lat="46.0324639" lon="11.8401821"><ele>1110.0</ele><time>2026-04-23T12:16:15.536Z</time></trkpt><trkpt lat="46.0325183" lon="11.8402668"><ele>1110.0</ele><time>2026-04-23T12:16:17.538Z</time></trkpt><trkpt lat="46.0325721" lon="11.840344"><ele>1110.0</ele><time>2026-04-23T12:16:19.54Z</time></trkpt><trkpt lat="46.0326276" lon="11.8404188"><ele>1110.0</ele><time>2026-04-23T12:16:21.54Z</time></trkpt><trkpt lat="46.0326789" lon="11.8404855"><ele>1108.0000000000002</ele><time>2026-04-23T12:16:23.539Z</time></trkpt><trkpt lat="46.0327394" lon="11.8405351"><ele>1106.0</ele><time>2026-04-23T12:16:25.54Z</time></trkpt><trkpt lat="46.0328071" lon="11.8405791"><ele>1104.0</ele><time>2026-04-23T12:16:27.536Z</time></trkpt><trkpt lat="46.032879" lon="11.8406333"><ele>1102.0</ele><time>2026-04-23T12:16:29.538Z</time></trkpt><trkpt lat="46.0329428" lon="11.8406935"><ele>1100.0</ele><time>2026-04-23T12:16:31.538Z</time></trkpt><trkpt lat="46.0329951" lon="11.8407465"><ele>1098.0000000000002</ele><time>2026-04-23T12:16:33.539Z</time></trkpt><trkpt lat="46.0330675" lon="11.8407981"><ele>1096.0</ele><time>2026-04-23T12:16:36.542Z</time></trkpt><trkpt lat="46.0331258" lon="11.8408443"><ele>1096.0</ele><time>2026-04-23T12:16:38.538Z</time></trkpt><trkpt lat="46.0332029" lon="11.8408735"><ele>1096.0</ele><time>2026-04-23T12:16:41.54Z</time></trkpt><trkpt lat="46.0332864" lon="11.840899"><ele>1096.0</ele><time>2026-04-23T12:16:44.54Z</time></trkpt><trkpt lat="46.0333547" lon="11.8409178"><ele>1096.0</ele><time>2026-04-23T12:16:47.538Z</time></trkpt><trkpt lat="46.0334474" lon="11.840951"><ele>1096.0</ele><time>2026-04-23T12:16:55.535Z</time></trkpt><trkpt lat="46.0335113" lon="11.8409632"><ele>1096.0</ele><time>2026-04-23T12:16:59.54Z</time></trkpt><trkpt lat="46.0335824" lon="11.8410255"><ele>1097.3333333333333</ele><time>2026-04-23T12:17:02.536Z</time></trkpt><trkpt lat="46.0336641" lon="11.8410902"><ele>1098.6666666666665</ele><time>2026-04-23T12:17:05.54Z</time></trkpt><trkpt lat="46.0337341" lon="11.8411504"><ele>1100.0</ele><time>2026-04-23T12:17:08.541Z</time></trkpt><trkpt lat="46.0338118" lon="11.8411761"><ele>1101.3333333333333</ele><time>2026-04-23T12:17:11.538Z</time></trkpt><trkpt lat="46.0339027" lon="11.8411154"><ele>1102.6666666666667</ele><time>2026-04-23T12:17:15.537Z</time></trkpt><trkpt lat="46.0339637" lon="11.8410293"><ele>1104.0</ele><time>2026-04-23T12:17:17.538Z</time></trkpt><trkpt lat="46.0339964" lon="11.8409424"><ele>1104.0</ele><time>2026-04-23T12:17:19.54Z</time></trkpt><trkpt lat="46.0340444" lon="11.8408341"><ele>1104.0</ele><time>2026-04-23T12:17:22.537Z</time></trkpt><trkpt lat="46.0340812" lon="11.8407242"><ele>1104.0</ele><time>2026-04-23T12:17:25.54Z</time></trkpt><trkpt lat="46.0341085" lon="11.840642"><ele>1104.0</ele><time>2026-04-23T12:17:27.539Z</time></trkpt><trkpt lat="46.034133" lon="11.840532"><ele>1104.0</ele><time>2026-04-23T12:17:30.536Z</time></trkpt><trkpt lat="46.0341751" lon="11.8404588"><ele>1104.0</ele><time>2026-04-23T12:17:32.539Z</time></trkpt><trkpt lat="46.0342361" lon="11.8404223"><ele>1104.0</ele><time>2026-04-23T12:17:34.535Z</time></trkpt><trkpt lat="46.0343117" lon="11.8404693"><ele>1104.5</ele><time>2026-04-23T12:17:37.539Z</time></trkpt><trkpt lat="46.0343732" lon="11.8405405"><ele>1105.0</ele><time>2026-04-23T12:17:40.538Z</time></trkpt><trkpt lat="46.0344317" lon="11.8406129"><ele>1105.5</ele><time>2026-04-23T12:17:44.539Z</time></trkpt><trkpt lat="46.0345171" lon="11.8406523"><ele>1106.0</ele><time>2026-04-23T12:17:47.539Z</time></trkpt><trkpt lat="46.034584" lon="11.8406336"><ele>1106.5</ele><time>2026-04-23T12:17:49.539Z</time></trkpt><trkpt lat="46.0346486" lon="11.8405934"><ele>1107.0</ele><time>2026-04-23T12:17:51.538Z</time></trkpt><trkpt lat="46.0347268" lon="11.8405566"><ele>1107.0</ele><time>2026-04-23T12:17:54.54Z</time></trkpt><trkpt lat="46.0347965" lon="11.8405031"><ele>1107.0</ele><time>2026-04-23T12:17:57.541Z</time></trkpt><trkpt lat="46.0348525" lon="11.8404539"><ele>1107.0</ele><time>2026-04-23T12:18:00.537Z</time></trkpt><trkpt lat="46.0349084" lon="11.8404"><ele>1107.0</ele><time>2026-04-23T12:18:03.536Z</time></trkpt><trkpt lat="46.034977" lon="11.8403633"><ele>1107.0</ele><time>2026-04-23T12:18:06.537Z</time></trkpt><trkpt lat="46.035048" lon="11.8403189"><ele>1107.0</ele><time>2026-04-23T12:18:09.537Z</time></trkpt><trkpt lat="46.0351105" lon="11.8402877"><ele>1107.0</ele><time>2026-04-23T12:18:12.539Z</time></trkpt><trkpt lat="46.0351752" lon="11.8402457"><ele>1105.7142857142858</ele><time>2026-04-23T12:18:15.539Z</time></trkpt><trkpt lat="46.0352333" lon="11.8402084"><ele>1104.4285714285713</ele><time>2026-04-23T12:18:18.538Z</time></trkpt><trkpt lat="46.0353117" lon="11.8401693"><ele>1103.142857142857</ele><time>2026-04-23T12:18:22.539Z</time></trkpt><trkpt lat="46.035373" lon="11.8401182"><ele>1101.857142857143</ele><time>2026-04-23T12:18:25.541Z</time></trkpt><trkpt lat="46.0354344" lon="11.8400773"><ele>1100.5714285714287</ele><time>2026-04-23T12:18:28.539Z</time></trkpt><trkpt lat="46.0355123" lon="11.8400271"><ele>1099.2857142857142</ele><time>2026-04-23T12:18:32.538Z</time></trkpt><trkpt lat="46.0355825" lon="11.8399869"><ele>1098.0</ele><time>2026-04-23T12:18:36.538Z</time></trkpt><trkpt lat="46.0356454" lon="11.8399603"><ele>1101.2857142857142</ele><time>2026-04-23T12:18:40.539Z</time></trkpt><trkpt lat="46.035708" lon="11.8399167"><ele>1104.5714285714287</ele><time>2026-04-23T12:18:44.54Z</time></trkpt><trkpt lat="46.0357723" lon="11.839864"><ele>1107.857142857143</ele><time>2026-04-23T12:18:47.538Z</time></trkpt><trkpt lat="46.0358379" lon="11.8397869"><ele>1111.142857142857</ele><time>2026-04-23T12:18:50.538Z</time></trkpt><trkpt lat="46.0359" lon="11.8397179"><ele>1114.4285714285713</ele><time>2026-04-23T12:18:53.538Z</time></trkpt><trkpt lat="46.0359643" lon="11.8396705"><ele>1117.7142857142858</ele><time>2026-04-23T12:18:56.537Z</time></trkpt><trkpt lat="46.0360326" lon="11.8396923"><ele>1121.0</ele><time>2026-04-23T12:19:01.539Z</time></trkpt><trkpt lat="46.0360879" lon="11.8397619"><ele>1121.0</ele><time>2026-04-23T12:19:05.539Z</time></trkpt><trkpt lat="46.036153" lon="11.8398004"><ele>1121.0</ele><time>2026-04-23T12:19:08.54Z</time></trkpt><trkpt lat="46.036222" lon="11.8398328"><ele>1121.0</ele><time>2026-04-23T12:19:12.539Z</time></trkpt><trkpt lat="46.0362818" lon="11.8398947"><ele>1121.0</ele><time>2026-04-23T12:19:16.539Z</time></trkpt><trkpt lat="46.0363477" lon="11.839914"><ele>1121.0</ele><time>2026-04-23T12:19:19.536Z</time></trkpt><trkpt lat="46.0364074" lon="11.8399438"><ele>1121.0</ele><time>2026-04-23T12:19:22.536Z</time></trkpt><trkpt lat="46.0364823" lon="11.8399356"><ele>1121.0</ele><time>2026-04-23T12:19:25.538Z</time></trkpt><trkpt lat="46.0365494" lon="11.8399"><ele>1121.0</ele><time>2026-04-23T12:19:29.539Z</time></trkpt><trkpt lat="46.036621" lon="11.83986"><ele>1121.0</ele><time>2026-04-23T12:19:32.541Z</time></trkpt><trkpt lat="46.0366908" lon="11.8398592"><ele>1121.0</ele><time>2026-04-23T12:19:35.539Z</time></trkpt><trkpt lat="46.0367641" lon="11.8398794"><ele>1121.0</ele><time>2026-04-23T12:19:38.537Z</time></trkpt><trkpt lat="46.0368251" lon="11.8398483"><ele>1121.0</ele><time>2026-04-23T12:19:41.539Z</time></trkpt><trkpt lat="46.0368897" lon="11.8398231"><ele>1121.0</ele><time>2026-04-23T12:19:44.538Z</time></trkpt><trkpt lat="46.0369551" lon="11.8398127"><ele>1121.0</ele><time>2026-04-23T12:19:47.539Z</time></trkpt><trkpt lat="46.0370378" lon="11.8398013"><ele>1122.0</ele><time>2026-04-23T12:19:51.539Z</time></trkpt><trkpt lat="46.0371066" lon="11.8398059"><ele>1123.0</ele><time>2026-04-23T12:19:54.54Z</time></trkpt><trkpt lat="46.0371796" lon="11.8398255"><ele>1124.0</ele><time>2026-04-23T12:19:57.537Z</time></trkpt><trkpt lat="46.0372572" lon="11.8398116"><ele>1125.0</ele><time>2026-04-23T12:20:01.54Z</time></trkpt><trkpt lat="46.0373246" lon="11.8398074"><ele>1126.0</ele><time>2026-04-23T12:20:04.539Z</time></trkpt><trkpt lat="46.0373946" lon="11.8398024"><ele>1127.0</ele><time>2026-04-23T12:20:07.539Z</time></trkpt><trkpt lat="46.037469" lon="11.8397773"><ele>1128.0</ele><time>2026-04-23T12:20:10.54Z</time></trkpt><trkpt lat="46.0375296" lon="11.839749"><ele>1129.5714285714287</ele><time>2026-04-23T12:20:13.538Z</time></trkpt><trkpt lat="46.0375978" lon="11.8397247"><ele>1131.142857142857</ele><time>2026-04-23T12:20:16.541Z</time></trkpt><trkpt lat="46.0376861" lon="11.8397085"><ele>1132.7142857142858</ele><time>2026-04-23T12:20:19.537Z</time></trkpt><trkpt lat="46.0377548" lon="11.8396723"><ele>1134.2857142857142</ele><time>2026-04-23T12:20:22.538Z</time></trkpt><trkpt lat="46.0378199" lon="11.8396207"><ele>1135.857142857143</ele><time>2026-04-23T12:20:25.542Z</time></trkpt><trkpt lat="46.0378786" lon="11.8395737"><ele>1137.4285714285716</ele><time>2026-04-23T12:20:28.54Z</time></trkpt><trkpt lat="46.037932" lon="11.8395108"><ele>1139.0</ele><time>2026-04-23T12:20:31.541Z</time></trkpt><trkpt lat="46.037991" lon="11.8394686"><ele>1139.0</ele><time>2026-04-23T12:20:33.538Z</time></trkpt><trkpt lat="46.0380557" lon="11.8394231"><ele>1139.0</ele><time>2026-04-23T12:20:35.538Z</time></trkpt><trkpt lat="46.0381169" lon="11.8393473"><ele>1139.0</ele><time>2026-04-23T12:20:38.54Z</time></trkpt><trkpt lat="46.0381768" lon="11.839294"><ele>1139.0</ele><time>2026-04-23T12:20:40.539Z</time></trkpt><trkpt lat="46.0382425" lon="11.8392491"><ele>1139.0</ele><time>2026-04-23T12:20:43.539Z</time></trkpt><trkpt lat="46.0383026" lon="11.8392193"><ele>1139.0</ele><time>2026-04-23T12:20:45.538Z</time></trkpt><trkpt lat="46.0383714" lon="11.8392227"><ele>1139.0</ele><time>2026-04-23T12:20:49.539Z</time></trkpt><trkpt lat="46.0384473" lon="11.8392213"><ele>1140.5714285714287</ele><time>2026-04-23T12:20:54.539Z</time></trkpt><trkpt lat="46.0385122" lon="11.8392089"><ele>1142.1428571428573</ele><time>2026-04-23T12:20:57.54Z</time></trkpt><trkpt lat="46.0386032" lon="11.8392111"><ele>1143.7142857142858</ele><time>2026-04-23T12:21:00.54Z</time></trkpt><trkpt lat="46.0386759" lon="11.8392256"><ele>1145.2857142857142</ele><time>2026-04-23T12:21:03.539Z</time></trkpt><trkpt lat="46.0387435" lon="11.8392053"><ele>1146.8571428571427</ele><time>2026-04-23T12:21:06.54Z</time></trkpt><trkpt lat="46.0388144" lon="11.8391853"><ele>1148.4285714285713</ele><time>2026-04-23T12:21:08.541Z</time></trkpt><trkpt lat="46.0388769" lon="11.8391636"><ele>1150.0</ele><time>2026-04-23T12:21:11.54Z</time></trkpt><trkpt lat="46.0389438" lon="11.8391222"><ele>1150.0</ele><time>2026-04-23T12:21:14.54Z</time></trkpt><trkpt lat="46.039012" lon="11.839041"><ele>1150.0</ele><time>2026-04-23T12:21:17.534Z</time></trkpt><trkpt lat="46.0390912" lon="11.8389948"><ele>1150.0</ele><time>2026-04-23T12:21:20.536Z</time></trkpt><trkpt lat="46.0391572" lon="11.8389557"><ele>1150.0</ele><time>2026-04-23T12:21:22.535Z</time></trkpt><trkpt lat="46.0392176" lon="11.838928"><ele>1150.0</ele><time>2026-04-23T12:21:24.538Z</time></trkpt><trkpt lat="46.039286" lon="11.8388836"><ele>1150.0</ele><time>2026-04-23T12:21:27.539Z</time></trkpt><trkpt lat="46.039353" lon="11.8388119"><ele>1149.0</ele><time>2026-04-23T12:21:31.54Z</time></trkpt><trkpt lat="46.0394036" lon="11.8387457"><ele>1148.0</ele><time>2026-04-23T12:21:35.54Z</time></trkpt><trkpt lat="46.0393604" lon="11.8386607"><ele>1147.0</ele><time>2026-04-23T12:21:39.539Z</time></trkpt><trkpt lat="46.0392956" lon="11.8385887"><ele>1146.0</ele><time>2026-04-23T12:21:43.537Z</time></trkpt><trkpt lat="46.0392431" lon="11.8385022"><ele>1145.0</ele><time>2026-04-23T12:21:47.538Z</time></trkpt><trkpt lat="46.0391909" lon="11.8384365"><ele>1144.0</ele><time>2026-04-23T12:21:51.537Z</time></trkpt><trkpt lat="46.0391349" lon="11.8383536"><ele>1146.142857142857</ele><time>2026-04-23T12:21:55.539Z</time></trkpt><trkpt lat="46.039071" lon="11.8383222"><ele>1148.2857142857142</ele><time>2026-04-23T12:21:59.537Z</time></trkpt><trkpt lat="46.0390434" lon="11.83824"><ele>1150.4285714285716</ele><time>2026-04-23T12:22:04.539Z</time></trkpt><trkpt lat="46.0390829" lon="11.8381623"><ele>1152.5714285714284</ele><time>2026-04-23T12:22:09.537Z</time></trkpt><trkpt lat="46.0391322" lon="11.8380905"><ele>1154.7142857142858</ele><time>2026-04-23T12:22:14.54Z</time></trkpt><trkpt lat="46.039177" lon="11.8380123"><ele>1156.857142857143</ele><time>2026-04-23T12:22:19.537Z</time></trkpt><trkpt lat="46.039202" lon="11.8379168"><ele>1159.0</ele><time>2026-04-23T12:22:24.539Z</time></trkpt><trkpt lat="46.0392411" lon="11.8378341"><ele>1159.0000000000002</ele><time>2026-04-23T12:22:29.539Z</time></trkpt><trkpt lat="46.0392849" lon="11.8377655"><ele>1159.0</ele><time>2026-04-23T12:22:34.537Z</time></trkpt><trkpt lat="46.0392761" lon="11.8376661"><ele>1159.0</ele><time>2026-04-23T12:22:39.539Z</time></trkpt><trkpt lat="46.039256" lon="11.8375741"><ele>1159.0</ele><time>2026-04-23T12:22:44.54Z</time></trkpt><trkpt lat="46.0392007" lon="11.837526"><ele>1159.0</ele><time>2026-04-23T12:22:50.539Z</time></trkpt><trkpt lat="46.039132" lon="11.8375117"><ele>1159.0000000000002</ele><time>2026-04-23T12:22:55.538Z</time></trkpt><trkpt lat="46.0390893" lon="11.8374417"><ele>1159.0</ele><time>2026-04-23T12:23:01.539Z</time></trkpt><trkpt lat="46.039055" lon="11.8373558"><ele>1163.3333333333333</ele><time>2026-04-23T12:23:06.538Z</time></trkpt><trkpt lat="46.0389947" lon="11.8373183"><ele>1167.6666666666665</ele><time>2026-04-23T12:23:11.536Z</time></trkpt><trkpt lat="46.0389275" lon="11.8373233"><ele>1172.0</ele><time>2026-04-23T12:23:24.538Z</time></trkpt><trkpt lat="46.0388856" lon="11.8371996"><ele>1176.3333333333333</ele><time>2026-04-23T12:23:47.538Z</time></trkpt><trkpt lat="46.0388114" lon="11.8370848"><ele>1180.6666666666667</ele><time>2026-04-23T12:24:29.539Z</time></trkpt><trkpt lat="46.0387713" lon="11.8369867"><ele>1185.0</ele><time>2026-04-23T12:24:35.537Z</time></trkpt><trkpt lat="46.038728" lon="11.8368894"><ele>1185.0</ele><time>2026-04-23T12:24:40.539Z</time></trkpt><trkpt lat="46.0386721" lon="11.8368286"><ele>1185.0</ele><time>2026-04-23T12:24:44.537Z</time></trkpt><trkpt lat="46.0386203" lon="11.8367705"><ele>1185.0</ele><time>2026-04-23T12:24:48.537Z</time></trkpt><trkpt lat="46.0385569" lon="11.8367098"><ele>1185.0</ele><time>2026-04-23T12:24:54.536Z</time></trkpt><trkpt lat="46.0384993" lon="11.8366635"><ele>1185.0</ele><time>2026-04-23T12:24:59.54Z</time></trkpt><trkpt lat="46.0384384" lon="11.8366348"><ele>1185.0</ele><time>2026-04-23T12:25:03.54Z</time></trkpt><trkpt lat="46.0383794" lon="11.8365942"><ele>1185.0</ele><time>2026-04-23T12:25:09.538Z</time></trkpt><trkpt lat="46.0383211" lon="11.8365283"><ele>1188.142857142857</ele><time>2026-04-23T12:25:14.538Z</time></trkpt><trkpt lat="46.0382616" lon="11.836476"><ele>1191.2857142857142</ele><time>2026-04-23T12:25:19.537Z</time></trkpt><trkpt lat="46.0381981" lon="11.8364332"><ele>1194.4285714285713</ele><time>2026-04-23T12:25:24.539Z</time></trkpt><trkpt lat="46.0381351" lon="11.8363971"><ele>1197.5714285714284</ele><time>2026-04-23T12:25:28.539Z</time></trkpt><trkpt lat="46.0380663" lon="11.8363782"><ele>1200.7142857142858</ele><time>2026-04-23T12:25:32.537Z</time></trkpt><trkpt lat="46.0379974" lon="11.8363447"><ele>1203.8571428571427</ele><time>2026-04-23T12:25:38.542Z</time></trkpt><trkpt lat="46.0379337" lon="11.8363145"><ele>1207.0</ele><time>2026-04-23T12:25:43.541Z</time></trkpt><trkpt lat="46.0378665" lon="11.8362908"><ele>1206.9999999999998</ele><time>2026-04-23T12:25:48.539Z</time></trkpt><trkpt lat="46.0378061" lon="11.8362234"><ele>1207.0</ele><time>2026-04-23T12:25:53.539Z</time></trkpt><trkpt lat="46.0377488" lon="11.8361678"><ele>1207.0</ele><time>2026-04-23T12:25:58.538Z</time></trkpt><trkpt lat="46.0376766" lon="11.8361513"><ele>1207.0</ele><time>2026-04-23T12:26:04.539Z</time></trkpt><trkpt lat="46.0376083" lon="11.8361139"><ele>1207.0</ele><time>2026-04-23T12:26:10.539Z</time></trkpt><trkpt lat="46.0375739" lon="11.8360182"><ele>1206.9999999999998</ele><time>2026-04-23T12:26:15.54Z</time></trkpt><trkpt lat="46.0375569" lon="11.835924"><ele>1207.0</ele><time>2026-04-23T12:26:20.54Z</time></trkpt><trkpt lat="46.0375494" lon="11.835818"><ele>1207.9999999999998</ele><time>2026-04-23T12:26:25.539Z</time></trkpt><trkpt lat="46.0375527" lon="11.835722"><ele>1209.0</ele><time>2026-04-23T12:26:30.537Z</time></trkpt><trkpt lat="46.037588" lon="11.8356286"><ele>1210.0</ele><time>2026-04-23T12:26:35.538Z</time></trkpt><trkpt lat="46.0376282" lon="11.835544"><ele>1211.0</ele><time>2026-04-23T12:26:41.538Z</time></trkpt><trkpt lat="46.0376787" lon="11.8354683"><ele>1212.0</ele><time>2026-04-23T12:26:46.539Z</time></trkpt><trkpt lat="46.0377074" lon="11.8353761"><ele>1212.9999999999998</ele><time>2026-04-23T12:26:50.54Z</time></trkpt><trkpt lat="46.0377344" lon="11.8352782"><ele>1214.0</ele><time>2026-04-23T12:26:55.537Z</time></trkpt><trkpt lat="46.037767" lon="11.8351807"><ele>1215.5</ele><time>2026-04-23T12:27:00.54Z</time></trkpt><trkpt lat="46.0378099" lon="11.8350891"><ele>1217.0</ele><time>2026-04-23T12:27:05.54Z</time></trkpt><trkpt lat="46.03787" lon="11.8350033"><ele>1218.5</ele><time>2026-04-23T12:27:08.536Z</time></trkpt><trkpt lat="46.0379398" lon="11.8349259"><ele>1220.0</ele><time>2026-04-23T12:27:10.54Z</time></trkpt><trkpt lat="46.0380239" lon="11.8348192"><ele>1221.5</ele><time>2026-04-23T12:27:12.539Z</time></trkpt><trkpt lat="46.0380903" lon="11.834757"><ele>1223.0</ele><time>2026-04-23T12:27:14.54Z</time></trkpt><trkpt lat="46.0381528" lon="11.8346934"><ele>1223.0</ele><time>2026-04-23T12:27:17.54Z</time></trkpt><trkpt lat="46.0382134" lon="11.834626"><ele>1223.0</ele><time>2026-04-23T12:27:21.537Z</time></trkpt><trkpt lat="46.0382568" lon="11.8345323"><ele>1223.0</ele><time>2026-04-23T12:27:26.537Z</time></trkpt><trkpt lat="46.0382933" lon="11.8344399"><ele>1223.0</ele><time>2026-04-23T12:27:30.54Z</time></trkpt><trkpt lat="46.0383265" lon="11.8343611"><ele>1223.0</ele><time>2026-04-23T12:27:33.54Z</time></trkpt><trkpt lat="46.0383688" lon="11.8342905"><ele>1223.0</ele><time>2026-04-23T12:27:36.538Z</time></trkpt><trkpt lat="46.038427" lon="11.8342104"><ele>1223.0</ele><time>2026-04-23T12:27:40.54Z</time></trkpt><trkpt lat="46.0384838" lon="11.8341252"><ele>1223.0</ele><time>2026-04-23T12:27:44.541Z</time></trkpt><trkpt lat="46.0385451" lon="11.8340613"><ele>1223.0</ele><time>2026-04-23T12:27:48.54Z</time></trkpt><trkpt lat="46.0386285" lon="11.8340731"><ele>1223.0</ele><time>2026-04-23T12:27:52.54Z</time></trkpt><trkpt lat="46.038691" lon="11.8340924"><ele>1223.0</ele><time>2026-04-23T12:27:55.538Z</time></trkpt><trkpt lat="46.0387564" lon="11.8340891"><ele>1223.0</ele><time>2026-04-23T12:27:58.539Z</time></trkpt><trkpt lat="46.0388291" lon="11.8340709"><ele>1223.0</ele><time>2026-04-23T12:28:01.539Z</time></trkpt><trkpt lat="46.0388968" lon="11.8340699"><ele>1223.0</ele><time>2026-04-23T12:28:04.541Z</time></trkpt><trkpt lat="46.0389658" lon="11.8340709"><ele>1223.0</ele><time>2026-04-23T12:28:07.536Z</time></trkpt><trkpt lat="46.0390324" lon="11.8340838"><ele>1223.0</ele><time>2026-04-23T12:28:10.539Z</time></trkpt><trkpt lat="46.0391115" lon="11.834083"><ele>1223.0</ele><time>2026-04-23T12:28:13.539Z</time></trkpt><trkpt lat="46.0391909" lon="11.8340461"><ele>1223.0</ele><time>2026-04-23T12:28:16.539Z</time></trkpt><trkpt lat="46.0392694" lon="11.8339835"><ele>1223.0</ele><time>2026-04-23T12:28:19.54Z</time></trkpt><trkpt lat="46.0393317" lon="11.8339041"><ele>1223.0</ele><time>2026-04-23T12:28:22.539Z</time></trkpt><trkpt lat="46.0393929" lon="11.8337927"><ele>1223.4</ele><time>2026-04-23T12:28:25.54Z</time></trkpt><trkpt lat="46.0394478" lon="11.8336913"><ele>1223.8</ele><time>2026-04-23T12:28:27.537Z</time></trkpt><trkpt lat="46.0395122" lon="11.833579"><ele>1224.2</ele><time>2026-04-23T12:28:29.54Z</time></trkpt><trkpt lat="46.0395822" lon="11.8334773"><ele>1224.6</ele><time>2026-04-23T12:28:31.537Z</time></trkpt><trkpt lat="46.0396438" lon="11.8333898"><ele>1225.0</ele><time>2026-04-23T12:28:33.537Z</time></trkpt><trkpt lat="46.0396919" lon="11.8333084"><ele>1225.3333333333333</ele><time>2026-04-23T12:28:35.539Z</time></trkpt><trkpt lat="46.0397462" lon="11.8332123"><ele>1225.6666666666665</ele><time>2026-04-23T12:28:38.539Z</time></trkpt><trkpt lat="46.0397977" lon="11.8331248"><ele>1226.0</ele><time>2026-04-23T12:28:41.539Z</time></trkpt><trkpt lat="46.0398424" lon="11.8330349"><ele>1226.3333333333333</ele><time>2026-04-23T12:28:44.539Z</time></trkpt><trkpt lat="46.0398864" lon="11.8329458"><ele>1226.6666666666667</ele><time>2026-04-23T12:28:47.54Z</time></trkpt><trkpt lat="46.0399301" lon="11.8328612"><ele>1227.0</ele><time>2026-04-23T12:28:50.54Z</time></trkpt><trkpt lat="46.0399814" lon="11.8327773"><ele>1226.1666666666667</ele><time>2026-04-23T12:28:53.539Z</time></trkpt><trkpt lat="46.0400471" lon="11.8327027"><ele>1225.3333333333333</ele><time>2026-04-23T12:28:56.54Z</time></trkpt><trkpt lat="46.0401171" lon="11.8326238"><ele>1224.5</ele><time>2026-04-23T12:28:59.54Z</time></trkpt><trkpt lat="46.0401914" lon="11.8325522"><ele>1223.6666666666665</ele><time>2026-04-23T12:29:02.538Z</time></trkpt><trkpt lat="46.0402624" lon="11.8324959"><ele>1222.8333333333333</ele><time>2026-04-23T12:29:05.537Z</time></trkpt><trkpt lat="46.0403329" lon="11.8324313"><ele>1222.0</ele><time>2026-04-23T12:29:08.541Z</time></trkpt><trkpt lat="46.040407" lon="11.8323507"><ele>1222.3333333333333</ele><time>2026-04-23T12:29:11.539Z</time></trkpt><trkpt lat="46.0404631" lon="11.8323037"><ele>1222.6666666666665</ele><time>2026-04-23T12:29:13.541Z</time></trkpt><trkpt lat="46.0405231" lon="11.8322657"><ele>1223.0</ele><time>2026-04-23T12:29:15.539Z</time></trkpt><trkpt lat="46.040603" lon="11.832223"><ele>1223.3333333333333</ele><time>2026-04-23T12:29:18.536Z</time></trkpt><trkpt lat="46.0406675" lon="11.8321696"><ele>1223.6666666666667</ele><time>2026-04-23T12:29:22.536Z</time></trkpt><trkpt lat="46.0407429" lon="11.8321156"><ele>1224.0</ele><time>2026-04-23T12:29:26.535Z</time></trkpt><trkpt lat="46.0408204" lon="11.8320725"><ele>1224.0</ele><time>2026-04-23T12:29:29.538Z</time></trkpt><trkpt lat="46.0409001" lon="11.8320367"><ele>1224.0</ele><time>2026-04-23T12:29:32.538Z</time></trkpt><trkpt lat="46.0409819" lon="11.8319932"><ele>1224.0</ele><time>2026-04-23T12:29:35.535Z</time></trkpt><trkpt lat="46.0410581" lon="11.8319574"><ele>1224.0</ele><time>2026-04-23T12:29:38.538Z</time></trkpt><trkpt lat="46.0411381" lon="11.8319048"><ele>1224.0</ele><time>2026-04-23T12:29:41.536Z</time></trkpt><trkpt lat="46.0412091" lon="11.8318418"><ele>1224.0</ele><time>2026-04-23T12:29:44.535Z</time></trkpt><trkpt lat="46.0412706" lon="11.8317905"><ele>1226.1666666666667</ele><time>2026-04-23T12:29:47.537Z</time></trkpt><trkpt lat="46.0413217" lon="11.8317035"><ele>1228.3333333333333</ele><time>2026-04-23T12:29:50.537Z</time></trkpt><trkpt lat="46.0413516" lon="11.8316033"><ele>1230.5</ele><time>2026-04-23T12:29:53.537Z</time></trkpt><trkpt lat="46.0413692" lon="11.8315054"><ele>1232.6666666666665</ele><time>2026-04-23T12:29:56.643Z</time></trkpt><trkpt lat="46.0413973" lon="11.8314042"><ele>1234.8333333333333</ele><time>2026-04-23T12:29:59.539Z</time></trkpt><trkpt lat="46.0414539" lon="11.8312966"><ele>1237.0</ele><time>2026-04-23T12:30:02.539Z</time></trkpt><trkpt lat="46.0415046" lon="11.8312077"><ele>1237.0</ele><time>2026-04-23T12:30:05.538Z</time></trkpt><trkpt lat="46.0415776" lon="11.8311474"><ele>1237.0</ele><time>2026-04-23T12:30:08.539Z</time></trkpt><trkpt lat="46.0416514" lon="11.8311153"><ele>1237.0</ele><time>2026-04-23T12:30:11.537Z</time></trkpt><trkpt lat="46.0417188" lon="11.8310596"><ele>1237.0</ele><time>2026-04-23T12:30:14.535Z</time></trkpt><trkpt lat="46.0417761" lon="11.8309964"><ele>1237.0</ele><time>2026-04-23T12:30:17.535Z</time></trkpt><trkpt lat="46.0418154" lon="11.8309077"><ele>1237.0</ele><time>2026-04-23T12:30:20.537Z</time></trkpt><trkpt lat="46.0418463" lon="11.8307984"><ele>1237.8333333333333</ele><time>2026-04-23T12:30:23.539Z</time></trkpt><trkpt lat="46.0418643" lon="11.8306814"><ele>1238.6666666666665</ele><time>2026-04-23T12:30:26.539Z</time></trkpt><trkpt lat="46.0418802" lon="11.8305575"><ele>1239.5</ele><time>2026-04-23T12:30:29.539Z</time></trkpt><trkpt lat="46.0418888" lon="11.8304534"><ele>1240.3333333333333</ele><time>2026-04-23T12:30:32.54Z</time></trkpt><trkpt lat="46.0418949" lon="11.8303393"><ele>1241.1666666666667</ele><time>2026-04-23T12:30:35.542Z</time></trkpt><trkpt lat="46.0418987" lon="11.8302328"><ele>1242.0</ele><time>2026-04-23T12:30:38.538Z</time></trkpt><trkpt lat="46.0418972" lon="11.8301172"><ele>1242.8333333333333</ele><time>2026-04-23T12:30:41.539Z</time></trkpt><trkpt lat="46.041889" lon="11.8299988"><ele>1243.6666666666667</ele><time>2026-04-23T12:30:44.539Z</time></trkpt><trkpt lat="46.0418667" lon="11.8298928"><ele>1244.5</ele><time>2026-04-23T12:30:47.538Z</time></trkpt><trkpt lat="46.0418241" lon="11.8297904"><ele>1245.3333333333335</ele><time>2026-04-23T12:30:50.539Z</time></trkpt><trkpt lat="46.0417767" lon="11.8297064"><ele>1246.1666666666667</ele><time>2026-04-23T12:30:53.539Z</time></trkpt><trkpt lat="46.0417209" lon="11.8296339"><ele>1247.0</ele><time>2026-04-23T12:30:56.54Z</time></trkpt><trkpt lat="46.041661" lon="11.8295574"><ele>1249.3333333333335</ele><time>2026-04-23T12:30:59.536Z</time></trkpt><trkpt lat="46.0415938" lon="11.8294796"><ele>1251.6666666666667</ele><time>2026-04-23T12:31:02.541Z</time></trkpt><trkpt lat="46.0415286" lon="11.8294135"><ele>1254.0</ele><time>2026-04-23T12:31:05.538Z</time></trkpt><trkpt lat="46.0414625" lon="11.8293487"><ele>1256.3333333333333</ele><time>2026-04-23T12:31:08.541Z</time></trkpt><trkpt lat="46.0414072" lon="11.8292781"><ele>1258.6666666666665</ele><time>2026-04-23T12:31:11.54Z</time></trkpt><trkpt lat="46.0413602" lon="11.8291989"><ele>1261.0</ele><time>2026-04-23T12:31:14.54Z</time></trkpt><trkpt lat="46.0413782" lon="11.8290884"><ele>1260.857142857143</ele><time>2026-04-23T12:31:17.54Z</time></trkpt><trkpt lat="46.0414283" lon="11.8290228"><ele>1260.7142857142858</ele><time>2026-04-23T12:31:20.541Z</time></trkpt><trkpt lat="46.0414978" lon="11.829017"><ele>1260.5714285714284</ele><time>2026-04-23T12:31:23.542Z</time></trkpt><trkpt lat="46.041569" lon="11.8290409"><ele>1260.4285714285716</ele><time>2026-04-23T12:31:26.542Z</time></trkpt><trkpt lat="46.0416402" lon="11.8290666"><ele>1260.2857142857142</ele><time>2026-04-23T12:31:29.536Z</time></trkpt><trkpt lat="46.0417142" lon="11.8290963"><ele>1260.142857142857</ele><time>2026-04-23T12:31:32.539Z</time></trkpt><trkpt lat="46.0417821" lon="11.8291162"><ele>1260.0</ele><time>2026-04-23T12:31:35.538Z</time></trkpt><trkpt lat="46.0418584" lon="11.8291349"><ele>1260.0</ele><time>2026-04-23T12:31:38.54Z</time></trkpt><trkpt lat="46.0419383" lon="11.8291347"><ele>1260.0</ele><time>2026-04-23T12:31:41.539Z</time></trkpt><trkpt lat="46.0420189" lon="11.8291305"><ele>1260.0</ele><time>2026-04-23T12:31:44.539Z</time></trkpt><trkpt lat="46.0420931" lon="11.8291341"><ele>1260.0</ele><time>2026-04-23T12:31:47.538Z</time></trkpt><trkpt lat="46.0421796" lon="11.8291407"><ele>1260.0</ele><time>2026-04-23T12:31:50.536Z</time></trkpt><trkpt lat="46.0422631" lon="11.8291624"><ele>1260.0</ele><time>2026-04-23T12:31:53.538Z</time></trkpt><trkpt lat="46.0423352" lon="11.8291868"><ele>1260.0</ele><time>2026-04-23T12:31:56.539Z</time></trkpt><trkpt lat="46.0424221" lon="11.8292208"><ele>1260.0</ele><time>2026-04-23T12:31:59.538Z</time></trkpt><trkpt lat="46.0425148" lon="11.8292035"><ele>1260.0</ele><time>2026-04-23T12:32:02.537Z</time></trkpt><trkpt lat="46.0425788" lon="11.8291769"><ele>1260.0</ele><time>2026-04-23T12:32:04.54Z</time></trkpt><trkpt lat="46.0426372" lon="11.8291382"><ele>1260.0</ele><time>2026-04-23T12:32:06.54Z</time></trkpt><trkpt lat="46.0427075" lon="11.8290651"><ele>1260.0</ele><time>2026-04-23T12:32:09.543Z</time></trkpt><trkpt lat="46.0427589" lon="11.8290099"><ele>1258.7142857142858</ele><time>2026-04-23T12:32:11.541Z</time></trkpt><trkpt lat="46.0428081" lon="11.8289487"><ele>1257.4285714285716</ele><time>2026-04-23T12:32:13.538Z</time></trkpt><trkpt lat="46.0428571" lon="11.8288706"><ele>1256.142857142857</ele><time>2026-04-23T12:32:15.538Z</time></trkpt><trkpt lat="46.0429126" lon="11.8287986"><ele>1254.857142857143</ele><time>2026-04-23T12:32:17.538Z</time></trkpt><trkpt lat="46.0429711" lon="11.8287176"><ele>1253.5714285714287</ele><time>2026-04-23T12:32:19.539Z</time></trkpt><trkpt lat="46.0430232" lon="11.8286451"><ele>1252.2857142857142</ele><time>2026-04-23T12:32:21.539Z</time></trkpt><trkpt lat="46.0430718" lon="11.8285719"><ele>1251.0</ele><time>2026-04-23T12:32:23.537Z</time></trkpt><trkpt lat="46.0431197" lon="11.8284976"><ele>1251.4285714285713</ele><time>2026-04-23T12:32:25.539Z</time></trkpt><trkpt lat="46.043164" lon="11.828416"><ele>1251.857142857143</ele><time>2026-04-23T12:32:27.539Z</time></trkpt><trkpt lat="46.0432067" lon="11.8283294"><ele>1252.2857142857142</ele><time>2026-04-23T12:32:29.542Z</time></trkpt><trkpt lat="46.043245" lon="11.828234"><ele>1252.7142857142858</ele><time>2026-04-23T12:32:31.536Z</time></trkpt><trkpt lat="46.0432783" lon="11.8281387"><ele>1253.142857142857</ele><time>2026-04-23T12:32:33.539Z</time></trkpt><trkpt lat="46.0432986" lon="11.8280408"><ele>1253.5714285714287</ele><time>2026-04-23T12:32:35.537Z</time></trkpt><trkpt lat="46.0433191" lon="11.8279377"><ele>1254.0</ele><time>2026-04-23T12:32:37.537Z</time></trkpt><trkpt lat="46.0433425" lon="11.8278364"><ele>1254.0</ele><time>2026-04-23T12:32:39.54Z</time></trkpt><trkpt lat="46.0433547" lon="11.8277295"><ele>1254.0</ele><time>2026-04-23T12:32:41.539Z</time></trkpt><trkpt lat="46.0433564" lon="11.8276211"><ele>1254.0</ele><time>2026-04-23T12:32:43.537Z</time></trkpt><trkpt lat="46.04335" lon="11.8275174"><ele>1254.0</ele><time>2026-04-23T12:32:45.535Z</time></trkpt><trkpt lat="46.0433514" lon="11.8274208"><ele>1254.0</ele><time>2026-04-23T12:32:47.538Z</time></trkpt><trkpt lat="46.0433504" lon="11.8273267"><ele>1254.0</ele><time>2026-04-23T12:32:49.539Z</time></trkpt><trkpt lat="46.0433634" lon="11.8272375"><ele>1254.0</ele><time>2026-04-23T12:32:51.539Z</time></trkpt><trkpt lat="46.0434284" lon="11.8271465"><ele>1255.4285714285716</ele><time>2026-04-23T12:32:54.539Z</time></trkpt><trkpt lat="46.0434964" lon="11.8271695"><ele>1256.857142857143</ele><time>2026-04-23T12:32:56.538Z</time></trkpt><trkpt lat="46.0435617" lon="11.8272108"><ele>1258.2857142857142</ele><time>2026-04-23T12:32:58.539Z</time></trkpt><trkpt lat="46.0436188" lon="11.827274"><ele>1259.7142857142858</ele><time>2026-04-23T12:33:00.538Z</time></trkpt><trkpt lat="46.0436684" lon="11.8273486"><ele>1261.142857142857</ele><time>2026-04-23T12:33:02.538Z</time></trkpt><trkpt lat="46.0437161" lon="11.8274137"><ele>1262.5714285714287</ele><time>2026-04-23T12:33:04.539Z</time></trkpt><trkpt lat="46.0437655" lon="11.8274799"><ele>1264.0</ele><time>2026-04-23T12:33:06.538Z</time></trkpt><trkpt lat="46.0438101" lon="11.8275445"><ele>1264.0000000000002</ele><time>2026-04-23T12:33:08.539Z</time></trkpt><trkpt lat="46.0438621" lon="11.827612"><ele>1264.0</ele><time>2026-04-23T12:33:10.538Z</time></trkpt><trkpt lat="46.0439099" lon="11.827677"><ele>1264.0</ele><time>2026-04-23T12:33:12.538Z</time></trkpt><trkpt lat="46.0439554" lon="11.8277455"><ele>1264.0</ele><time>2026-04-23T12:33:14.539Z</time></trkpt><trkpt lat="46.0440172" lon="11.8277827"><ele>1264.0</ele><time>2026-04-23T12:33:16.539Z</time></trkpt><trkpt lat="46.0440796" lon="11.8278064"><ele>1264.0000000000002</ele><time>2026-04-23T12:33:18.539Z</time></trkpt><trkpt lat="46.0441436" lon="11.8278069"><ele>1264.0</ele><time>2026-04-23T12:33:20.538Z</time></trkpt><trkpt lat="46.0442053" lon="11.8277835"><ele>1261.7142857142858</ele><time>2026-04-23T12:33:22.538Z</time></trkpt><trkpt lat="46.0442633" lon="11.8277409"><ele>1259.4285714285716</ele><time>2026-04-23T12:33:24.539Z</time></trkpt><trkpt lat="46.0443185" lon="11.8276903"><ele>1257.1428571428573</ele><time>2026-04-23T12:33:26.539Z</time></trkpt><trkpt lat="46.0443696" lon="11.8276327"><ele>1254.857142857143</ele><time>2026-04-23T12:33:28.538Z</time></trkpt><trkpt lat="46.0444226" lon="11.8275313"><ele>1252.5714285714284</ele><time>2026-04-23T12:33:31.538Z</time></trkpt><trkpt lat="46.0444715" lon="11.8274196"><ele>1250.2857142857144</ele><time>2026-04-23T12:33:34.538Z</time></trkpt><trkpt lat="46.0445036" lon="11.8273388"><ele>1248.0</ele><time>2026-04-23T12:33:36.538Z</time></trkpt><trkpt lat="46.0445319" lon="11.8272382"><ele>1248.0</ele><time>2026-04-23T12:33:39.54Z</time></trkpt><trkpt lat="46.0445212" lon="11.8271235"><ele>1248.0</ele><time>2026-04-23T12:33:42.537Z</time></trkpt><trkpt lat="46.0444818" lon="11.8270345"><ele>1248.0</ele><time>2026-04-23T12:33:45.539Z</time></trkpt><trkpt lat="46.0444017" lon="11.8270215"><ele>1248.0</ele><time>2026-04-23T12:33:48.54Z</time></trkpt><trkpt lat="46.0443195" lon="11.8270502"><ele>1248.0</ele><time>2026-04-23T12:33:51.537Z</time></trkpt><trkpt lat="46.0442408" lon="11.8270672"><ele>1248.0</ele><time>2026-04-23T12:33:54.539Z</time></trkpt><trkpt lat="46.044159" lon="11.8270859"><ele>1250.6666666666667</ele><time>2026-04-23T12:33:57.539Z</time></trkpt><trkpt lat="46.044076" lon="11.8271101"><ele>1253.3333333333333</ele><time>2026-04-23T12:34:00.54Z</time></trkpt><trkpt lat="46.0439898" lon="11.8271187"><ele>1256.0</ele><time>2026-04-23T12:34:03.535Z</time></trkpt><trkpt lat="46.0439002" lon="11.8271045"><ele>1258.6666666666665</ele><time>2026-04-23T12:34:06.542Z</time></trkpt><trkpt lat="46.0438158" lon="11.8270587"><ele>1261.3333333333333</ele><time>2026-04-23T12:34:09.537Z</time></trkpt><trkpt lat="46.0437312" lon="11.8269958"><ele>1264.0</ele><time>2026-04-23T12:34:12.538Z</time></trkpt><trkpt lat="46.0436715" lon="11.8269549"><ele>1264.0</ele><time>2026-04-23T12:34:14.539Z</time></trkpt><trkpt lat="46.0435914" lon="11.8268943"><ele>1264.0</ele><time>2026-04-23T12:34:17.539Z</time></trkpt><trkpt lat="46.0435171" lon="11.8268372"><ele>1264.0</ele><time>2026-04-23T12:34:20.537Z</time></trkpt><trkpt lat="46.0434435" lon="11.8267692"><ele>1264.0</ele><time>2026-04-23T12:34:23.539Z</time></trkpt><trkpt lat="46.0433865" lon="11.8267277"><ele>1264.0</ele><time>2026-04-23T12:34:25.537Z</time></trkpt><trkpt lat="46.0433345" lon="11.826674"><ele>1264.0</ele><time>2026-04-23T12:34:27.539Z</time></trkpt><trkpt lat="46.0432598" lon="11.8266001"><ele>1269.6666666666665</ele><time>2026-04-23T12:34:30.536Z</time></trkpt><trkpt lat="46.043186" lon="11.8265203"><ele>1275.3333333333333</ele><time>2026-04-23T12:34:33.539Z</time></trkpt><trkpt lat="46.0431118" lon="11.8264414"><ele>1281.0</ele><time>2026-04-23T12:34:36.542Z</time></trkpt><trkpt lat="46.043049" lon="11.8263832"><ele>1286.6666666666667</ele><time>2026-04-23T12:34:39.536Z</time></trkpt><trkpt lat="46.0429825" lon="11.8263633"><ele>1292.3333333333335</ele><time>2026-04-23T12:34:42.539Z</time></trkpt><trkpt lat="46.0429336" lon="11.8264306"><ele>1298.0</ele><time>2026-04-23T12:34:45.537Z</time></trkpt><trkpt lat="46.0429679" lon="11.8265384"><ele>1298.0</ele><time>2026-04-23T12:34:49.535Z</time></trkpt><trkpt lat="46.0430276" lon="11.8266115"><ele>1298.0</ele><time>2026-04-23T12:34:52.538Z</time></trkpt><trkpt lat="46.0430447" lon="11.8267234"><ele>1298.0</ele><time>2026-04-23T12:34:56.534Z</time></trkpt><trkpt lat="46.0430272" lon="11.8268254"><ele>1298.0</ele><time>2026-04-23T12:34:59.54Z</time></trkpt><trkpt lat="46.0429998" lon="11.8269392"><ele>1298.0</ele><time>2026-04-23T12:35:02.541Z</time></trkpt><trkpt lat="46.0429737" lon="11.8270322"><ele>1298.0</ele><time>2026-04-23T12:35:05.541Z</time></trkpt><trkpt lat="46.0429618" lon="11.8271365"><ele>1296.8571428571427</ele><time>2026-04-23T12:35:08.54Z</time></trkpt><trkpt lat="46.0429344" lon="11.8272268"><ele>1295.7142857142858</ele><time>2026-04-23T12:35:11.539Z</time></trkpt><trkpt lat="46.0428984" lon="11.8273251"><ele>1294.5714285714284</ele><time>2026-04-23T12:35:15.538Z</time></trkpt><trkpt lat="46.0428381" lon="11.8274065"><ele>1293.4285714285713</ele><time>2026-04-23T12:35:19.538Z</time></trkpt><trkpt lat="46.0427841" lon="11.8274537"><ele>1292.2857142857142</ele><time>2026-04-23T12:35:22.537Z</time></trkpt><trkpt lat="46.0427194" lon="11.8275063"><ele>1291.142857142857</ele><time>2026-04-23T12:35:25.541Z</time></trkpt><trkpt lat="46.0426578" lon="11.827551"><ele>1290.0</ele><time>2026-04-23T12:35:28.54Z</time></trkpt><trkpt lat="46.0426009" lon="11.8275926"><ele>1290.0</ele><time>2026-04-23T12:35:31.539Z</time></trkpt><trkpt lat="46.0425396" lon="11.8276428"><ele>1290.0</ele><time>2026-04-23T12:35:34.54Z</time></trkpt><trkpt lat="46.0424658" lon="11.8276809"><ele>1290.0</ele><time>2026-04-23T12:35:37.539Z</time></trkpt><trkpt lat="46.0423874" lon="11.8277447"><ele>1290.0</ele><time>2026-04-23T12:35:40.54Z</time></trkpt><trkpt lat="46.0423072" lon="11.8278173"><ele>1290.0</ele><time>2026-04-23T12:35:43.537Z</time></trkpt><trkpt lat="46.042243" lon="11.8278616"><ele>1290.0</ele><time>2026-04-23T12:35:45.54Z</time></trkpt><trkpt lat="46.0421816" lon="11.8278931"><ele>1288.857142857143</ele><time>2026-04-23T12:35:47.54Z</time></trkpt><trkpt lat="46.0421148" lon="11.8279092"><ele>1287.7142857142856</ele><time>2026-04-23T12:35:49.539Z</time></trkpt><trkpt lat="46.0420475" lon="11.8279319"><ele>1286.5714285714284</ele><time>2026-04-23T12:35:51.538Z</time></trkpt><trkpt lat="46.0419633" lon="11.8279192"><ele>1285.4285714285716</ele><time>2026-04-23T12:35:54.539Z</time></trkpt><trkpt lat="46.0419001" lon="11.8279125"><ele>1284.2857142857142</ele><time>2026-04-23T12:35:56.54Z</time></trkpt><trkpt lat="46.0418371" lon="11.8279088"><ele>1283.142857142857</ele><time>2026-04-23T12:35:58.54Z</time></trkpt><trkpt lat="46.0417699" lon="11.8279058"><ele>1282.0</ele><time>2026-04-23T12:36:00.541Z</time></trkpt><trkpt lat="46.0417007" lon="11.8279061"><ele>1282.0</ele><time>2026-04-23T12:36:02.538Z</time></trkpt><trkpt lat="46.0416328" lon="11.8279023"><ele>1282.0</ele><time>2026-04-23T12:36:04.54Z</time></trkpt><trkpt lat="46.0415666" lon="11.8279064"><ele>1282.0</ele><time>2026-04-23T12:36:06.54Z</time></trkpt><trkpt lat="46.0414994" lon="11.8278949"><ele>1282.0</ele><time>2026-04-23T12:36:08.54Z</time></trkpt><trkpt lat="46.0414071" lon="11.8278697"><ele>1282.0</ele><time>2026-04-23T12:36:11.539Z</time></trkpt><trkpt lat="46.0413447" lon="11.8278576"><ele>1282.0</ele><time>2026-04-23T12:36:13.538Z</time></trkpt><trkpt lat="46.0412821" lon="11.8278397"><ele>1282.0</ele><time>2026-04-23T12:36:15.54Z</time></trkpt><trkpt lat="46.0412012" lon="11.8278224"><ele>1282.6666666666665</ele><time>2026-04-23T12:36:18.538Z</time></trkpt><trkpt lat="46.0411156" lon="11.8278139"><ele>1283.3333333333333</ele><time>2026-04-23T12:36:21.54Z</time></trkpt><trkpt lat="46.0410402" lon="11.8277889"><ele>1284.0</ele><time>2026-04-23T12:36:24.54Z</time></trkpt><trkpt lat="46.0409624" lon="11.827768"><ele>1284.6666666666667</ele><time>2026-04-23T12:36:27.539Z</time></trkpt><trkpt lat="46.0408946" lon="11.8277329"><ele>1285.3333333333335</ele><time>2026-04-23T12:36:30.538Z</time></trkpt><trkpt lat="46.0408128" lon="11.8277217"><ele>1286.0</ele><time>2026-04-23T12:36:33.54Z</time></trkpt><trkpt lat="46.0407373" lon="11.8276802"><ele>1291.0</ele><time>2026-04-23T12:36:36.539Z</time></trkpt><trkpt lat="46.0406617" lon="11.8276296"><ele>1296.0</ele><time>2026-04-23T12:36:39.538Z</time></trkpt><trkpt lat="46.0405957" lon="11.8275765"><ele>1301.0</ele><time>2026-04-23T12:36:42.538Z</time></trkpt><trkpt lat="46.0405259" lon="11.8275239"><ele>1306.0</ele><time>2026-04-23T12:36:45.539Z</time></trkpt><trkpt lat="46.0404462" lon="11.8275076"><ele>1311.0</ele><time>2026-04-23T12:36:48.537Z</time></trkpt><trkpt lat="46.0403631" lon="11.8275094"><ele>1316.0</ele><time>2026-04-23T12:36:51.539Z</time></trkpt><trkpt lat="46.040272" lon="11.827525"><ele>1316.0</ele><time>2026-04-23T12:36:54.539Z</time></trkpt><trkpt lat="46.0401831" lon="11.8275324"><ele>1316.0</ele><time>2026-04-23T12:36:57.539Z</time></trkpt><trkpt lat="46.0401157" lon="11.8275299"><ele>1316.0</ele><time>2026-04-23T12:36:59.541Z</time></trkpt><trkpt lat="46.0400506" lon="11.8275254"><ele>1316.0</ele><time>2026-04-23T12:37:01.539Z</time></trkpt><trkpt lat="46.0399617" lon="11.8275262"><ele>1316.0</ele><time>2026-04-23T12:37:04.54Z</time></trkpt><trkpt lat="46.0398717" lon="11.8275087"><ele>1316.0</ele><time>2026-04-23T12:37:07.54Z</time></trkpt><trkpt lat="46.0398073" lon="11.8275077"><ele>1317.0</ele><time>2026-04-23T12:37:09.538Z</time></trkpt><trkpt lat="46.0397426" lon="11.8275056"><ele>1318.0</ele><time>2026-04-23T12:37:11.54Z</time></trkpt><trkpt lat="46.0396614" lon="11.8275026"><ele>1319.0</ele><time>2026-04-23T12:37:14.539Z</time></trkpt><trkpt lat="46.0395841" lon="11.8274904"><ele>1320.0</ele><time>2026-04-23T12:37:17.539Z</time></trkpt><trkpt lat="46.039515" lon="11.8274479"><ele>1321.0</ele><time>2026-04-23T12:37:20.539Z</time></trkpt><trkpt lat="46.0394448" lon="11.8273814"><ele>1322.0</ele><time>2026-04-23T12:37:23.539Z</time></trkpt><trkpt lat="46.0393869" lon="11.8273192"><ele>1322.0</ele><time>2026-04-23T12:37:26.54Z</time></trkpt><trkpt lat="46.039315" lon="11.827286"><ele>1322.0</ele><time>2026-04-23T12:37:29.536Z</time></trkpt><trkpt lat="46.0392416" lon="11.8272365"><ele>1322.0</ele><time>2026-04-23T12:37:32.539Z</time></trkpt><trkpt lat="46.0391697" lon="11.827187"><ele>1322.0</ele><time>2026-04-23T12:37:35.54Z</time></trkpt><trkpt lat="46.0390929" lon="11.8271437"><ele>1322.0</ele><time>2026-04-23T12:37:38.538Z</time></trkpt><trkpt lat="46.039019" lon="11.8271043"><ele>1322.0</ele><time>2026-04-23T12:37:41.539Z</time></trkpt><trkpt lat="46.038937" lon="11.8270616"><ele>1324.142857142857</ele><time>2026-04-23T12:37:44.537Z</time></trkpt><trkpt lat="46.0388739" lon="11.8270087"><ele>1326.2857142857142</ele><time>2026-04-23T12:37:47.535Z</time></trkpt><trkpt lat="46.0388149" lon="11.8269756"><ele>1328.4285714285716</ele><time>2026-04-23T12:37:50.54Z</time></trkpt><trkpt lat="46.038747" lon="11.8269436"><ele>1330.5714285714284</ele><time>2026-04-23T12:37:54.538Z</time></trkpt><trkpt lat="46.0386831" lon="11.8269878"><ele>1332.7142857142858</ele><time>2026-04-23T12:39:17.537Z</time></trkpt><trkpt lat="46.0386257" lon="11.8270775"><ele>1334.857142857143</ele><time>2026-04-23T12:39:21.538Z</time></trkpt><trkpt lat="46.03856" lon="11.8271383"><ele>1337.0</ele><time>2026-04-23T12:39:24.539Z</time></trkpt><trkpt lat="46.0384975" lon="11.8271984"><ele>1337.0</ele><time>2026-04-23T12:39:27.539Z</time></trkpt><trkpt lat="46.0384323" lon="11.8272591"><ele>1337.0</ele><time>2026-04-23T12:39:30.537Z</time></trkpt><trkpt lat="46.0383687" lon="11.8273301"><ele>1337.0</ele><time>2026-04-23T12:39:33.538Z</time></trkpt><trkpt lat="46.0383002" lon="11.8273866"><ele>1337.0</ele><time>2026-04-23T12:39:36.537Z</time></trkpt><trkpt lat="46.0382292" lon="11.827463"><ele>1337.0</ele><time>2026-04-23T12:39:39.54Z</time></trkpt><trkpt lat="46.0381643" lon="11.8275249"><ele>1337.0</ele><time>2026-04-23T12:39:42.539Z</time></trkpt><trkpt lat="46.0380946" lon="11.827585"><ele>1338.5</ele><time>2026-04-23T12:39:45.539Z</time></trkpt><trkpt lat="46.0380246" lon="11.8276294"><ele>1340.0</ele><time>2026-04-23T12:39:48.535Z</time></trkpt><trkpt lat="46.037955" lon="11.8276705"><ele>1341.5</ele><time>2026-04-23T12:39:51.537Z</time></trkpt><trkpt lat="46.0378746" lon="11.8276845"><ele>1343.0</ele><time>2026-04-23T12:39:54.535Z</time></trkpt><trkpt lat="46.0377873" lon="11.8276872"><ele>1344.5</ele><time>2026-04-23T12:39:57.54Z</time></trkpt><trkpt lat="46.0377037" lon="11.8276869"><ele>1346.0</ele><time>2026-04-23T12:40:00.535Z</time></trkpt><trkpt lat="46.0376192" lon="11.8276997"><ele>1346.0</ele><time>2026-04-23T12:40:03.535Z</time></trkpt><trkpt lat="46.0375551" lon="11.8277641"><ele>1346.0</ele><time>2026-04-23T12:40:06.538Z</time></trkpt><trkpt lat="46.0375728" lon="11.827877"><ele>1346.0</ele><time>2026-04-23T12:40:09.535Z</time></trkpt><trkpt lat="46.0376359" lon="11.8279595"><ele>1346.0</ele><time>2026-04-23T12:40:12.536Z</time></trkpt><trkpt lat="46.0377088" lon="11.8280341"><ele>1346.0</ele><time>2026-04-23T12:40:15.537Z</time></trkpt><trkpt lat="46.0377554" lon="11.8281304"><ele>1346.0</ele><time>2026-04-23T12:40:18.538Z</time></trkpt><trkpt lat="46.0377931" lon="11.8282365"><ele>1346.0</ele><time>2026-04-23T12:40:21.537Z</time></trkpt><trkpt lat="46.0378119" lon="11.8283658"><ele>1346.0</ele><time>2026-04-23T12:40:24.539Z</time></trkpt><trkpt lat="46.0377787" lon="11.82848"><ele>1346.0</ele><time>2026-04-23T12:40:27.536Z</time></trkpt><trkpt lat="46.0377147" lon="11.8285774"><ele>1346.0</ele><time>2026-04-23T12:40:30.537Z</time></trkpt><trkpt lat="46.0376357" lon="11.8286394"><ele>1346.0</ele><time>2026-04-23T12:40:33.536Z</time></trkpt><trkpt lat="46.0375785" lon="11.8286776"><ele>1346.0</ele><time>2026-04-23T12:40:35.536Z</time></trkpt><trkpt lat="46.037493" lon="11.8287403"><ele>1346.8333333333335</ele><time>2026-04-23T12:40:38.539Z</time></trkpt><trkpt lat="46.0374337" lon="11.8287875"><ele>1347.6666666666667</ele><time>2026-04-23T12:40:40.539Z</time></trkpt><trkpt lat="46.0373719" lon="11.8288186"><ele>1348.5</ele><time>2026-04-23T12:40:42.535Z</time></trkpt><trkpt lat="46.0372952" lon="11.8288773"><ele>1349.3333333333333</ele><time>2026-04-23T12:40:45.539Z</time></trkpt><trkpt lat="46.0372366" lon="11.8289112"><ele>1350.1666666666665</ele><time>2026-04-23T12:40:47.539Z</time></trkpt><trkpt lat="46.0371516" lon="11.8289503"><ele>1351.0</ele><time>2026-04-23T12:40:50.539Z</time></trkpt><trkpt lat="46.0370704" lon="11.8290087"><ele>1351.0</ele><time>2026-04-23T12:40:53.539Z</time></trkpt><trkpt lat="46.0369844" lon="11.829057"><ele>1351.0</ele><time>2026-04-23T12:40:56.539Z</time></trkpt><trkpt lat="46.0369231" lon="11.8290912"><ele>1351.0</ele><time>2026-04-23T12:40:58.538Z</time></trkpt><trkpt lat="46.0368365" lon="11.8291414"><ele>1351.0</ele><time>2026-04-23T12:41:01.538Z</time></trkpt><trkpt lat="46.0367532" lon="11.829188"><ele>1351.0</ele><time>2026-04-23T12:41:04.539Z</time></trkpt><trkpt lat="46.0366784" lon="11.8292244"><ele>1351.0</ele><time>2026-04-23T12:41:07.537Z</time></trkpt><trkpt lat="46.0366058" lon="11.8292554"><ele>1349.8333333333333</ele><time>2026-04-23T12:41:10.537Z</time></trkpt><trkpt lat="46.0365261" lon="11.8292971"><ele>1348.6666666666665</ele><time>2026-04-23T12:41:13.539Z</time></trkpt><trkpt lat="46.0364458" lon="11.8293369"><ele>1347.5</ele><time>2026-04-23T12:41:16.537Z</time></trkpt><trkpt lat="46.036366" lon="11.8293777"><ele>1346.3333333333333</ele><time>2026-04-23T12:41:19.539Z</time></trkpt><trkpt lat="46.0362841" lon="11.8294085"><ele>1345.1666666666667</ele><time>2026-04-23T12:41:22.541Z</time></trkpt><trkpt lat="46.036201" lon="11.8294403"><ele>1344.0</ele><time>2026-04-23T12:41:25.539Z</time></trkpt><trkpt lat="46.0361178" lon="11.8294568"><ele>1344.0</ele><time>2026-04-23T12:41:28.536Z</time></trkpt><trkpt lat="46.0360425" lon="11.8294757"><ele>1344.0</ele><time>2026-04-23T12:41:31.536Z</time></trkpt><trkpt lat="46.0359643" lon="11.8294876"><ele>1344.0</ele><time>2026-04-23T12:41:34.536Z</time></trkpt><trkpt lat="46.03588" lon="11.829507"><ele>1344.0</ele><time>2026-04-23T12:41:37.538Z</time></trkpt><trkpt lat="46.0357927" lon="11.8295238"><ele>1344.0</ele><time>2026-04-23T12:41:40.537Z</time></trkpt><trkpt lat="46.0357105" lon="11.8295449"><ele>1344.0</ele><time>2026-04-23T12:41:43.539Z</time></trkpt><trkpt lat="46.035627" lon="11.8295784"><ele>1345.5</ele><time>2026-04-23T12:41:46.537Z</time></trkpt><trkpt lat="46.0355396" lon="11.8296084"><ele>1347.0</ele><time>2026-04-23T12:41:49.536Z</time></trkpt><trkpt lat="46.0354566" lon="11.8296423"><ele>1348.5</ele><time>2026-04-23T12:41:52.538Z</time></trkpt><trkpt lat="46.0353726" lon="11.8296623"><ele>1350.0</ele><time>2026-04-23T12:41:55.539Z</time></trkpt><trkpt lat="46.0352882" lon="11.8296745"><ele>1351.5</ele><time>2026-04-23T12:41:58.538Z</time></trkpt><trkpt lat="46.0352034" lon="11.829687"><ele>1353.0</ele><time>2026-04-23T12:42:01.54Z</time></trkpt><trkpt lat="46.0351167" lon="11.8296968"><ele>1353.0</ele><time>2026-04-23T12:42:04.536Z</time></trkpt><trkpt lat="46.0350264" lon="11.829697"><ele>1353.0</ele><time>2026-04-23T12:42:07.536Z</time></trkpt><trkpt lat="46.0349533" lon="11.8296387"><ele>1353.0</ele><time>2026-04-23T12:42:10.54Z</time></trkpt><trkpt lat="46.034892" lon="11.8295606"><ele>1353.0</ele><time>2026-04-23T12:42:13.539Z</time></trkpt><trkpt lat="46.0348273" lon="11.8294881"><ele>1353.0</ele><time>2026-04-23T12:42:16.538Z</time></trkpt><trkpt lat="46.0347517" lon="11.8294379"><ele>1353.0</ele><time>2026-04-23T12:42:19.536Z</time></trkpt><trkpt lat="46.0346695" lon="11.8294047"><ele>1354.0</ele><time>2026-04-23T12:42:22.538Z</time></trkpt><trkpt lat="46.0345833" lon="11.8293816"><ele>1355.0</ele><time>2026-04-23T12:42:25.539Z</time></trkpt><trkpt lat="46.0345022" lon="11.8293309"><ele>1356.0</ele><time>2026-04-23T12:42:28.539Z</time></trkpt><trkpt lat="46.0344261" lon="11.8292834"><ele>1357.0</ele><time>2026-04-23T12:42:31.536Z</time></trkpt><trkpt lat="46.0343567" lon="11.8292288"><ele>1358.0</ele><time>2026-04-23T12:42:34.541Z</time></trkpt><trkpt lat="46.0342897" lon="11.8291736"><ele>1359.0</ele><time>2026-04-23T12:42:37.537Z</time></trkpt><trkpt lat="46.0342003" lon="11.8291576"><ele>1360.1666666666667</ele><time>2026-04-23T12:42:40.538Z</time></trkpt><trkpt lat="46.0341142" lon="11.8291979"><ele>1361.3333333333333</ele><time>2026-04-23T12:42:43.537Z</time></trkpt><trkpt lat="46.0340436" lon="11.8292678"><ele>1362.5</ele><time>2026-04-23T12:42:46.539Z</time></trkpt><trkpt lat="46.0339727" lon="11.8293421"><ele>1363.6666666666665</ele><time>2026-04-23T12:42:49.538Z</time></trkpt><trkpt lat="46.033893" lon="11.8294201"><ele>1364.8333333333333</ele><time>2026-04-23T12:42:52.54Z</time></trkpt><trkpt lat="46.0338397" lon="11.8294732"><ele>1366.0</ele><time>2026-04-23T12:42:54.539Z</time></trkpt><trkpt lat="46.0337668" lon="11.8295589"><ele>1366.0</ele><time>2026-04-23T12:42:57.538Z</time></trkpt><trkpt lat="46.0336984" lon="11.8296307"><ele>1366.0</ele><time>2026-04-23T12:43:00.537Z</time></trkpt><trkpt lat="46.0336315" lon="11.8297056"><ele>1366.0</ele><time>2026-04-23T12:43:03.538Z</time></trkpt><trkpt lat="46.03356" lon="11.8297763"><ele>1366.0</ele><time>2026-04-23T12:43:06.539Z</time></trkpt><trkpt lat="46.0334871" lon="11.8298458"><ele>1366.0</ele><time>2026-04-23T12:43:09.538Z</time></trkpt><trkpt lat="46.0334292" lon="11.8298818"><ele>1366.0</ele><time>2026-04-23T12:43:11.539Z</time></trkpt><trkpt lat="46.0333481" lon="11.8299279"><ele>1368.0</ele><time>2026-04-23T12:43:14.539Z</time></trkpt><trkpt lat="46.0332684" lon="11.8299641"><ele>1370.0</ele><time>2026-04-23T12:43:17.539Z</time></trkpt><trkpt lat="46.0331863" lon="11.8300095"><ele>1372.0</ele><time>2026-04-23T12:43:20.537Z</time></trkpt><trkpt lat="46.0330963" lon="11.8300452"><ele>1374.0</ele><time>2026-04-23T12:43:23.539Z</time></trkpt><trkpt lat="46.0330093" lon="11.8300767"><ele>1376.0</ele><time>2026-04-23T12:43:26.537Z</time></trkpt><trkpt lat="46.0329468" lon="11.8300885"><ele>1378.0</ele><time>2026-04-23T12:43:28.54Z</time></trkpt><trkpt lat="46.03288" lon="11.8300967"><ele>1378.0</ele><time>2026-04-23T12:43:30.54Z</time></trkpt><trkpt lat="46.0328146" lon="11.8301009"><ele>1378.0</ele><time>2026-04-23T12:43:32.539Z</time></trkpt><trkpt lat="46.032722" lon="11.8300995"><ele>1378.0</ele><time>2026-04-23T12:43:35.54Z</time></trkpt><trkpt lat="46.0326589" lon="11.8300973"><ele>1378.0</ele><time>2026-04-23T12:43:37.536Z</time></trkpt><trkpt lat="46.0325685" lon="11.8300803"><ele>1378.0</ele><time>2026-04-23T12:43:40.54Z</time></trkpt><trkpt lat="46.0324998" lon="11.830071"><ele>1378.0</ele><time>2026-04-23T12:43:42.54Z</time></trkpt><trkpt lat="46.0324358" lon="11.8300524"><ele>1378.0</ele><time>2026-04-23T12:43:44.54Z</time></trkpt><trkpt lat="46.032348" lon="11.8300235"><ele>1379.1666666666665</ele><time>2026-04-23T12:43:47.539Z</time></trkpt><trkpt lat="46.0322609" lon="11.8299939"><ele>1380.3333333333333</ele><time>2026-04-23T12:43:50.54Z</time></trkpt><trkpt lat="46.0321729" lon="11.8299479"><ele>1381.5</ele><time>2026-04-23T12:43:53.539Z</time></trkpt><trkpt lat="46.0320893" lon="11.8299086"><ele>1382.6666666666667</ele><time>2026-04-23T12:43:56.538Z</time></trkpt><trkpt lat="46.032008" lon="11.8298725"><ele>1383.8333333333335</ele><time>2026-04-23T12:43:59.539Z</time></trkpt><trkpt lat="46.0319329" lon="11.8298141"><ele>1385.0</ele><time>2026-04-23T12:44:02.539Z</time></trkpt><trkpt lat="46.0318633" lon="11.8297538"><ele>1385.0</ele><time>2026-04-23T12:44:05.539Z</time></trkpt><trkpt lat="46.0317934" lon="11.8296804"><ele>1385.0</ele><time>2026-04-23T12:44:08.541Z</time></trkpt><trkpt lat="46.0317304" lon="11.8296205"><ele>1385.0</ele><time>2026-04-23T12:44:11.539Z</time></trkpt><trkpt lat="46.0316742" lon="11.8295633"><ele>1385.0</ele><time>2026-04-23T12:44:14.541Z</time></trkpt><trkpt lat="46.0316152" lon="11.8295047"><ele>1385.0</ele><time>2026-04-23T12:44:17.538Z</time></trkpt><trkpt lat="46.0315552" lon="11.8294316"><ele>1385.0</ele><time>2026-04-23T12:44:20.538Z</time></trkpt><trkpt lat="46.0315029" lon="11.8293422"><ele>1385.1666666666667</ele><time>2026-04-23T12:44:23.539Z</time></trkpt><trkpt lat="46.0314464" lon="11.8292673"><ele>1385.3333333333335</ele><time>2026-04-23T12:44:26.538Z</time></trkpt><trkpt lat="46.0313847" lon="11.8291877"><ele>1385.5</ele><time>2026-04-23T12:44:29.539Z</time></trkpt><trkpt lat="46.0313187" lon="11.829107"><ele>1385.6666666666667</ele><time>2026-04-23T12:44:32.541Z</time></trkpt><trkpt lat="46.0312548" lon="11.8290217"><ele>1385.8333333333333</ele><time>2026-04-23T12:44:35.539Z</time></trkpt><trkpt lat="46.0311887" lon="11.8289343"><ele>1386.0</ele><time>2026-04-23T12:44:38.539Z</time></trkpt><trkpt lat="46.0311402" lon="11.8288732"><ele>1386.0</ele><time>2026-04-23T12:44:40.537Z</time></trkpt><trkpt lat="46.0310707" lon="11.8287875"><ele>1386.0</ele><time>2026-04-23T12:44:43.539Z</time></trkpt><trkpt lat="46.0309968" lon="11.8287061"><ele>1386.0</ele><time>2026-04-23T12:44:46.537Z</time></trkpt><trkpt lat="46.0309259" lon="11.8286354"><ele>1386.0</ele><time>2026-04-23T12:44:49.538Z</time></trkpt><trkpt lat="46.0308609" lon="11.8285609"><ele>1386.0</ele><time>2026-04-23T12:44:52.536Z</time></trkpt><trkpt lat="46.0307984" lon="11.8284854"><ele>1386.0</ele><time>2026-04-23T12:44:55.54Z</time></trkpt><trkpt lat="46.0307387" lon="11.8284109"><ele>1384.8333333333333</ele><time>2026-04-23T12:44:58.539Z</time></trkpt><trkpt lat="46.0306824" lon="11.8283196"><ele>1383.6666666666667</ele><time>2026-04-23T12:45:01.539Z</time></trkpt><trkpt lat="46.030628" lon="11.8282214"><ele>1382.5</ele><time>2026-04-23T12:45:04.539Z</time></trkpt><trkpt lat="46.0305823" lon="11.828112"><ele>1381.3333333333335</ele><time>2026-04-23T12:45:07.538Z</time></trkpt><trkpt lat="46.0305341" lon="11.8279958"><ele>1380.1666666666667</ele><time>2026-04-23T12:45:10.537Z</time></trkpt><trkpt lat="46.0304998" lon="11.8279152"><ele>1379.0</ele><time>2026-04-23T12:45:12.539Z</time></trkpt><trkpt lat="46.030468" lon="11.8278369"><ele>1379.0</ele><time>2026-04-23T12:45:14.537Z</time></trkpt><trkpt lat="46.030421" lon="11.8277234"><ele>1379.0</ele><time>2026-04-23T12:45:17.537Z</time></trkpt><trkpt lat="46.0303799" lon="11.8276147"><ele>1379.0</ele><time>2026-04-23T12:45:20.541Z</time></trkpt><trkpt lat="46.0303369" lon="11.8274954"><ele>1379.0</ele><time>2026-04-23T12:45:23.538Z</time></trkpt><trkpt lat="46.0303037" lon="11.8273747"><ele>1379.0</ele><time>2026-04-23T12:45:26.541Z</time></trkpt><trkpt lat="46.0302692" lon="11.8272556"><ele>1382.2</ele><time>2026-04-23T12:45:29.54Z</time></trkpt><trkpt lat="46.0302337" lon="11.8271322"><ele>1385.4</ele><time>2026-04-23T12:45:32.538Z</time></trkpt><trkpt lat="46.0302037" lon="11.8270033"><ele>1388.6</ele><time>2026-04-23T12:45:35.54Z</time></trkpt><trkpt lat="46.0301789" lon="11.8268792"><ele>1391.8</ele><time>2026-04-23T12:45:38.54Z</time></trkpt><trkpt lat="46.0301524" lon="11.82676"><ele>1395.0</ele><time>2026-04-23T12:45:41.538Z</time></trkpt><trkpt lat="46.0301259" lon="11.8266382"><ele>1396.6666666666667</ele><time>2026-04-23T12:45:44.54Z</time></trkpt><trkpt lat="46.0301053" lon="11.8265076"><ele>1398.3333333333333</ele><time>2026-04-23T12:45:47.537Z</time></trkpt><trkpt lat="46.0300927" lon="11.8264183"><ele>1400.0</ele><time>2026-04-23T12:45:49.54Z</time></trkpt><trkpt lat="46.0300952" lon="11.8263034"><ele>1401.6666666666665</ele><time>2026-04-23T12:45:52.539Z</time></trkpt><trkpt lat="46.0301323" lon="11.8262052"><ele>1403.3333333333333</ele><time>2026-04-23T12:45:55.537Z</time></trkpt><trkpt lat="46.0302115" lon="11.8261936"><ele>1405.0</ele><time>2026-04-23T12:45:59.539Z</time></trkpt><trkpt lat="46.0302752" lon="11.8262434"><ele>1405.0</ele><time>2026-04-23T12:46:02.538Z</time></trkpt><trkpt lat="46.030336" lon="11.826277"><ele>1405.0</ele><time>2026-04-23T12:46:05.54Z</time></trkpt><trkpt lat="46.0303563" lon="11.8264096"><ele>1405.0</ele><time>2026-04-23T12:48:07.536Z</time></trkpt></trkseg></trk></gpx>